     2              OBSERVATION DATA    GPS                 RINEX VERSION / TYPE
ASRINEXO V2.8.2 VM IGPP 15-AUG-97 08:06                     PGM / RUN BY / DATE
                                                            COMMENT
BIT 2 OF LLI (+4) FLAGS DATA COLLECTED UNDER "AS" CONDITION COMMENT
Original Marker Name: POST                                  COMMENT
Campaign Name: hpgn california 1991                         COMMENT
4-Character Station Name: POST                              COMMENT
6-Character Antenna Code: ASHL12                            COMMENT
Vertical Measurement Point: TGP                             COMMENT
Vertical Offset to Rinex Ref. Point: 0.0640                 COMMENT
Radial Measurement Point: OCH                               COMMENT
Radial Offset to Rinex Ref. Point: 0.1147                   COMMENT
Antenna Height from Field Measurement: 1.5500 m             COMMENT
Additional Antenna Identification Info.:                    COMMENT
Original Ashtech L1/L2                                      COMMENT
Original XYZ: 6378137.0000 0.0000 0.0000                    COMMENT
New XYZ position is based on association with SCEC monument COMMENT
E1F3Q7A0+0011. Position of that monument is believed to be  COMMENT
valid to within 1 m horizontally; vertical accuracy         COMMENT
should be no worse than 3-times this value.                 COMMENT
                                                            COMMENT
Revised Rinex header created by UCSD GPS archive for        COMMENT
GSAC on 14-Apr-1999 (1999:104) 20:23:09 GMT                 COMMENT
For assistance contact dagnew@ucsd.edu or hjohnson@ucsd.edu COMMENT
                                                            COMMENT
PP 138 ECC 1934                                             MARKER NAME
SAB CALIF DEPT TRANSPORTATION                               OBSERVER / AGENCY
784 ASHTECH L-XII3 6A                                       REC # / TYPE / VERS
789 ASHTECH GEODETIC L                                      ANT # / TYPE
 -2189133.0000 -4742739.0000  3649000.0000                  APPROX POSITION XYZ
        1.4818        0.0000        0.0000                  ANTENNA: DELTA H/E/N
     1     2     0                                          WAVELENGTH FACT L1/2
     3    C1    L1    L2                                    # / TYPES OF OBSERV
     0                                                      INTERVAL
  1991     7    31     0    45   45.000000                  TIME OF FIRST OBS
  1991     7    31     6    11   30.000000                  TIME OF LAST OBS
     0                                                      # OF SATELLITES
                                                            END OF HEADER
 91  7 31  0 45 45.0000000  0  4 16 17 03 20
  25035631.591           0.347 2         0.465 1
  28731100.376           0.663 3         0.174 2
  28167697.708           0.319 4         0.390 2
  30796867.072           0.049 2         0.437 1
 91  7 31  0 46  0.0000000  0  4 16 17 03 20
  30745630.144       73266.733 2     57091.133 2
  28733481.327       12500.435 4      9740.281 2
  28170437.514       14400.509 4     11221.329 2
  31411770.787       80484.080 2     62715.066 1
 91  7 31  0 46 15.0000000  0  4 16 17 03 20
  30459793.327      146591.431 3    114227.242 1
  28436074.317       25057.753 4     19525.221 2
  27873404.340       28897.821 4     22517.947 3
  31127294.126      160990.368 2    125447.091 1
 91  7 31  0 46 30.0000000  0  5 23 16 17 03 20
  30316377.412           0.371 2         0.211 1
  30473768.447      220046.696 2    171465.026 1
  28438490.640       37752.878 3     29417.537 2
  27876195.110       43572.947 4     33953.099 2
  31142636.899      241589.690 2    188251.631 1
 91  7 31  0 46 45.0000000  0  5 23 16 17 03 20
  22818274.233       -3940.523 2     -3070.389 1
  22992991.781       32209.402 2     25098.143 1
  20946129.700         336.979 4       262.162 2
  20384220.596         490.580 4       382.487 2
  23663209.300       35227.278 2     27449.779 1
 91  7 31  0 47  0.0000000  0  5 23 16 17 03 20
  22815032.280      -20998.485 2    -16362.279 1
  23007031.965      106003.495 2     82599.988 1
  20948612.281       13378.784 4     10424.625 2
  20387091.409       15592.847 4     12150.494 2
  23678590.149      116091.206 2     90460.437 1
 91  7 31  0 47 15.0000000  0  5 23 16 17 03 20
  22811827.504      -37836.067 2    -29482.417 1
  23021112.912      180003.127 2    140261.997 1
  20951133.236       26630.636 3     20750.787 2
  20390015.289       30945.789 3     24113.835 2
  23694015.671      197123.951 2    153602.614 1
 91  7 31  0 47 30.0000000  0  5 23 16 17 03 20
  22808669.485      -54438.092 2    -42418.976 1
  23035237.938      254222.785 2    198095.447 1
  20953698.557       40107.046 4     31251.873 2
  20392987.725       46564.589 4     36284.324 2
  23709468.179      278339.873 2    216887.712 1
 91  7 31  0 47 45.0000000  0  5 23 16 17 03 20
  22805557.344      -70796.300 2    -55165.577 1
  23049401.931      328670.301 2    256106.449 1
  20956306.152       53816.291 3     41934.410 2
  20396012.336       62457.702 4     48668.566 2
  23724962.052      359746.576 2    280321.349 1
 91  7 31  0 48  0.0000000  0  5 23 16 17 03 20
  22802490.163      -86896.203 2    -67710.906 1
  23063622.288      403359.784 2    314305.966 1
  20958962.311       67772.835 4     52809.634 2
  20399090.903       78639.524 4     61277.756 2
  23740491.298      441357.981 2    343914.492 1
 91  7 31  0 48 15.0000000  0  5 23 16 17 03 20
  22799476.048     -102737.690 3    -80054.892 1
  23077881.611      478290.630 3    372693.536 1
  20961666.737       81976.375 4     63877.302 2
  20402226.734       95110.352 4     74112.145 2
  23756063.715      523173.738 2    407667.271 1
 91  7 31  0 48 30.0000000  0  5 23 16 17 03 20
  22796509.004     -118322.414 2    -92198.886 2
  23092178.121      553460.999 2    431267.693 1
  20964415.835       96425.083 4     75135.958 3
  20405414.723      111868.873 4     87170.643 2
  23771667.019      605191.618 2    471577.558 1
 91  7 31  0 48 45.0000000  0  5 23 16 17 03 20
  22793595.324     -133648.451 2   -104141.350 1
  23106525.289      628872.433 2    490029.613 1
  20967210.200      111120.668 3     86586.958 2
  20408658.177      128916.961 3    100454.771 2
  23787316.183      687413.126 2    535646.371 1
 91  7 31  0 49  0.0000000  0  5 23 16 17 03 20
  22790725.112     -148715.077 2   -115881.650 1
  23120921.317      704524.848 2    548979.368 1
  20970057.630      126063.484 3     98230.637 2
  20411960.395      146255.169 3    113965.011 2
  23803002.524      769838.354 2    599873.894 1
 91  7 31  0 49 15.0000000  0  5 23 16 17 03 20
  22787910.951     -163526.409 2   -127422.908 1
  23135364.714      780413.885 2    608113.580 1
  20972942.841      141249.351 3    110063.743 2
  20415311.465      163879.734 3    127698.382 2
  23818725.135      852462.669 2    664256.341 1
 91  7 31  0 49 30.0000000  0  5 23 16 17 03 20
  22785137.570     -178089.391 2   -138770.683 1
  23149850.995      856532.090 2    667426.396 1
  20975878.404      156671.166 3    122080.743 2
  20418718.324      181783.748 3    141649.558 2
  23834484.322      935278.539 2    728788.080 1
 91  7 31  0 49 45.0000000  0  5 23 16 17 03 20
  22782415.458     -192411.180 2   -149930.416 1
  23164379.226      932871.325 2    726911.504 1
  20978857.435      172321.343 4    134275.699 2
  20422179.121      199959.767 4    155812.693 2
  23850277.990     1018277.969 2    793462.713 1
 91  7 31  0 50  0.0000000  0  5 23 16 17 03 20
  22779730.812     -206508.288 2   -160915.113 1
  23178946.755     1009414.822 2    786555.709 1
  20981877.544      188183.263 4    146635.646 2
  20425686.091      218391.823 4    170175.331 2
  23866102.546     1101444.025 2    858267.317 1
 91  7 31  0 50 15.0000000  0  5 23 16 17 03 20
  22777092.042     -220380.539 2   -171724.593 1
  23193553.233     1086162.598 2    846359.129 1
  20984936.323      204257.149 4    159160.767 3
  20429240.439      237080.058 4    184737.600 2
  23881961.862     1184776.331 2    923201.825 1
 91  7 31  0 50 30.0000000  0  5 23 16 17 03 20
  22774490.756     -234023.796 2   -182355.611 2
  23208196.304     1163118.101 2    906324.417 1
  20988034.993      220546.717 4    171853.941 2
  20432847.242      256028.575 4    199502.681 2
  23897847.860     1268278.568 2    988268.420 1
 91  7 31  0 50 45.0000000  0  5 23 16 17 03 20
  22771941.611     -247442.600 3   -192811.768 2
  23222874.746     1240276.262 2    966447.624 1
  20991176.817      237047.089 4    184711.380 2
  20436504.702      275232.906 4    214467.096 2
  23913776.139     1351945.428 2   1053463.192 1
 91  7 31  0 51  0.0000000  0  5 23 16 17 03 20
  22769429.059     -260642.509 2   -203097.339 2
  23237594.546     1317630.679 2   1026723.703 1
  20994353.420      253752.548 4    197728.611 3
  20440205.039      294687.626 4    229626.605 2
  23929724.504     1435770.718 2   1118781.405 1
 91  7 31  0 51 15.0000000  0  5 23 16 17 03 20
  22766959.067     -273627.523 2   -213215.504 1
  23252354.830     1395177.359 2   1087149.624 1
  20997572.584      270659.142 4    210902.573 2
  20443954.549      314388.706 4    244978.084 2
  23945707.333     1519750.080 2   1184219.691 1
 91  7 31  0 51 30.0000000  0  5 23 16 17 03 20
  22764528.043     -286403.081 2   -223170.433 1
  23267146.298     1472910.154 2   1147720.600 1
  21000826.823      287761.072 4    224228.734 2
  20447746.325      334330.922 4    260517.464 2
  23961711.451     1603877.493 2   1249773.321 1
 91  7 31  0 51 45.0000000  0  5 23 16 17 03 20
  22762139.300     -298968.556 3   -232961.650 1
  23281976.121     1550829.282 2   1208436.686 1
  21004117.655      305058.784 4    237707.470 2
  20451588.165      354515.104 4    276245.383 2
  23977755.443     1688152.989 2   1315442.328 1
 91  7 31  0 52  0.0000000  0  5 23 16 17 03 20
  22759784.131     -311329.328 2   -242593.365 1
  23296835.034     1628928.660 2   1269293.320 1
  21007443.544      322546.382 4    251334.173 2
  20455476.771      374935.617 4    292157.456 2
  23993810.830     1772570.655 2   1381222.166 1
 91  7 31  0 52 15.0000000  0  5 23 16 17 03 20
  22757470.023     -323484.154 2   -252064.595 1
  23311732.930     1707209.228 2   1330291.159 1
  21010808.417      340225.318 4    265109.979 3
  20459407.049      395593.970 4    308254.885 2
  24009906.387     1857131.370 2   1447113.470 1
 91  7 31  0 52 30.0000000  0  5 23 16 17 03 20
  22755190.414     -335439.288 2   -261380.200 1
  23326660.789     1785664.477 2   1391425.079 1
  21014206.864      358088.926 4    279029.680 2
  20463381.388      416484.058 4    324532.879 2
  24026025.328     1941828.282 2   1513110.908 1
 91  7 31  0 52 45.0000000  0  5 23 16 17 03 20
  22752957.850     -347196.196 2   -270541.334 2
  23341625.834     1864291.964 2   1452693.206 1
  21017640.998      376135.643 4    293092.062 2
  20467401.308      437604.378 4    340990.273 2
  24042170.357     2026659.095 2   1579212.718 1
 91  7 31  0 53  0.0000000  0  5 23 16 17 03 20
  22750760.379     -358759.174 2   -279551.413 1
  23356615.449     1943087.273 2   1514092.073 1
  21021108.391      394360.756 3    307293.442 2
  20471462.008      458950.920 4    357623.941 2
  24058335.157     2111619.278 2   1645415.225 1
 91  7 31  0 53 15.0000000  0  5 23 16 17 03 20
  22748594.982     -370128.560 2   -288410.568 1
  23371645.548     2022049.519 2   1575621.056 1
  21024611.766      412763.930 4    321633.591 2
  20475567.661      480523.669 4    374433.873 2
  24074528.749     2196707.969 2   1711717.961 1
 91  7 31  0 53 30.0000000  0  5 23 16 17 03 20
  22746469.441     -381310.829 2   -297123.957 1
  23386699.624     2101171.835 2   1637274.798 1
  21028148.419      431338.310 4    336107.141 2
  20479714.984      502315.567 4    391414.573 2
  24090738.222     2281917.842 2   1778115.097 1
 91  7 31  0 53 45.0000000  0  5 23 16 17 03 20
  22744376.601     -392306.636 2   -305692.043 1
  23401787.571     2180453.054 2   1699052.320 1
  21031714.441      450083.355 4    350713.699 2
  20483901.588      524326.359 4    408565.837 2
  24106978.284     2367247.891 2   1844605.886 1
 91  7 31  0 54  0.0000000  0  5 23 16 17 03 20
  22742315.224     -403114.906 2   -314113.993 1
  23416905.811     2259893.609 2   1760954.016 1
  21035315.259      468999.511 4    365453.565 2
  20488134.958      546557.249 4    425888.607 2
  24123243.231     2452698.470 2   1911190.594 1
 91  7 31  0 54 15.0000000  0  5 23 16 17 03 20
  22740297.019     -413738.999 2   -322392.435 1
  23432055.218     2339489.682 2   1822976.902 1
  21038944.537      488083.216 4    380323.991 2
  20492404.608      569004.879 4    443380.275 2
  24139519.258     2538265.764 2   1977866.235 1
 91  7 31  0 54 30.0000000  0  5 23 16 17 03 20
  22738310.295     -424182.779 2   -330530.356 1
  23447222.930     2419237.060 2   1885117.664 1
  21042608.001      507330.709 4    395322.060 2
  20496717.726      591665.343 4    461037.787 2
  24155825.562     2623945.348 2   2044629.463
 91  7 31  0 54 45.0000000  0  5 23 16 17 03 20
  22736351.159     -434449.339 2   -338530.215 2
  23462431.091     2499132.176 2   1947373.552 1
  21046302.055      526738.668 4    410445.148 3
  20501070.700      614535.673 4    478858.817 3
  24172148.373     2709733.663 2   2111477.724 1
 91  7 31  0 55  0.0000000  0  5 23 16 17 03 20
  22734436.975     -444539.747 2   -346392.792 1
  23477659.949     2579173.171 2   2009743.155 1
  21050025.775      546305.744 4    425692.221 3
  20505460.267      637614.974 4    496842.687 2
  24188495.458     2795628.867 2   2178408.946 1
 91  7 31  0 55 15.0000000  0  5 23 16 17 03 20
  22732544.080     -454454.019 2   -354118.131 2
  23492918.785     2659359.693 2   2072226.098 2
  21053778.270      566031.767 4    441063.164 2
  20509894.804      660903.389 4    514989.514 2
  24204865.612     2881630.462 2   2245422.962 1
 91  7 31  0 55 30.0000000  0  5 23 16 17 03 20
  22730697.672     -464166.336 2   -361686.093 2
  23508209.399     2739716.994 2   2134842.130 1
  21057565.246      585942.071 4    456577.691 3
  20514371.588      684426.799 4    533319.447 2
  24221256.776     2967763.823 2   2312539.741 1
 91  7 31  0 55 45.0000000  0  5 23 16 17 03 20
  22728883.914     -473706.199 2   -369119.678 2
  23523525.804     2820215.322 2   2197568.040 1
  21061387.297      606007.324 4    472212.966 2
  20518885.575      708155.843 4    551809.609 2
  24237659.318     3053998.943 2   2379735.803
 91  7 31  0 56  0.0000000  0  5 23 16 17 03 20
  22727098.949     -483080.263 2   -376424.095 1
  23538870.374     2900847.502 2   2260398.276 1
  21065227.654      626220.599 3    487963.580 2
  20523435.213      732083.701 4    570454.692 2
  24254087.040     3140328.530 2   2447005.366 1
 91  7 31  0 56 15.0000000  0  5 23 16 17 03 20
  22725349.669     -492288.437 3   -383599.222 1
  23554246.441     2981613.205 2   2323332.564 1
  21069106.366      646581.948 4    503829.584 2
  20528030.745      756210.715 4    589254.980 2
  24270545.056     3226752.249 2   2514348.394 1
 91  7 31  0 56 30.0000000  0  5 23 16 17 03 20
  22723627.053     -501326.234 2   -390641.598 1
  23569637.481     3062516.598 2   2386374.101 1
  21073008.165      667095.347 4    519814.056 3
  20532658.630      780541.365 4    608213.933 2
  24287002.461     3313273.904 2   2581767.647 1
 91  7 31  0 56 45.0000000  0  5 23 16 17 03 20
  22721941.921     -510201.572 2   -397557.339 1
  23585051.607     3143549.084 2   2449516.286 1
  21076942.928      687752.366 4    535910.453 2
  20537327.297      805067.900 4    627325.528 2
  24303485.640     3399885.005 2   2649256.760 1
 91  7 31  0 57  0.0000000  0  5 23 16 17 03 20
  22720278.077     -518916.998 2   -404348.526 1
  23600509.202     3224707.389 2   2512756.484 1
  21080894.494      708550.599 4    552116.881 2
  20542034.947      829787.923 4    646587.898 2
  24319983.826     3486582.809 2   2716813.246 1
 91  7 31  0 57 15.0000000  0  5 23 16 17 03 20
  22718647.808     -527473.405 2   -411015.776 2
  23615965.314     3305990.172 2   2576093.706 1
  21084884.731      729489.047 4    568432.572 2
  20546771.058      854700.208 4    666000.079 2
  24336499.689     3573365.688 2   2784436.147 1
 91  7 31  0 57 30.0000000  0  5 23 16 17 03 20
  22717054.411     -535871.539 2   -417559.708 2
  23631458.280     3387396.167 2   2639526.891 1
  21088892.959      750566.534 4    584856.597 2
  20551547.968      879804.609 4    685561.964 2
  24353024.557     3660232.160 2   2852124.124 1
 91  7 31  0 57 45.0000000  0  5 23 16 17 03 20
  22715486.195     -544113.068 2   -423981.606 2
  23646967.737     3468923.789 2   2703054.883 1
  21092931.463      771781.559 4    601387.804 3
  20556362.622      905099.555 4    705272.326 2
  24369570.103     3747180.409 2   2919875.858 1
 91  7 31  0 58  0.0000000  0  5 23 16 17 03 20
  22713944.660     -552202.009 3   -430284.602 2
  23662518.586     3550568.132 2   2766673.844 1
  21096995.461      793129.836 4    618022.838 3
  20561208.164      930580.637 4    725127.725 2
  24386133.623     3834205.621 2   2987687.523
 91  7 31  0 58 15.0010000  0  5 23 16 17 03 20
  22712436.406     -560140.813 2   -436470.614 2
  23678075.406     3632332.343 2   2830386.156 1
  21101081.032      814610.517 4    634761.040 2
  20566094.193      956247.820 4    745128.134 2
  24402707.965     3921310.993 2   3055561.693 1
 91  7 31  0 58 30.0010000  0  5 23 16 17 03 20
  22710957.239     -567926.848 3   -442537.590 2
  23693649.935     3714206.756 2   2894184.371 1
  21105190.279      836222.280 4    651601.394 3
  20571017.074      982099.566 4    765272.357 2
  24419306.560     4008486.141 2   3123490.235 1
 91  7 31  0 58 45.0010000  0  5 23 16 17 03 20
  22709500.233     -575562.662 3   -448487.491 1
  23709253.832     3796194.382 2   2958070.808 1
  21109331.913      857964.435 4    668543.350 3
  20575970.545     1008135.707 4    785560.280 2
  24435900.373     4095734.464 2   3191475.771 1
 91  7 31  0 59  0.0010000  0  5 23 16 17 03 20
  22708073.834     -583045.804 3   -454318.453 2
  23724879.612     3878296.840 2   3022046.679 1
  21113492.429      879838.878 4    685588.380 2
  20580959.405     1034358.695 4    805993.779 2
  24452523.276     4183057.609 2   3259519.612 1
 91  7 31  0 59 15.0010000  0  5 23 16 17 03 20
  22706680.086     -590381.368 3   -460034.403 2
  23740516.787     3960508.860 2   3086107.980 1
  21117683.239      901840.546 4    702732.554 3
  20585983.620     1060763.442 4    826568.918 2
  24469153.054     4270450.139 2   3327617.540 1
 91  7 31  0 59 30.0010000  0  5 23 16 17 03 20
  22705309.144     -597571.599 3   -465637.121 2
  23756192.632     4042827.873 2   3150252.640 1
  21121892.912      923967.010 4    719973.961 3
  20591043.223     1087347.837 4    847284.046 2
  24485798.433     4357909.347 2   3395767.388 1
 91  7 31  0 59 45.0010000  0  5 23 16 17 03 20
  22703972.073     -604616.866 3   -471126.886 1
  23771871.181     4125252.746 2   3214479.807 1
  21126123.892      946217.650 4    737312.141 2
  20596135.197     1114111.578 4    868138.911 2
  24502449.204     4445434.142 2   3463968.369 1
 91  7 31  1  0  0.0010000  0  5 23 16 17 03 20
  22702657.775     -611516.289 2   -476502.986 2
  23787579.100     4207783.798 2   3278789.653 1
  21130384.240      968593.080 4    754747.551 2
  20601263.746     1141055.639 4    889134.285 2
  24519119.764     4533025.010 2   3532220.888 1
 91  7 31  1  0 15.0010000  0  5 23 16 17 03 20
  22701371.659     -618272.411 2   -481767.424 1
  23803300.821     4290418.336 2   3343180.197 1
  21134664.080      991090.766 3    772278.230 3
  20606426.463     1168177.573 4    910268.273 2
  24535789.119     4620678.818 2   3600522.356 1
 91  7 31  1  0 30.0010000  0  5 23 16 17 03 20
  22700107.740     -624887.711 2   -486922.162 2
  23819040.219     4373153.379 2   3407649.066 1
  21138967.897     1013708.248 3    789902.252 2
  20611618.880     1195475.102 4    931539.073 2
  24552488.768     4708392.742 2   3668870.640 1
 91  7 31  1  0 45.0010000  0  5 23 16 17 03 20
  22698882.194     -631363.011 3   -491967.759 1
  23834806.299     4455987.566 2   3472195.091 1
  21143294.801     1036444.208 4    807618.596 3
  20616847.558     1222947.516 4    952946.164 2
  24569180.006     4796165.378 2   3737264.805 1
 91  7 31  1  1  0.0010000  0  5 23 16 17 03 20
  22697675.232     -637701.891 3   -496907.090 1
  23850588.887     4538916.944 2   3536815.372 1
  21147643.884     1059295.152 4    825424.545 3
  20622107.106     1250591.292 4    974486.781 2
  24585909.024     4883992.468 2   3805701.302 1
 91  7 31  1  1 15.0010000  0  5 23 16 17 03 20
  22696499.140     -643903.307 3   -501739.315 1
  23866389.448     4621942.019 2   3601510.195 1
  21152011.569     1082261.555 4    843320.460 3
  20627398.745     1278407.158 4    996161.489 2
  24602629.054     4971874.471 2   3874180.618 1
 91  7 31  1  1 30.0010000  0  5 23 16 17 03 20
  22695340.445     -649971.757 3   -506467.909 2
  23882209.798     4705058.121 2   3666275.947 1
  21156403.527     1105338.952 4    861302.856 2
  20632723.365     1306391.020 4   1017967.092 2
  24619362.574     5059806.627 2   3942698.981 1
 91  7 31  1  1 45.0010000  0  5 23 16 17 03 20
  22694214.418     -655907.012 3   -511092.726 2
  23898044.230     4788264.939 2   3731112.395 1
  21160818.571     1128527.135 4    879371.590 3
  20638083.950     1334543.222 4   1039903.890 2
  24636111.084     5147788.458 2   4011256.139 1
 91  7 31  1  2  0.0010000  0  5 23 16 17 03 20
  22693105.491     -661705.217 3   -515610.746 2
  23913888.260     4871565.495 2   3796021.908 1
  21165251.904     1151829.970 4    897529.649 3
  20643472.123     1362867.797 4   1061974.993 2
  24652858.075     5235823.424 2   4079854.565 1
 91  7 31  1  2 15.0010000  0  5 23 16 17 03 20
  22692028.342     -667378.664 3   -520031.569 1
  23929758.378     4954947.199 2   3860994.598 1
  21169706.212     1175235.195 4    915767.487 2
  20648891.166     1391352.285 4   1084170.693 2
  24669617.072     5323898.708 2   4148484.561 1
 91  7 31  1  2 30.0010000  0  5 23 16 17 03 20
  22690965.868     -672938.207 3   -524363.606 2
  23945633.888     5038398.958 2   3926021.921 1
  21174175.527     1198731.517 4    934076.329 2
  20654343.504     1419985.908 4   1106482.617 2
  24686385.667     5412003.007 2   4217137.060 1
 91  7 31  1  2 45.0010000  0  5 23 16 17 03 20
  22689936.392     -678365.140 3   -528592.343 2
  23961537.266     5121938.967 2   3991117.989 1
  21178669.708     1222337.607 4    952470.704 3
  20659822.209     1448787.660 4   1128925.547 2
  24703157.263     5500154.378 2   4285826.358 1
 91  7 31  1  3  0.0010000  0  5 23 16 17 03 20
  22688929.689     -683660.374 3   -532718.449 1
  23977448.166     5205565.714 2   4056281.681 1
  21183183.695     1246052.301 4    970949.691 2
  20665333.896     1477756.711 4   1151498.835 2
  24719938.737     5588351.554 2   4354551.254 1
 91  7 31  1  3 15.0010000  0  5 23 16 17 03 20
  22687948.167     -688825.728 3   -536743.333 1
  23993383.024     5289276.689 2   4121510.964 1
  21187712.952     1269873.483 3    989511.661 2
  20670880.639     1506891.107 3   1174200.960 2
  24736731.919     5676592.060 2   4423309.919 1
 91  7 31  1  3 30.0010000  0  5 23 16 17 03 20
  22686986.433     -693860.442 2   -540666.449 1
  24009322.384     5373072.757 2   4186806.553 1
  21192266.202     1293801.729 3   1008157.067 2
  20676453.785     1536191.843 3   1197032.701 2
  24753525.991     5764875.968 2   4492102.453
 91  7 31  1  3 45.0010000  0  5 23 16 17 03 20
  22686052.270     -698768.616 3   -544490.921 2
  24025284.849     5456949.351 2   4252164.924 1
  21196840.724     1317832.757 4   1026882.549 3
  20682061.098     1565654.896 4   1219990.939 2
  24770340.445     5853198.720 2   4560925.189 1
 91  7 31  1  4  0.0010000  0  5 23 16 17 03 20
  22685142.695     -703546.650 3   -548213.996 2
  24041260.174     5540909.520 2   4317588.380 1
  21201437.443     1341970.262 4   1045691.003 3
  20687698.409     1595283.819 4   1243078.404 2
  24787155.213     5941563.722 2   4629781.281 1
 91  7 31  1  4 15.0010000  0  5 23 16 17 03 20
  22684260.709     -708199.076 3   -551839.216 2
  24057256.510     5624948.203 2   4383073.052 1
  21206046.168     1366209.547 4   1064578.769 3
  20693368.072     1625074.447 4   1266291.882 2
  24803976.263     6029965.827 2   4698665.981 1
 91  7 31  1  4 30.0010000  0  5 23 16 17 03 20
  22683401.513     -712724.856 3   -555365.747 2
  24073256.126     5709066.038 2   4448619.348 1
  21210677.648     1390551.275 4   1083546.355 2
  20699070.140     1655027.651 4   1289632.060 2
  24820812.006     6118405.444 2   4767579.729 1
 91  7 31  1  4 45.0010000  0  5 23 16 17 03 20
  22682559.697     -717123.621 3   -558793.322 2
  24089284.534     5793262.714 2   4514227.165 1
  21215332.232     1414995.517 4   1102593.832 3
  20704799.762     1685143.742 4   1313099.143 2
  24837639.356     6206882.233 2   4836522.611 1
 91  7 31  1  5  0.0010000  0  5 23 16 17 03 20
  22681748.157     -721398.006 3   -562123.928 2
  24105322.227     5877535.184 2   4579893.996 1
  21220001.194     1439539.911 4   1121719.350 2
  20710560.585     1715420.450 4   1336691.392 2
  24854494.591     6295393.513 2   4905492.212 1
 91  7 31  1  5 15.0010000  0  5 23 16 17 03 20
  22680953.997     -725546.839 3   -565356.739 2
  24121373.426     5961884.315 2   4645620.519 1
  21224688.148     1464185.131 4   1140923.426 3
  20716352.574     1745858.988 4   1360409.745 2
  24871331.835     6383939.731 2   4974489.123 1
 91  7 31  1  5 30.0010000  0  5 23 16 17 03 20
  22680192.836     -729570.135 3   -568491.716 2
  24137438.096     6046309.653 2   4711406.478 1
  21229397.892     1488931.146 4   1160206.051 3
  20722178.137     1776459.468 4   1384254.273 2
  24888190.368     6472520.343 2   5043512.760 1
 91  7 31  1  5 45.0010000  0  5 23 16 17 03 20
  22679448.742     -733469.404 3   -571530.047 2
  24153515.976     6130809.504 2   4777250.504 1
  21234128.611     1513776.230 4   1179565.869 3
  20728027.677     1807220.326 4   1408223.782 2
  24905061.780     6561133.661 2   5112561.958 1
 91  7 31  1  6  0.0010000  0  5 23 16 17 03 20
  22678734.644     -737244.824 3   -574471.867 2
  24169610.626     6215383.115 2   4843151.994 1
  21238875.228     1538720.019 4   1199002.598 3
  20733912.902     1838141.589 4   1432318.276 2
  24921921.813     6649778.670 2   5181635.832 1
 91  7 31  1  6 15.0010000  0  5 23 16 17 03 20
  22678038.520     -740870.401 3   -577296.938 2
  24185726.269     6300056.057 2   4909130.876 1
  21243647.635     1563788.164 4   1218536.230 2
  20739834.407     1869249.184 4   1456557.964 2
  24938806.417     6738480.836 2   5250754.194 1
 91  7 31  1  6 30.0010000  0  5 23 16 17 03 20
  22677379.582     -744370.682 3   -580024.375 2
  24201844.320     6384803.079 2   4975167.522 1
  21248432.311     1588956.049 4   1238147.582 3
  20745783.797     1900518.608 4   1480923.773 2
  24955694.040     6827215.021 2   5319897.644 1
 91  7 31  1  6 45.0010000  0  5 23 16 17 03 20
  22676728.130     -747776.925 3   -582678.545 2
  24217983.939     6469592.765 2   5041237.313 1
  21253237.385     1614192.352 4   1257812.247 3
  20751759.851     1931919.027 4   1505391.615 2
  24972577.736     6915949.802 2   5389041.421 1
 91  7 31  1  7  0.0010000  0  5 23 16 17 03 20
  22676105.158     -751058.113 3   -585235.264 2
  24234134.656     6554455.804 2   5107364.300 1
  21258058.060     1639527.870 4   1277554.216 3
  20757763.197     1963481.428 4   1529985.695 2
  24989458.763     7004715.600 2   5458209.445 1
 91  7 31  1  7 15.0010000  0  5 23 16 17 03 20
  22675504.975     -754214.655 3   -587694.839 2
  24250293.174     6639391.151 2   5173547.686 1
  21262899.396     1664962.188 4   1297373.183 3
  20763803.415     1995205.386 4   1554705.668 2
  25006357.467     7093511.373 2   5527400.764 1
 91  7 31  1  7 30.0010000  0  5 23 16 17 03 20
  22674924.284     -757245.463 3   -590056.462 2
  24266473.574     6724399.266 2   5239787.726 1
  21267756.333     1690496.146 4   1317269.782 3
  20769871.222     2027091.957 4   1579552.343 2
  25023266.361     7182337.694 2   5596615.945 1
 91  7 31  1  7 45.0010000  0  5 23 16 17 03 20
  22674372.665     -760154.888 3   -592323.478 2
  24282668.353     6809475.945 2   5306081.241 1
  21272633.669     1716125.270 4   1337240.539 3
  20775968.695     2059137.111 4   1604522.606 2
  25040174.052     7271189.855 2   5665851.221 1
 91  7 31  1  8  0.0010000  0  5 23 16 17 03 20
  22673840.835     -762945.234 3   -594497.725 2
  24298863.150     6894618.188 2   5372425.801 1
  21277527.181     1741847.002 4   1357283.458 3
  20782096.758     2091338.510 4   1629614.608 2
  25057085.040     7360065.066 2   5735104.415 1
 91  7 31  1  8 15.0010000  0  5 23 16 17 03 20
  22673330.887     -765614.986 3   -596577.992 2
  24315082.813     6979827.282 2   5438822.433 1
  21282439.871     1767662.791 4   1377399.671 3
  20788255.393     2123697.845 4   1654829.672 2
  25074004.422     7448964.409 2   5804376.550 1
 91  7 31  1  8 30.0010000  0  5 23 16 17 03 20
  22672847.621     -768163.131 3   -598563.504 2
  24331316.873     7065103.371 2   5505271.266 1
  21287369.069     1793573.366 4   1397589.742 3
  20794440.413     2156216.075 4   1680168.568 2
  25090921.414     7537888.285 2   5873667.651 1
 91  7 31  1  8 45.0010000  0  5 23 16 17 03 20
  22672385.626     -770594.318 3   -600457.878 2
  24347543.150     7150441.780 2   5571768.752 1
  21292317.130     1819573.922 4   1417849.924 3
  20800660.805     2188888.524 4   1705627.614 2
  25107854.302     7626831.525 2   5942973.922 1
 91  7 31  1  9  0.0010000  0  5 23 16 17 03 20
  22671948.830     -772881.422 3   -602239.997 2
  24363805.689     7235868.959 2   5638335.359 1
  21297291.001     1845691.748 4   1438201.484 3
  20806910.269     2221742.780 4   1731228.329 2
  25124788.971     7715820.986 2   6012316.233 1
 91  7 31  1  9 15.0010000  0  5 23 16 17 03 20
  22671540.216     -775050.986 3   -603930.502 2
  24380075.120     7321357.979 2   5704950.150 1
  21302273.841     1871899.933 4   1458623.452 3
  20813195.733     2254752.322 4   1756950.052 2
  25141722.156     7804829.563 2   6081673.352 1
 91  7 31  1  9 30.0020000  0  5 23 16 17 03 20
  22671144.186     -777107.924 3   -605533.282 2
  24396340.663     7406909.324 2   5771613.493 1
  21307278.584     1898195.093 4   1479113.202 2
  20819503.362     2287914.359 4   1782790.604 2
  25158672.707     7893857.708 2   6151045.698 1
 91  7 31  1  9 45.0020000  0  5 23 16 17 03 20
  22670775.149     -779051.875 3   -607047.986 2
  24412641.278     7492511.409 2   5838316.318 1
  21312299.500     1924573.851 4   1499668.095 3
  20825840.967     2321224.844 3   1808746.824 2
  25175610.081     7982893.481 2   6220424.175 1
 91  7 31  1 10  0.0020000  0  5 23 16 17 03 20
  22670429.792     -780881.349 3   -608473.490 2
  24428941.893     7578171.113 2   5905064.176 1
  21317335.109     1951039.324 4   1520290.554 3
  20832210.663     2354687.669 4   1834821.754 2
  25192552.253     8071943.697 2   6289813.880 1
 91  7 31  1 10 15.0020000  0  5 23 16 17 03 20
  22670101.222     -782598.092 3   -609811.158 2
  24445251.198     7663886.199 2   5971855.111 1
  21322388.117     1977589.755 4   1540979.218 3
  20838605.836     2388301.154 4   1861014.086 2
  25209506.413     8161006.267 2   6359213.075 1
 91  7 31  1 10 30.0020000  0  5 23 16 17 03 20
  22669795.424     -784202.492 3   -611061.305 2
  24461571.305     7749655.989 2   6038688.611 1
  21327458.207     2004224.680 4   1561733.713 3
  20845029.785     2422065.052 4   1887323.617 2
  25226450.400     8250080.298 2   6428621.251 1
 91  7 31  1 10 45.0020000  0  5 23 16 17 03 20
  22669512.120     -785694.191 3   -612223.611 2
  24477905.494     7835480.398 2   6105564.750 1
  21332541.491     2030944.245 4   1582554.161 3
  20851483.713     2455979.696 4   1913750.609 2
  25243401.559     8339165.665 2   6498038.289 1
 91  7 31  1 11  0.0020000  0  5 23 16 17 03 20
  22669247.103     -787069.628 3   -613295.352 1
  24494238.199     7921362.392 2   6172485.787 1
  21337642.155     2057751.789 4   1603443.163 2
  20857968.231     2490048.781 3   1940297.939 2
  25260354.219     8428265.520 2   6567466.572 1
 91  7 31  1 11 15.0020000  0  5 23 16 17 03 20
  22669008.768     -788331.565 3   -614278.614 2
  24510603.258     8007299.164 2   6239449.412 1
  21342760.513     2084644.612 4   1624398.621 2
  20864477.319     2524269.628 3   1966963.532 2
  25277318.570     8517376.757 2   6636903.820 1
 91  7 31  1 11 30.0020000  0  5 23 16 17 03 20
  22668790.518     -789482.457 3   -615175.363 2
  24526963.832     8093287.410 2   6306453.155 1
  21347894.454     2111619.832 4   1645418.284 3
  20871019.685     2558639.900 4   1993745.572 2
  25294274.842     8606496.230 2   6706347.412 1
 91  7 31  1 11 45.0020000  0  5 23 16 17 03 20
  22668595.652     -790522.711 3   -615985.894 2
  24543334.910     8179326.548 2   6373496.613 1
  21353043.089     2138676.938 4   1666501.757 3
  20877589.046     2593159.266 4   2020643.776 2
  25311240.694     8695622.970 2   6775796.602 1
 91  7 31  1 12  0.0020000  0  5 23 16 17 03 20
  22668414.885     -791453.115 3   -616710.853 2
  24559712.271     8265415.275 2   6440578.723 1
  21358206.119     2165814.680 4   1687648.062 3
  20884185.682     2627826.671 4   2047657.339 2
  25328200.543     8784755.660 2   6845250.499
 91  7 31  1 12 15.0020000  0  5 23 16 17 03 20
  22668261.393     -792272.667 3   -617349.405 2
  24576109.421     8351554.380 2   6507700.056 1
  21363385.937     2193034.464 4   1708858.294 3
  20890808.389     2662643.701 4   2074787.482 2
  25345167.599     8873895.004 2   6914709.608 1
 91  7 31  1 12 30.0020000  0  5 23 16 17 03 20
  22668123.780     -792984.008 3   -617903.662 2
  24592511.962     8437740.919 2   6574858.331 1
  21368579.244     2220333.366 4   1730130.175 3
  20897466.781     2697607.617 4   2102032.095 2
  25362129.263     8963038.011 2   6984171.556 1
 91  7 31  1 12 45.0020000  0  5 23 16 17 03 20
  22668008.958     -793587.860 3   -618374.144 2
  24608923.805     8523973.442 2   6642052.471 1
  21373791.136     2247710.561 4   1751463.071 3
  20904147.056     2732717.931 4   2129390.779 2
  25379096.319     9052183.421 2   7053635.365 1
 91  7 31  1 13  0.0020000  0  5 23 16 17 03 20
  22667914.831     -794082.442 3   -618759.493 2
  24625338.631     8610253.348 2   6709283.496 1
  21379016.219     2275167.525 4   1772858.113 3
  20910854.920     2767976.158 4   2156864.724 2
  25396059.781     9141332.563 2   7123102.060 1
 91  7 31  1 13 15.0020000  0  5 23 16 17 03 20
  22667841.383     -794467.865 3   -619059.801 2
  24641769.355     8696580.455 2   6776551.307 1
  21384254.496     2302704.038 4   1794315.150 3
  20917592.746     2803382.599 3   2184454.156 2
  25413019.630     9230484.975 2   7192571.370
 91  7 31  1 13 30.0020000  0  5 23 16 17 03 20
  22667787.113     -794743.630 3   -619274.625 1
  24658204.581     8782954.611 2   6843855.806 1
  21389511.042     2330320.424 4   1815834.422 2
  20924359.068     2838937.543 3   2212159.304 2
  25429998.081     9319640.373 2   7262042.933 1
 91  7 31  1 13 45.0020000  0  5 23 16 17 03 20
  22667756.837     -794908.974 3   -619403.415 2
  24674650.294     8869376.040 2   6911197.164 1
  21394782.299     2358017.400 4   1837416.493 3
  20931152.664     2874642.009 4   2239980.965 2
  25446950.741     9408799.164 2   7331517.113 1
 91  7 31  1 14  0.0020000  0  5 23 16 17 03 20
  22667744.256     -794967.994 3   -619449.334 2
  24691105.012     8955840.641 2   6978572.086 1
  21400067.045     2385790.790 4   1859058.120 3
  20937977.148     2910491.915 4   2267915.951 2
  25463918.390     9497956.813 2   7400990.500 1
 91  7 31  1 14 15.0020000  0  5 23 16 17 03 20
  22667754.132     -794922.655 3   -619413.984 2
  24707568.106     9042345.961 2   7045978.763 1
  21405364.076     2413638.571 4   1880757.706 3
  20944823.496     2946485.408 4   2295962.822 2
  25480883.946     9587110.936 2   7470461.072 1
 91  7 31  1 14 30.0020000  0  5 23 16 17 03 20
  22667780.814     -794770.049 3   -619295.024 2
  24724026.418     9128894.397 2   7113419.091 1
  21410680.896     2441563.333 4   1902517.276 3
  20951700.435     2982625.410 4   2324123.861 2
  25497848.314     9676263.850 2   7539930.767 1
 91  7 31  1 14 45.0020000  0  4 23 16 17 03
  22667835.677     -794511.631 3   -619093.623 2
  24740519.195     9215484.343 2   7180891.680 1
  21416007.313     2469563.638 4   1924335.712 3
  20958607.650     3018910.740 4   2352398.146 2
 91  7 31  1 15  0.0020000  0  4 23 16 17 03
  22667902.529     -794143.729 3   -618806.906 2
  24756996.982     9302118.746 2   7248398.968 1
  21421352.315     2497643.061 4   1946215.797 3
  20965540.063     3055344.886 3   2380788.391 2
 91  7 31  1 15 15.0020000  0  4 23 16 17 03
  22667993.968     -793668.558 3   -618436.599 2
  24773490.666     9388795.147 2   7315939.020 1
  21426708.101     2525799.012 4   1968155.504 3
  20972501.234     3091925.886 4   2409293.054 2
 91  7 31  1 15 30.0020000  0  4 23 16 17 03
  22668104.306     -793084.923 3   -617981.759 2
  24789993.040     9475514.105 2   7383512.116 1
  21432081.581     2554032.211 4   1990155.410 3
  20979487.604     3128655.064 3   2437913.194 2
 91  7 31  1 15 45.0020000  0  4 23 16 17 03
  22668234.101     -792395.690 3   -617444.663 2
  24806498.713     9562272.568 2   7451116.076 1
  21437468.551     2582340.283 4   2012213.664 3
  20986508.437     3165529.479 4   2466646.502 2
 91  7 31  1 16  0.0020000  0  4 23 16 17 03
  22668383.405     -791600.674 3   -616825.122 2
  24823025.971     9649070.335 2   7518750.608 1
  21442869.917     2610723.280 4   2034330.299 3
  20993550.263     3202549.317 3   2495493.130 2
 91  7 31  1 16 15.0020000  0  4 23 16 17 03
  22668557.889     -790697.562 3   -616121.356 2
  24839544.539     9735909.398 2   7586417.416 1
  21448285.661     2639183.193 4   2056506.863 3
  21000625.977     3239716.971 3   2524454.936 2
 91  7 31  1 16 30.0020000  0  4 23 16 17 03
  22668753.053     -789683.652 3   -615331.267 2
  24856078.987     9822792.148 2   7654118.212 1
  21453715.506     2667722.544 4   2078745.331 3
  21007729.856     3277035.429 3   2553534.261 2
 91  7 31  1 16 45.0020000  0  4 23 16 17 03
  22668965.893     -788557.727 3   -614453.880 2
  24872626.644     9909718.884 2   7721853.309 1
  21459163.935     2696342.441 4   2101046.564 3
  21014856.525     3314505.689 3   2582731.860 2
 91  7 31  1 17  0.0020000  0  4 23 16 17 03
  22669198.243     -787324.512 3   -613492.883 2
  24889164.390     9996685.034 2   7789619.086 1
  21464624.649     2725037.999 4   2123406.746 3
  21022014.657     3352123.532 3   2612044.462 2
 91  7 31  1 17 15.0020000  0  4 23 16 17 03
  22669458.460     -785985.466 3   -612449.431 2
  24905716.236    10083688.723 2   7857414.086 1
  21470099.167     2753807.878 4   2145824.850 3
  21029200.691     3389887.451 3   2641470.900 2
 91  7 31  1 17 30.0020000  0  4 23 16 17 03
  22669729.480     -784536.424 3   -611320.256 2
  24922288.167    10170733.613 2   7925241.192 1
  21475587.452     2782655.816 4   2168303.777 3
  21036416.391     3427801.477 3   2671014.294 2
 91  7 31  1 17 45.0020000  0  4 23 16 17 03
  22670025.976     -782981.660 3   -610108.720 2
  24938860.080    10257815.080 2   7993096.875 1
  21481092.245     2811577.406 4   2190840.083 3
  21043659.680     3465861.495 3   2700671.447 2
 91  7 31  1 18  0.0020000  0  4 23 16 17 03
  22670343.448     -781320.785 3   -608814.479 2
  24955442.202    10344933.489 2   8060981.312 1
  21486607.526     2840573.178 4   2213434.204 3
  21050929.650     3504067.914 3   2730442.689 2
 91  7 31  1 18 15.0020000  0  4 23 16 17 03
  22670678.021     -779553.708 3   -607437.500 2
  24972024.934    10432088.199 2   8128894.004 1
  21492137.797     2869643.146 4   2236086.131 3
  21058228.099     3542421.167 3   2760328.350 2
 91  7 31  1 18 30.0020000  0  4 23 16 17 03
  22671032.365     -777681.428 3   -605978.536 2
  24988618.434    10519277.826 2   8196833.943 1
  21497682.167     2898786.074 4   2258794.919 3
  21065553.526     3580920.250 3   2790327.632 2
 91  7 31  1 18 45.0020000  0  4 23 16 17 03
  22671414.001     -775702.169 3   -604436.214 2
  25005215.248    10606503.744 2   8264802.182 1
  21503246.309     2928003.670 4   2281561.879 3
  21072907.135     3619566.718 3   2820441.762 2
 91  7 31  1 19  0.0020000  0  4 23 16 17 03
  22671804.939     -773617.759 3   -602811.959 2
  25021814.157    10693763.948 2   8332797.052 1
  21508819.751     2957293.911 4   2304385.463 3
  21080290.427     3658359.214 3   2850669.677 2
 91  7 31  1 19 15.0020000  0  4 23 16 17 03
  22672225.541     -771428.118 3   -601105.697 2
  25038430.464    10781057.755 2   8400818.135 1
  21514409.091     2986656.942 4   2327265.748 3
  21087700.086     3697297.623 3   2881011.299 2
 91  7 31  1 19 30.0020000  0  4 23 16 17 03
  22672663.245     -769133.957 3   -599318.008 2
  25055048.847    10868384.431 2   8468864.841 1
  21520006.807     3016091.632 4   2350201.880 3
  21095138.538     3736381.300 3   2911466.106 2
 91  7 31  1 19 45.0020000  0  4 23 16 17 03
  22673114.438     -766737.678 3   -597450.722 2
  25071669.045    10955741.199 2   8536935.022 1
  21525623.718     3045595.552 4   2373191.954 3
  21102600.670     3775607.840 3   2942032.253 2
 91  7 31  1 20  0.0030000  0  4 23 16 17 03
  22673595.299     -764236.078 3   -595501.375 2
  25088296.436    11043136.474 2   8605035.228 1
  21531250.823     3075173.624 4   2396239.805 3
  21110091.284     3814983.349 3   2972714.470 2
 91  7 31  1 20 15.0030000  0  4 23 16 17 03
  22674086.663     -761629.558 3   -593470.285 2
  25104943.316    11130558.133 2   8673155.935 1
  21536893.211     3104821.663 4   2419342.178 3
  21117613.374     3854502.177 3   3003508.361 2
 91  7 31  1 20 30.0030000  0  4 23 16 17 03
  22674608.895     -758916.137 3   -591355.876 2
  25121586.286    11218013.799 2   8741303.112 1
  21542549.106     3134543.481 4   2442502.045 3
  21125160.960     3894169.109 3   3034417.665 2
 91  7 31  1 20 45.0030000  0  4 23 16 17 03
  22675142.523     -756096.189 3   -589158.478 2
  25138236.464    11305502.507 2   8809476.154
  21548217.286     3164338.455 4   2465718.912 3
  21132741.212     3933983.749 3   3065442.060 2
 91  7 31  1 21  0.0030000  0  4 23 16 17 03
  22675698.347     -753171.313 3   -586879.321 2
  25154883.344    11393022.409 2   8877673.410 1
  21553901.938     3194205.155 4   2488991.667 3
  21140343.941     3973944.534 3   3096580.322 2
 91  7 31  1 21 15.0030000  0  4 23 16 17 03
  22676273.943     -750146.090 3   -584521.955 2
  25171549.401    11480568.199 2   8945890.827 1
  21559598.894     3224138.664 4   2512316.482 3
  21147974.869     4014046.957 3   3127828.969 2
 91  7 31  1 21 30.0030000  0  4 23 16 17 03
  22676870.234     -747017.826 3   -582084.303 2
  25188205.861    11568142.502 2   9014130.537 1
  21565306.947     3254141.804 4   2535695.564 3
  21155633.961     4054293.922 3   3159190.249 2
 91  7 31  1 21 45.0030000  0  4 23 16 17 03
  22677484.499     -743786.694 3   -579566.483 2
  25204871.325    11655744.701 2   9082391.972 1
  21571032.992     3284213.819 4   2559128.307 3
  21163320.939     4094685.248 3   3190664.010 2
 91  7 31  1 22  0.0030000  0  4 23 16 17 03
  22678117.959     -740455.098 3   -576970.408 2
  25221550.278    11743372.070 2   9150672.980 1
  21576764.725     3314352.343 4   2582612.880 3
  21171032.208     4135218.352 3   3222248.245 2
 91  7 31  1 22 15.0030000  0  4 23 16 17 03
  22678771.208     -737026.977 3   -574299.107 2
  25238231.935    11831020.150 2   9218970.162 1
  21582513.542     3344553.549 4   2606146.289 3
  21178774.939     4175889.608 3   3253940.133 2
 91  7 31  1 22 30.0030000  0  4 23 16 17 03
  22679442.745     -733497.195 3   -571548.579 2
  25254921.987    11918693.887 2   9287287.342 1
  21588273.144     3374822.494 4   2629732.487 3
  21186540.461     4216704.189 3   3285743.694 2
 91  7 31  1 22 45.0030000  0  4 23 16 17 03
  22680134.664     -729865.419 3   -568718.588 2
  25271605.128    12006393.275 2   9355624.462 1
  21594046.252     3405159.345 4   2653371.597 3
  21194332.367     4257662.739 3   3317659.452 2
 91  7 31  1 23  0.0030000  0  4 23 16 17 03
  22680843.683     -726130.972 3   -565808.586 2
  25288301.479    12094118.626 2   9423981.831 1
  21599831.051     3435564.407 4   2677063.859 3
  21202154.252     4298765.683 3   3349687.710 2
 91  7 31  1 23 15.0030000  0  4 23 16 17 03
  22681573.975     -722292.168 3   -562817.262 2
  25305002.908    12181871.407 2   9492360.569 1
  21605631.434     3466039.403 4   2700810.613 3
  21210004.617     4340014.682 3   3381829.792 2
 91  7 31  1 23 30.0030000  0  4 23 16 17 03
  22682327.057     -718352.904 3   -559747.667 2
  25321704.354    12269647.150 2   9560757.204 1
  21611442.007     3496580.561 4   2724608.914 3
  21217881.366     4381406.315 3   3414083.007 2
 91  7 31  1 23 45.0030000  0  4 23 16 17 03
  22683093.924     -714313.154 3   -556599.764 2
  25338412.379    12357445.396 2   9629171.401 1
  21617266.070     3527187.441 4   2748458.440 3
  21225782.999     4422940.252 3   3446447.112 2
 91  7 31  1 24  0.0030000  0  4 23 16 17 03
  22683880.580     -710169.922 3   -553371.241 2
  25355123.405    12445269.421 2   9697605.719 1
  21623103.342     3557863.361 4   2772361.759 3
  21233717.299     4464619.847 3   3478924.709 2
 91  7 31  1 24 15.0030000  0  4 23 16 17 03
  22684690.008     -705923.455 3   -550062.271 2
  25371837.451    12533118.196 2   9766059.221 1
  21628954.993     3588607.789 4   2796318.454 3
  21241674.703     4506445.002 3   3511515.731 2
 91  7 31  1 24 30.0030000  0  4 23 16 17 03
  22685516.241     -701578.676 3   -546676.684 2
  25388563.171    12620986.365 2   9834527.845 1
  21634818.319     3619415.482 4   2820324.458 3
  21249658.771     4548410.541 3   3544216.154 2
 91  7 31  1 24 45.0030000  0  4 23 16 17 03
  22686364.950     -697131.263 3   -543211.128 2
  25405280.793    12708878.317 2   9903015.014 1
  21640691.259     3650291.207 4   2844383.468 3
  21257676.413     4590521.101 3   3577029.569 2
 91  7 31  1 25  0.0030000  0  4 23 16 17 03
  22687228.666     -692582.452 3   -539666.556 2
  25422013.702    12796792.093 2   9971519.242 1
  21646579.486     3681233.398 4   2868494.271 3
  21265716.252     4632775.345 3   3609954.953 2
 91  7 31  1 25 15.0030000  0  4 23 16 17 03
  22688110.949     -687929.968 3   -536041.201 2
  25438748.130    12884729.770 2  10040042.079 1
  21652482.406     3712244.028 4   2892658.401 3
  21273783.662     4675175.596 3   3642994.108 2
 91  7 31  1 25 30.0030000  0  4 23 16 17 03
  22689019.617     -683174.454 3   -532335.572 2
  25455481.929    12972690.221 2  10108582.661 1
  21658393.109     3743322.506 4   2916875.407 3
  21281881.662     4717721.363 3   3676146.633 2
 91  7 31  1 25 45.0030000  0  4 23 16 17 03
  22689942.384     -678317.234 3   -528550.689 2
  25472232.236    13060671.878 2  10177139.705 1
  21664323.007     3774467.408 4   2941144.168 3
  21290002.138     4760411.278 3   3709411.497 2
 91  7 31  1 26  0.0030000  0  4 23 16 17 03
  22690884.329     -673358.213 3   -524686.483 2
  25488976.854    13148674.419 2  10245713.061 1
  21670262.189     3805678.798 4   2965464.733 3
  21298155.596     4803245.586 3   3742788.871 2
 91  7 31  1 26 15.0030000  0  4 23 16 17 03
  22691849.065     -668298.603 3   -520743.898 2
  25505725.346    13236696.614 2  10314301.739 1
  21676214.563     3836955.290 3   2989836.021 2
  21306333.029     4846223.142 3   3776277.862 2
 91  7 31  1 26 30.0030000  0  4 23 16 17 03
  22692830.884     -663138.100 3   -516722.670 2
  25522478.061    13324738.235 2  10382905.548 1
  21682178.035     3868296.988 4   3014258.135 3
  21314539.256     4889344.428 3   3809878.856 2
 91  7 31  1 26 45.0030000  0  4 23 16 17 03
  22693831.584     -657876.788 3   -512622.918 2
  25539231.963    13412798.862 2  10451524.172 1
  21688155.311     3899703.734 4   3038730.932 3
  21322772.757     4932609.184 3   3843591.660 2
 91  7 31  1 27  0.0030000  0  4 23 16 17 03
  22694852.980     -652515.741 3   -508445.435 2
  25556000.557    13500877.184 2  10520156.618 1
  21694143.650     3931174.581 4   3063253.673 3
  21331031.143     4976016.600 3   3877415.622 2
 91  7 31  1 27 15.0030000  0  4 23 16 17 03
  22695890.570     -647056.798 3   -504191.692 2
  25572762.539    13588971.211 2  10588801.231 1
  21700145.809     3962707.684 4   3087824.928 3
  21339317.693     5019564.849 3   3911349.313 2
 91  7 31  1 27 30.0030000  0  4 23 16 17 03
  22696946.727     -641497.892 3   -499860.044 2
  25589539.824    13677082.186 2  10657459.138 1
  21706157.531     3994304.824 4   3112446.089 3
  21347631.849     5063256.058 3   3945394.408 2
 91  7 31  1 27 45.0030000  0  4 23 16 17 03
  22698027.175     -635840.156 3   -495451.373 2
  25606303.323    13765209.126 2  10726129.396 1
  21712179.776     4025964.898 4   3137116.278 3
  21355974.467     5107089.093 3   3979550.015 2
 91  7 31  1 28  0.0030000  0  4 23 16 17 03
  22699121.722     -630084.719 3   -490966.590 2
  25623082.405    13853350.311 2  10794810.759 1
  21718216.399     4057686.541 4   3161834.454 3
  21364342.579     5151062.857 3   4013815.268 2
 91  7 31  1 28 15.0030000  0  4 23 16 17 03
  22700234.854     -624231.648 3   -486405.716 2
  25639842.903    13941505.196 2  10863502.878 1
  21724263.807     4089469.580 4   3186600.463 3
  21372738.559     5195177.276 3   4048190.135 2
 91  7 31  1 28 30.0030000  0  4 23 16 17 03
  22701363.569     -618280.614 3   -481768.517 2
  25656622.893    14029674.195 2  10932205.885 1
  21730324.408     4121314.349 4   3211414.567 3
  21381157.626     5239432.903 3   4082675.044 2
 91  7 31  1 28 45.0030000  0  4 23 16 17 03
  22702518.075     -612234.207 3   -477057.001 2
  25673404.366    14117854.464 2  11000917.767 1
  21736397.904     4153218.396 4   3236274.881 3
  21389606.376     5283827.271 3   4117268.061 2
 91  7 31  1 29  0.0030000  0  4 23 16 17 03
  22703688.758     -606090.016 3   -472269.274 2
  25690183.762    14206047.808 2  11069639.856 1
  21742479.793     4185183.821 4   3261183.015 3
  21398079.713     5328362.813 3   4151971.068 2
 91  7 31  1 29 15.0030000  0  4 23 16 17 03
  22704874.448     -599844.794 3   -467402.843 2
  25706969.127    14294257.412 2  11138374.504 1
  21748572.781     4217213.714 4   3286141.382 3
  21406586.328     5373042.821 3   4186786.656 2
 91  7 31  1 29 30.0030000  0  4 23 16 17 03
  22706080.502     -593500.338 3   -462459.091 2
  25723764.403    14382481.162 2  11207120.259 1
  21754681.648     4249306.287 4   3311148.589 3
  21415114.232     5417865.513 3   4221713.436 2
 91  7 31  1 29 45.0030000  0  4 23 16 17 03
  22707307.549     -587058.336 3   -457439.312 2
  25740547.988    14470716.680 2  11275875.179 1
  21760803.115     4281459.943 4   3336203.392 3
  21423668.206     5462829.091 3   4256749.972 2
 91  7 31  1 30  0.0030000  0  4 23 16 17 03
  22708554.088     -580518.512 3   -452343.312 2
  25757349.860    14558964.063 2  11344639.328 1
  21766932.958     4313675.004 4   3361306.047 3
  21432252.754     5507934.243 3   4291896.833 2
 91  7 31  1 30 15.0030000  0  4 23 16 17 03
  22709813.523     -573880.061 3   -447170.468 2
  25774143.025    14647223.931 2  11413413.233 1
  21773071.508     4345951.685 4   3386456.710 3
  21440863.407     5553181.511 3   4327154.445 2
 91  7 31  1 30 30.0040000  0  4 23 16 17 03
  22711098.438     -567137.563 3   -441916.548 2
  25790939.508    14735506.682 2  11482204.910 1
  21779227.756     4378297.248 4   3411661.059 3
  21449500.412     5598579.015 3   4362529.124 2
 91  7 31  1 30 45.0040000  0  4 23 16 17 03
  22712403.732     -560296.117 3   -436585.526 2
  25807740.176    14823796.019 2  11551001.711 1
  21785394.488     4410703.242 4   3436912.484 3
  21458168.023     5644116.632 3   4398012.971 2
 91  7 31  1 31  0.0040000  0  4 23 16 17 03
  22713719.513     -553356.279 3   -431177.824 2
  25824542.642    14912096.650 2  11619807.396 1
  21791570.801     4443170.567 4   3462211.702 3
  21466858.702     5689796.191 3   4433607.435 2
 91  7 31  1 31 15.0040000  0  4 23 16 17 03
  22715061.382     -546316.081 3   -425691.931 2
  25841346.905    15000410.612 2  11688623.409 1
  21797761.824     4475701.431 4   3487560.434 3
  21475579.658     5735620.230 3   4469314.474 2
 91  7 31  1 31 30.0040000  0  4 23 16 17 03
  22716419.149     -539181.194 3   -420132.254 2
  25858158.375    15088731.424 2  11757444.800 1
  21803964.836     4508289.940 4   3512954.092 3
  21484326.702     5781582.925 3   4505129.560 2
 91  7 31  1 31 45.0040000  0  4 23 16 17 03
  22717797.297     -531946.055 3   -414494.458 2
  25874966.826    15177064.210 2  11826275.462 1
  21810178.021     4540941.726 4   3538397.052 3
  21493100.445     5827689.790 3   4541056.985 2
 91  7 31  1 32  0.0040000  0  4 23 16 17 03
  22719188.341     -524610.011 3   -408778.036 2
  25891775.888    15265409.682 2  11895116.049 1
  21816405.009     4573657.053 3   3563889.511 2
  21501899.036     5873941.506 3   4577097.263 2
 91  7 31  1 32 15.0040000  0  4 23 16 17 03
  22720605.160     -517175.884 3   -402985.202 1
  25908589.155    15353764.424 2  11963963.785 1
  21822641.298     4606433.082 3   3589429.293 2
  21510728.236     5920335.242 3   4613248.241 1
 91  7 31  1 32 30.0040000  0  4 23 16 17 03
  22722037.561     -509642.848 3   -397115.264 2
  25925406.314    15442128.984 2  12032819.333 1
  21828885.980     4639270.702 3   3615017.052 2
  21519584.396     5966872.098 3   4649510.703 2
 91  7 31  1 32 45.0040000  0  3 23 17 03
  22723491.548     -502012.953 3   -391169.858 2
  21835147.136     4672167.678 3   3640651.067 3
  21528468.459     6013549.760 3   4685882.911 2
 91  7 31  1 33  0.0040000  0  3 23 17 03
  22724962.339     -494287.198 3   -385149.775 2
  21841419.407     4705123.249 4   3666330.741 3
  21537376.777     6060367.530 3   4722364.292 2
 91  7 31  1 33 15.0040000  0  3 23 17 03
  22726452.605     -486463.374 3   -379053.250 2
  21847704.557     4738139.430 4   3692057.640 3
  21546311.498     6107327.743 3   4758956.650 2
 91  7 31  1 33 30.0040000  0  3 23 17 03
  22727961.753     -478541.135 3   -372880.051 2
  21853995.989     4771216.486 4   3717831.984 3
  21555272.290     6154430.774 3   4795660.304 2
 91  7 31  1 33 45.0040000  0  3 23 17 03
  22729483.813     -470524.298 3   -366633.144 2
  21860301.520     4804350.438 4   3743650.656 3
  21564265.469     6201672.538 3   4832472.076 2
 91  7 31  1 34  0.0040000  0  3 23 17 03
  22731027.442     -462410.637 3   -360310.782 2
  21866618.446     4837543.558 4   3769515.431 3
  21573283.829     6249055.534 3   4869393.889 2
 91  7 31  1 34 15.0040000  0  3 23 17 03
  22732589.952     -454201.150 3   -353913.757 2
  21872946.175     4870794.933 4   3795425.604 3
  21582327.072     6296578.927 3   4906425.094 2
 91  7 31  1 34 30.0040000  0  3 23 17 03
  22734167.469     -445895.016 3   -347441.419 2
  21879285.280     4904105.025 4   3821381.532 3
  21591396.387     6344243.390 3   4943566.225 2
 91  7 31  1 34 45.0040000  0  3 23 17 03
  22735768.962     -437489.475 3   -340891.615 2
  21885635.484     4937476.868 4   3847385.567 3
  21600495.384     6392052.051 3   4980819.712 2
 91  7 31  1 35  0.0040000  0  3 23 17 03
  22737385.132     -428987.338 3   -334266.549 2
  21891999.492     4970907.575 4   3873435.478 3
  21609618.672     6440001.733 3   5018183.094 2
 91  7 31  1 35 15.0040000  0  3 23 17 03
  22739022.294     -420389.046 3   -327566.560 2
  21898370.967     5004396.451 4   3899530.712 3
  21618768.345     6488092.065 3   5055656.072 2
 91  7 31  1 35 30.0040000  0  3 23 17 03
  22740679.855     -411693.907 3   -320791.098 2
  21904751.151     5037943.895 4   3925671.578 3
  21627948.276     6536323.811 3   5093239.249 2
 91  7 31  1 35 45.0040000  0  3 23 17 03
  22742352.703     -402901.354 3   -313939.738 2
  21911149.919     5071550.586 4   3951858.612 3
  21637152.516     6584697.556 3   5130933.074 2
 91  7 31  1 36  0.0040000  0  3 23 17 03
  22744039.633     -394013.553 3   -307014.158 1
  21917553.189     5105214.589 3   3978090.301 2
  21646383.122     6633211.415 3   5168736.070 2
 91  7 31  1 36 15.0040000  0  3 23 17 03
  22745752.948     -385026.565 3   -300011.282 2
  21923972.653     5138939.727 4   4004369.635 3
  21655646.117     6681869.461 3   5206651.420 2
 91  7 31  1 36 30.0040000  0  3 23 17 03
  22747480.048     -375944.797 3   -292934.559 2
  21930401.697     5172721.379 4   4030693.003 3
  21664933.384     6730666.898 3   5244675.391 2
 91  7 31  1 36 45.0040000  0  3 23 17 03
  22749229.328     -366763.324 3   -285780.137 2
  21936840.950     5206564.596 4   4057064.349 3
  21674242.831     6779609.002 3   5282812.076 2
 91  7 31  1 37  0.0040000  0  3 23 17 03
  22750997.820     -357480.526 3   -278546.753 2
  21943292.470     5240470.934 4   4083484.880 3
  21683584.962     6828697.418 3   5321062.785 2
 91  7 31  1 37 15.0040000  0  3 23 17 03
  22752780.970     -348100.476 3   -271237.598 2
  21949754.198     5274436.289 4   4109951.394 3
  21692953.182     6877927.974 3   5359424.262 2
 91  7 31  1 37 30.0040000  0  3 23 17 03
  22754583.037     -338623.613 3   -263853.009 2
  21956231.823     5308459.876 4   4136463.280 3
  21702346.878     6927300.263 3   5397896.165 2
 91  7 31  1 37 45.0040000  0  3 23 17 03
  22756406.375     -329050.164 3   -256393.146 2
  21962716.935     5342541.601 4   4163020.470 3
  21711772.055     6976814.303 3   5436478.520 2
 91  7 31  1 38  0.0040000  0  3 23 17 03
  22758243.796     -319381.767 3   -248859.311 2
  21969212.534     5376680.045 4   4189621.857 3
  21721218.817     7026468.548 3   5475170.137 2
 91  7 31  1 38 15.0040000  0  3 23 17 03
  22760102.803     -309618.373 3   -241251.444 2
  21975721.029     5410875.027 4   4216267.292 3
  21730695.559     7076262.789 3   5513970.833 2
 91  7 31  1 38 30.0040000  0  3 23 17 03
  22761978.003     -299758.318 3   -233568.263 2
  21982235.806     5445128.446 3   4242958.275 2
  21740200.170     7126198.909 3   5552882.085 2
 91  7 31  1 38 45.0040000  0  3 23 17 03
  22763872.992     -289803.197 3   -225811.004 2
  21988767.999     5479438.463 3   4269693.351 2
  21749727.273     7176275.305 3   5591902.633 2
 91  7 31  1 39  0.0040000  0  3 23 17 03
  22765785.379     -279753.996 3   -217980.430 2
  21995304.972     5513803.760 3   4296471.505 3
  21759283.169     7226490.860 3   5631031.635 2
 91  7 31  1 39 15.0040000  0  3 23 17 03
  22767713.034     -269607.916 3   -210074.359 2
  22001856.029     5548227.417 4   4323295.139 3
  21768865.729     7276848.583 3   5670271.429 2
 91  7 31  1 39 30.0040000  0  3 23 17 03
  22769664.091     -259368.175 3   -202095.324 2
  22008419.090     5582706.125 4   4350161.663 3
  21778474.674     7327345.190 3   5709619.414 2
 91  7 31  1 39 45.0040000  0  3 23 17 03
  22771631.935     -249032.167 3   -194041.263 2
  22014990.232     5617242.243 4   4377072.925 3
  21788108.503     7377983.444 3   5749077.775 2
 91  7 31  1 40  0.0040000  0  3 23 17 03
  22773618.659     -238599.314 3   -185911.738 2
  22021572.785     5651836.581 4   4404029.549 3
  21797776.517     7428764.038 3   5788647.084 2
 91  7 31  1 40 15.0040000  0  3 23 17 03
  22775616.465     -228071.239 3   -177708.025 2
  22028168.811     5686487.468 3   4431030.247 2
  21807463.116     7479685.207 3   5828325.894 2
 91  7 31  1 40 30.0040000  0  3 23 17 03
  22777642.767     -217445.646 3   -169428.318 2
  22034772.339     5721197.020 3   4458076.647 3
  21817182.678     7530749.219 3   5868116.015 2
 91  7 31  1 40 45.0050000  0  3 23 17 03
  23079472.014     -206725.574 3   -161074.990 2
  22341179.128     5755962.352 3   4485166.512 3
  22126715.987     7581953.303 3   5908015.302 2
 91  7 31  1 41  0.0050000  0  3 23 17 03
  22781739.435     -195909.793 3   -152647.085 2
  22048015.383     5790785.895 3   4512301.744 3
  21836696.771     7633301.139 3   5948026.601 2
 91  7 31  1 41 15.0050000  0  3 23 17 03
  22783816.395     -185002.058 3   -144147.521 2
  22054650.078     5825660.942 4   4539477.103 3
  21846493.689     7684783.774 3   5988142.936 2
 91  7 31  1 41 30.0050000  0  3 23 17 03
  22785910.142     -174000.746 3   -135575.044 2
  22061298.279     5860590.678 3   4566695.073 3
  21856316.085     7736405.645 3   6028367.755 2
 91  7 31  1 41 45.0050000  0  3 23 17 03
  22788022.788     -162904.932 3   -126928.927 2
  22067955.171     5895576.154 4   4593956.482 3
  21866166.367     7788167.615 3   6068701.749 2
 91  7 31  1 42  0.0050000  0  3 23 17 03
  22790149.515     -151714.767 3   -118209.295 2
  22074624.347     5930617.213 4   4621261.213 3
  21876042.736     7840069.544 3   6109144.803 2
 91  7 31  1 42 15.0050000  0  3 23 17 03
  22792296.329     -140429.560 3   -109415.607 2
  22081300.137     5965714.433 4   4648609.702 3
  21885944.880     7892112.175 3   6149697.499 2
 91  7 31  1 42 30.0050000  0  3 23 17 03
  22794461.726     -129049.307 3   -100547.855 2
  22087992.697     6000867.621 4   4676001.789 3
  21895877.893     7944295.548 3   6190359.859 2
 91  7 31  1 42 45.0050000  0  3 23 17 03
  22796647.209     -117574.100 3    -91606.108 2
  22094690.667     6036076.984 4   4703437.667 3
  21905833.399     7996619.588 3   6231131.835 2
 91  7 31  1 43  0.0050000  0  3 23 17 03
  22798850.089     -106004.740 3    -82590.988 2
  22101403.312     6071341.408 4   4730916.440 3
  21915815.901     8049083.507 3   6272012.808 2
 91  7 31  1 43 15.0050000  0  3 23 17 03
  22801067.646      -94339.410 3    -73501.101 2
  22108122.867     6106662.701 4   4758439.517 3
  21925829.865     8101689.045 3   6313004.125 2
 91  7 31  1 43 30.0050000  0  3 23 17 03
  22803304.694      -82578.838 3    -64337.002 2
  22114856.208     6142040.459 4   4786006.596 3
  21935865.119     8154435.718 3   6354105.429 2
 91  7 31  1 43 45.0050000  0  3 23 17 03
  22805560.344      -70724.823 3    -55100.086 2
  22121598.833     6177472.691 3   4813616.124 3
  21945926.444     8207321.522 3   6395315.131 2
 91  7 31  1 44  0.0050000  0  3 23 17 03
  22807834.561      -58775.314 3    -45788.757 2
  22128351.055     6212961.387 3   4841269.658 3
  21956018.062     8260348.785 3   6436635.074 2
 91  7 31  1 44 15.0050000  0  3 23 17 03
  22810129.474      -46730.738 3    -36403.346 2
  22135118.284     6248506.042 4   4868966.794 3
  21966137.268     8313516.877 3   6478064.742 2
 91  7 31  1 44 30.0050000  0  3 23 17 03
  22812436.986      -34591.504 3    -26944.180 2
  22141890.591     6284106.310 4   4896707.267 3
  21976281.045     8366825.391 3   6519603.845 2
 91  7 31  1 44 45.0050000  0  4 23 16 17 03
  22814763.972      -22357.169 3    -17410.901 2
  26750009.150      -12566.81712     -9800.620 1
  22148673.997     6319762.522 4   4924491.335 3
  21986452.096     8420274.854 3   6561252.772 2
 91  7 31  1 45  0.0050000  0  3 23 17 03
  22817110.748      -10026.910 3     -7802.887 2
  22155471.485     6355475.486 4   4952319.624 2
  21996652.237     8473866.097 3   6603012.177 2
 91  7 31  1 45 15.0050000  0  3 23 17 03
  22819472.512        2396.014 3      1877.336 2
  22162278.867     6391242.101 4   4980189.710 3
  22006873.650     8527596.083 3   6644879.676 2
 91  7 31  1 45 30.0050000  0  3 23 17 03
  22821856.753       14913.199 3     11631.006 2
  22169096.161     6427063.908 4   5008102.808 3
  22017127.154     8581466.200 3   6686856.384 2
 91  7 31  1 45 45.0050000  0  4 23 16 17 03
  22824257.502       27525.068 3     21458.472 2
  26817261.591      -12576.94912     -9808.430 1
  22175921.832     6462941.232 4   5036059.166 3
  22027404.651     8635477.068 3   6728942.759 2
 91  7 31  1 46  0.0050000  0  3 23 17 03
  22826675.927       40234.128 3     31361.646 2
  22182761.287     6498876.400 3   5064060.599 3
  22037709.110     8689631.126 3   6771140.743 2
 91  7 31  1 46 15.0050000  0  3 23 17 03
  22829116.532       53041.976 3     41341.806 2
  22189608.857     6534871.274 3   5092108.551 3
  22048041.157     8743929.848 3   6813451.427 2
 91  7 31  1 46 30.0050000  0  4 23 16 17 03
  22831566.438       65945.250 3     51396.341 2
  26867697.187       -9639.607 2     -7519.360 1
  22196470.196     6570922.632 3   5120200.525 2
  22058401.682     8798369.988 3   6855872.301 2
 91  7 31  1 46 45.0050000  0  3 23 17 03
  22834040.321       78943.347 3     61524.744 2
  22203340.539     6607029.653 3   5148335.865 3
  22068787.092     8852951.156 3   6898403.077 2
 91  7 31  1 47  0.0050000  0  3 23 17 03
  22836532.805       92037.095 3     71727.689 2
  22210222.590     6643193.027 3   5176515.127 2
  22079202.185     8907673.937 3   6941044.189 2
 91  7 31  1 47 15.0050000  0  3 23 17 03
  22839044.467      105225.408 3     82004.326 2
  22217113.611     6679411.757 3   5204737.521 2
  22089642.458     8962537.191 3   6983794.760 2
 91  7 31  1 47 30.0050000  0  3 23 17 03
  22841571.102      118510.043 3     92355.999 2
  22224017.528     6715687.730 3   5233004.512 2
  22100110.617     9017542.939 3   7026656.370 1
 91  7 31  1 47 45.0050000  0  3 23 17 03
  22844116.356      131890.896 3    102782.665 2
  22230931.654     6752020.834 3   5261316.027 2
  22110604.253     9072690.798 3   7069628.751 2
 91  7 31  1 48  0.0050000  0  3 23 17 03
  22846683.178      145366.908 3    113283.485 2
  22237855.656     6788409.970 3   5289671.211 2
  22121123.366     9127980.107 3   7112711.311 2
 91  7 31  1 48 15.0050000  0  3 23 17 03
  22849265.880      158935.446 3    123856.393 2
  22244790.756     6824852.743 4   5318068.184 3
  22131675.164     9183408.151 3   7155901.987 2
 91  7 31  1 48 30.0050000  0  3 23 17 03
  22851863.292      172596.873 3    134501.692 2
  22251736.641     6861349.219 4   5346507.006 3
  22142248.234     9238975.174 3   7199200.947 2
 91  7 31  1 48 45.0050000  0  3 23 17 03
  22854481.366      186348.209 3    145217.036 2
  22258692.420     6897896.639 4   5374985.527 3
  22152847.409     9294678.278 3   7242605.961 2
 91  7 31  1 49  0.0050000  0  3 23 17 03
  22857116.855      200193.678 3    156005.741 2
  22265654.516     6934499.149 4   5403506.966 3
  22163474.748     9350521.654 3   7286120.280 2
 91  7 31  1 49 15.0050000  0  3 23 17 03
  22859766.705      214131.581 3    166866.462 2
  22272633.085     6971154.920 4   5432069.903 3
  22174124.878     9406503.554 3   7329742.516 2
 91  7 31  1 49 30.0050000  0  3 23 17 03
  22862437.863      228163.395 3    177800.370 2
  22279620.344     7007865.642 4   5460675.671 3
  22184808.285     9462625.729 3   7373474.082 2
 91  7 31  1 49 45.0050000  0  3 23 17 03
  22865126.400      242287.765 3    188806.401 2
  22286613.292     7044629.624 4   5489322.935 3
  22195511.760     9518886.584 3   7417313.690 2
 91  7 31  1 50  0.0050000  0  3 23 17 03
  22867829.928      256505.292 3    199885.015 2
  22293620.950     7081447.747 4   5518012.383 3
  22206243.731     9575286.686 3   7461261.817 2
 91  7 31  1 50 15.0050000  0  3 23 17 03
  22870553.243      270819.792 3    211039.194 2
  22300638.485     7118323.776 4   5546746.963 3
  22217001.494     9631829.988 3   7505321.523 2
 91  7 31  1 50 30.0050000  0  3 23 17 03
  22873299.053      285227.817 3    222266.255 2
  22307663.821     7155254.233 4   5575523.953 3
  22227791.016     9688512.932 3   7549490.042 2
 91  7 31  1 50 45.0050000  0  3 23 17 03
  22876056.536      299728.404 3    233565.448 2
  22314702.960     7192238.229 4   5604342.659 3
  22238603.642     9745334.728 3   7593766.756 2
 91  7 31  1 51  0.0050000  0  3 23 17 03
  22878832.307      314323.539 3    244938.306 2
  22321750.178     7229277.891 4   5633204.745 3
  22249444.433     9802297.343 3   7638153.195 2
 91  7 31  1 51 15.0060000  0  3 23 17 03
  22881627.277      329014.522 3    256385.846 2
  22328807.590     7266375.798 4   5662112.213 3
  22260312.205     9859404.750 3   7682652.472 2
 91  7 31  1 51 30.0060000  0  3 23 17 03
  22884442.329      343800.637 3    267907.518 2
  22335878.785     7303528.409 4   5691062.306 3
  22271205.765     9916650.668 3   7727259.666 2
 91  7 31  1 51 45.0060000  0  3 23 17 03
  22887272.963      358681.866 3    279503.302 2
  22342958.094     7340737.149 4   5720056.143 3
  22282124.209     9974037.938 3   7771977.002 2
 91  7 31  1 52  0.0060000  0  3 23 17 03
  22890122.200      373658.192 3    291173.196 2
  22350051.188     7378002.292 4   5749093.929 3
  22293071.725    10031566.513 3   7816804.479 2
 91  7 31  1 52 15.0060000  0  3 23 17 03
  22892991.819      388727.979 3    302915.918 2
  22357155.067     7415321.881 4   5778174.131 3
  22304045.923    10089234.747 3   7861740.737 2
 91  7 31  1 52 30.0060000  0  3 23 17 03
  22895878.817      403891.914 3    314731.993 2
  22364266.746     7452696.702 4   5807297.376 3
  22315047.116    10147043.377 3   7906786.408 2
 91  7 31  1 52 45.0060000  0  3 23 17 03
  22898782.603      419149.185 3    326620.799 2
  22371385.318     7490126.125 4   5836463.163 3
  22326071.989    10204991.653 3   7951940.902 2
 91  7 31  1 53  0.0060000  0  3 23 17 03
  22901704.084      434501.349 3    338583.548 2
  22378520.381     7527611.660 4   5865672.684 3
  22337128.936    10263080.879 3   7997205.227 2
 91  7 31  1 53 15.0060000  0  3 23 17 03
  22904643.242      449948.138 3    350620.037 2
  22385665.320     7565153.016 4   5894925.693 3
  22348208.655    10321311.147 3   8042579.442 2
 91  7 31  1 53 30.0060000  0  3 23 17 03
  22907599.797      465489.795 3    362730.433 2
  22392818.670     7602750.191 4   5924222.203 3
  22359316.259    10379682.457 3   8088063.568 2
 91  7 31  1 53 45.0060000  0  3 23 17 03
  22910575.530      481128.812 3    374916.709 2
  22399984.306     7640405.822 4   5953564.250 3
  22370451.767    10438197.271 3   8133659.515 2
 91  7 31  1 54  0.0060000  0  3 23 17 03
  22913568.068      496860.934 3    387175.534 2
  22407161.947     7678115.924 4   5982948.750 3
  22381611.530    10496851.317 3   8179363.964 2
 91  7 31  1 54 15.0060000  0  3 23 17 03
  22916579.191      512688.683 3    399508.866 2
  22414350.075     7715883.023 4   6012377.666 3
  22392800.993    10555647.124 3   8225178.869 2
 91  7 31  1 54 30.0060000  0  3 23 17 03
  22919610.677      528610.262 3    411915.317 2
  22421545.393     7753705.334 4   6041849.597 3
  22404017.418    10614582.927 3   8271102.850 2
 91  7 31  1 54 45.0060000  0  3 23 17 03
  22922660.173      544626.431 3    424395.468 2
  22428753.590     7791583.583 4   6071365.121 3
  22415257.539    10673659.539 3   8317136.579 2
 91  7 31  1 55  0.0060000  0  3 23 17 03
  22925725.548      560736.393 3    436948.706 2
  22435972.605     7829517.071 4   6100923.694 3
  22426526.139    10732876.074 3   8363279.314 2
 91  7 31  1 55 15.0060000  0  3 23 17 03
  22928807.710      576940.551 3    449575.349 2
  22443199.404     7867506.032 4   6130525.486 3
  22437821.421    10792232.842 3   8409531.326 2
 91  7 31  1 55 30.0060000  0  3 23 17 03
  22931909.975      593238.873 3    462275.348 2
  22450439.377     7905550.715 4   6160170.697 3
  22449143.977    10851730.038 3   8455892.776 2
 91  7 31  1 55 45.0060000  0  3 23 17 03
  22935028.416      609631.043 3    475048.498 2
  22457691.966     7943650.817 4   6189859.087 3
  22460493.529    10911367.206 3   8502363.282 2
 91  7 31  1 56  0.0060000  0  3 23 17 03
  22938163.941      626117.693 3    487895.260 3
  22464952.636     7981806.739 4   6219590.974 3
  22471867.947    10971145.000 3   8548943.352 2
 91  7 31  1 56 15.0060000  0  3 23 17 03
  22941319.848      642697.324 3    500814.478 2
  22472222.902     8020017.380 4   6249365.490 3
  22483269.955    11031061.835 3   8595631.795 2
 91  7 31  1 56 30.0060000  0  3 23 17 03
  22944494.356      659371.618 3    513807.452 2
  22479507.269     8058284.228 4   6279183.820 3
  22494698.643    11091119.520 3   8642429.988 2
 91  7 31  1 56 45.0060000  0  3 23 17 03
  22947683.541      676139.613 3    526873.450 2
  22486797.917     8096606.435 4   6309045.282 3
  22506151.919    11151316.942 3   8689337.058 2
 91  7 31  1 57  0.0060000  0  3 23 17 03
  22950890.437      692997.866 3    540009.767 2
  22494101.462     8134980.598 4   6338947.235 3
  22517633.360    11211650.684 3   8736350.336 2
 91  7 31  1 57 15.0060000  0  3 23 17 03
  22954116.790      709949.825 3    553219.110 2
  22501414.900     8173409.913 4   6368892.153 3
  22529140.609    11272124.045 3   8783472.428 2
 91  7 31  1 57 30.0060000  0  3 23 17 03
  22957362.653      726994.495 4    566500.686 2
  22508737.623     8211893.625 4   6398879.468 3
  22540677.506    11332736.187 3   8830702.672 2
 91  7 31  1 57 45.0060000  0  3 23 17 03
  22960622.598      744131.620 3    579854.311 3
  22516069.349     8250431.482 4   6428908.961 3
  22552237.508    11393486.721 3   8878040.734 2
 91  7 31  1 58  0.0060000  0  3 23 17 03
  22963902.017      761361.442 4    593280.169 2
  22523412.174     8289023.975 4   6458981.031 3
  22563823.597    11454375.981 3   8925486.896 2
 91  7 31  1 58 15.0060000  0  3 23 17 03
  22967199.445      778686.398 4    606780.153 3
  22530766.079     8327673.609 4   6489097.639 3
  22575438.148    11515406.199 3   8973042.905 2
 91  7 31  1 58 30.0060000  0  3 23 17 03
  22970514.847      796102.920 4    620351.488 2
  22538131.083     8366376.661 4   6519255.866 3
  22587079.084    11576574.005 3   9020706.116 2
 91  7 31  1 58 45.0060000  0  4 23 16 17 03
  22973844.331      813615.316 3    633997.534 2
  27688391.331        7667.079 2      5966.202 1
  22545508.669     8405137.561 4   6549459.162 3
  22598741.012    11637883.647 3   9068479.838 2
 91  7 31  1 59  0.0060000  0  4 23 16 17 03
  22977195.122      831219.845 3    647715.364 2
  27705059.779       95288.512 2     74242.589 1
  22552896.463     8443952.670 4   6579704.700 3
  22610436.218    11699331.465 3   9116361.249 2
 91  7 31  1 59 15.0060000  0  3 23 17 03
  22980563.590      848915.712 3    661504.361 3
  22560291.429     8482821.278 4   6609991.935 3
  22622154.510    11760916.458 3   9164349.546 2
 91  7 31  1 59 30.0060000  0  3 23 17 03
  22983947.937      866704.145 4    675365.502 3
  22567699.605     8521744.391 4   6640321.626 3
  22633901.281    11822639.816 3   9212445.646 2
 91  7 31  1 59 45.0060000  0  3 23 17 03
  22987351.480      884584.199 4    689298.031 3
  22575116.471     8560721.002 4   6670693.020 3
  22645671.436    11884500.477 3   9260648.752 2
 91  7 31  2  0  0.0060000  0  3 23 17 03
  22990770.920      902554.716 4    703301.045 3
  22582542.638     8599750.539 4   6701105.648 3
  22657467.957    11946497.722 3   9308958.276 2
 91  7 31  2  0 15.0060000  0  3 23 17 03
  22994207.741      920619.928 4    717377.851 2
  22589983.184     8638836.871 4   6731562.533 3
  22669294.773    12008635.360 3   9357377.203 2
 91  7 31  2  0 30.0060000  0  3 23 17 03
  22997663.146      938779.319 4    731528.051 3
  22597430.029     8677979.750 4   6762063.476 3
  22681145.268    12070913.023 3   9405905.240 2
 91  7 31  2  0 45.0060000  0  3 23 17 03
  23001135.948      957033.856 4    745752.373 3
  22604890.957     8717180.160 4   6792609.264 3
  22693023.352    12133331.503 3   9454542.992 2
 91  7 31  2  1  0.0060000  0  3 23 17 03
  23004627.021      975380.206 4    760048.251 2
  22612360.296     8756435.050 4   6823197.477 3
  22704929.304    12195887.665 3   9503288.049 2
 91  7 31  2  1 15.0060000  0  3 23 17 03
  23008138.197      993822.725 4    774419.061 2
  22619840.105     8795748.626 4   6853831.433 3
  22716860.140    12258585.669 3   9552143.619 2
 91  7 31  2  1 30.0070000  0  3 23 17 03
  23011665.256     1012363.345 4    788866.316 3
  22627333.720     8835124.214 4   6884513.713 3
  22728820.069    12321430.370 3   9601113.496 2
 91  7 31  2  1 45.0070000  0  3 23 17 03
  23015213.601     1030996.840 4    803385.941 2
  22634836.337     8874553.830 4   6915238.097 3
  22740804.564    12384410.594 3   9650188.994 2
 91  7 31  2  2  0.0070000  0  3 23 17 03
  23018775.434     1049724.133 4    817978.655 3
  22642349.127     8914039.888 4   6946006.457 3
  22752814.851    12447530.325 3   9699373.183 2
 91  7 31  2  2 15.0070000  0  3 23 17 03
  23022356.760     1068544.675 4    832644.020 2
  22649874.219     8953581.721 4   6976818.275 3
  22764855.414    12510788.701 3   9748665.400 2
 91  7 31  2  2 30.0070000  0  3 23 17 03
  23025954.262     1087459.160 4    847382.601 3
  22657411.596     8993180.299 4   7007674.316 3
  22776914.875    12574186.451 3   9798066.224 2
 91  7 31  2  2 45.0070000  0  3 23 17 03
  23029575.165     1106469.131 4    862195.581 3
  22664956.180     9032837.213 4   7038575.808 3
  22789004.892    12637725.184 3   9847576.908 2
 91  7 31  2  3  0.0070000  0  3 23 17 03
  23033209.539     1125574.262 4    877082.712 3
  22672516.348     9072552.164 4   7069522.530 3
  22801122.515    12701404.757 3   9897197.338 2
 91  7 31  2  3 15.0070000  0  3 23 17 03
  23036864.313     1144771.250 4    892041.423 2
  22680083.408     9112322.004 4   7100512.021 3
  22813268.303    12765221.754 3   9946924.866 2
 91  7 31  2  3 30.0070000  0  3 23 17 03
  23040535.577     1164060.216 4    907071.804 3
  22687660.065     9152146.784 4   7131544.317 3
  22825438.085    12829175.999 3   9996759.333 2
 91  7 31  2  3 45.0070000  0  3 23 17 03
  23044222.110     1183441.682 4    922174.265 3
  22695250.509     9192026.808 4   7162619.662 3
  22837635.438    12893268.083 3  10046701.196 2
 91  7 31  2  4  0.0070000  0  3 23 17 03
  23047927.559     1202912.327 4    937346.216 3
  22702849.642     9231959.389 4   7193735.964 3
  22849856.471    12957494.610 3  10096747.822 2
 91  7 31  2  4 15.0070000  0  3 23 17 03
  23051648.870     1222476.997 4    952591.429 3
  22710455.983     9271949.405 4   7224897.012 3
  22862105.093    13021860.543 3  10146903.079 2
 91  7 31  2  4 30.0070000  0  3 23 17 03
  23055390.877     1242135.004 4    967909.377 3
  22718078.203     9311995.961 4   7256102.124 3
  22874380.397    13086364.988 3  10197166.278 2
 91  7 31  2  4 45.0070000  0  4 23 17 03 21
  23059147.577     1261883.200 4    983297.607 3
  22725708.520     9352096.259 4   7287349.111 3
  22886683.585    13151004.998 3  10247535.083 2
  26631976.075           0.156 2         0.227 1
 91  7 31  2  5  0.0070000  0  4 23 17 03 21
  23062921.676     1281726.691 4    998760.081 3
  22733352.920     9392255.143 4   7318641.752 3
  22899007.139    13215785.343 3  10298013.266 2
  26630378.176       -8369.848 2     -6521.729 1
 91  7 31  2  5 15.0070000  0  4 23 17 03 21
  23066717.639     1301663.856 4   1014295.553 3
  22741002.729     9432471.086 4   7349978.848 3
  22911363.097    13280704.632 3  10348599.722 2
  26628802.160      -16704.424 2    -13016.117 1
 91  7 31  2  5 30.0070000  0  4 23 17 03 21
  23070527.405     1321695.216 4   1029904.417 3
  22748667.231     9472744.726 4   7381360.907 3
  22923742.124    13345762.994 3  10399294.525 2
  26627221.955      -25002.988 2    -19482.444 1
 91  7 31  2  5 45.0070000  0  4 23 17 03 21
  23074359.648     1341820.024 4   1045586.110 3
  22756344.611     9513075.489 4   7412787.480 3
  22936147.536    13410959.984 3  10450097.348 2
  26625641.751      -33265.937 2    -25921.049 1
 91  7 31  2  6  0.0070000  0  4 23 17 03 21
  23078206.897     1362039.522 4   1061341.576 3
  22764030.088     9553464.733 4   7444259.618 3
  22948580.223    13476296.688 3  10501009.064 2
  26624071.144      -41492.116 2    -32330.974 1
 91  7 31  2  6 15.0070000  0  4 23 17 03 21
  23082071.510     1382350.600 4   1077168.411 3
  22771724.256     9593909.312 4   7475774.878 3
  22961042.907    13541769.926 3  10552027.156 1
  26622526.904      -49684.289 2    -38714.429 1
 91  7 31  2  6 30.0070000  0  4 23 17 03 21
  23085955.021     1402756.289 4   1093068.974 3
  22779433.134     9634412.305 4   7507335.651 3
  22973526.863    13607382.447 3  10603153.782 2
  26620958.392      -57839.446 2    -45068.975 1
 91  7 31  2  6 45.0070000  0  4 23 17 03 21
  23089858.024     1423257.265 4   1109043.769 3
  22787152.482     9674974.451 4   7538942.523 3
  22986037.796    13673135.231 3  10654389.698 1
  26619421.656      -65956.579 2    -51393.948
 91  7 31  2  7  0.0070000  0  4 23 17 03 21
  23093773.015     1443855.064 4   1125094.022 3
  22794882.038     9715597.646 4   7570596.959 3
  22998579.617    13739029.865 3  10705736.156 2
  26617890.015      -74033.760 2    -57687.735 1
 91  7 31  2  7 15.0070000  0  4 23 17 03 21
  23097712.594     1464547.077 4   1141217.690 3
  22802625.363     9756279.087 4   7602296.789 3
  23011144.820    13805063.590 3  10757190.984 2
  26616349.091      -82073.906 2    -63952.817 1
 91  7 31  2  7 30.0070000  0  4 23 17 03 21
  23101669.238     1485333.543 4   1157414.945 3
  22810376.506     9797019.093 4   7634042.250 3
  23023738.503    13871236.377 3  10808754.185 2
  26614835.128      -90076.588 2    -70188.510 1
 91  7 31  2  7 45.0070000  0  4 23 17 03 21
  23105644.189     1506215.874 4   1173686.915 3
  22818140.823     9837819.189 4   7665834.528 3
  23036355.255    13937549.697 3  10860426.881 2
  26613320.274      -98040.054 2    -76393.797 1
 91  7 31  2  8  0.0070000  0  4 23 17 03 21
  23109635.629     1527192.060 4   1190032.014 2
  22825914.441     9878677.445 4   7697672.136 3
  23049000.206    14004001.563 3  10912207.535 2
  26611805.438     -105966.239 2    -82569.963 1
 91  7 31  2  8 15.0070000  0  4 23 17 03 21
  23113643.857     1548262.201 4   1206450.324 3
  22833699.751     9919594.268 4   7729555.379 3
  23061673.339    14070591.915 3  10964096.114 2
  26610301.072     -113854.867 2    -88716.878 1
 91  7 31  2  8 30.0070000  0  4 23 17 03 21
  23117671.263     1569424.069 4   1222940.116 3
  22841497.067     9960567.269 4   7761482.394 3
  23074368.041    14137318.692 3  11016090.980 2
  26608810.196     -121708.169 2    -94836.189 1
 91  7 31  2  8 45.0070000  0  4 23 17 03 21
  23121714.862     1590678.424 4   1239501.967 3
  22849305.149    10001597.166 4   7793453.745 3
  23087094.241    14204182.377 3  11068192.532 1
  26607324.728     -129525.021 2   -100927.204 1
 91  7 31  2  9  0.0070000  0  4 23 17 03 21
  23125774.655     1612026.208 4   1256136.614 3
  22857124.051    10042685.078 4   7825470.296 3
  23099845.307    14271183.850 3  11120401.463 2
  26605845.561     -137304.532 2   -106989.121 1
 91  7 31  2  9 15.0070000  0  4 23 17 03 21
  23129858.425     1633467.178 4   1272843.886 3
  22864953.423    10083831.131 4   7857532.161 3
  23112622.758    14338322.863 3  11172717.556 2
  26604379.865     -145046.770 2   -113021.899 1
 91  7 31  2  9 30.0070000  0  4 23 17 03 21
  23133955.090     1655000.269 4   1289622.935 3
  22872794.800    10125034.294 4   7889638.528 3
  23125423.609    14405598.407 3  11225140.045 2
  26602897.992     -152752.614 2   -119026.436 1
 91  7 31  2  9 45.0070000  0  4 23 17 03 21
  23138071.544     1676626.384 4   1306474.466 3
  22880646.351    10166295.361 4   7921790.012 3
  23138250.514    14473011.294 3  11277669.555 2
  26601447.303     -160420.979 2   -125001.600 1
 91  7 31  2 10  0.0070000  0  4 23 17 03 21
  23142199.097     1698347.989 4   1323400.412 3
  22888511.409    10207616.922 4   7953988.633 3
  23151108.026    14540563.855 3  11330307.900 2
  26599998.412     -168049.237 2   -130945.760 1
 91  7 31  2 10 15.0070000  0  4 23 17 03 21
  23146355.407     1720162.735 4   1340398.933 3
  22896383.655    10248996.550 4   7986232.496 3
  23163987.700    14608253.637 3  11383053.157 2
  26598547.112     -175639.736 2   -136860.321 1
 91  7 31  2 10 30.0070000  0  4 23 17 03 21
  23150524.631     1742067.857 4   1357467.868 3
  22904270.002    10290431.522 4   8018519.495 3
  23176892.573    14676077.776 3  11435903.123 2
  26597104.502     -183195.058 2   -142747.613 1
 91  7 31  2 10 45.0070000  0  4 23 17 03 21
  23154708.826     1764066.097 4   1374609.373 3
  22912165.039    10331924.990 4   8050852.070 3
  23189828.018    14744039.069 3  11488859.970 2
  26595685.590     -190712.278 2   -148605.013 1
 91  7 31  2 11  0.0070000  0  4 23 17 03 21
  23158914.015     1786157.225 4   1391823.254 3
  22920070.564    10373476.696 4   8083230.022 3
  23202787.143    14812137.210 3  11541923.435 2
  26594254.672     -198191.411 2   -154432.877 1
 91  7 31  2 11 15.0070000  0  4 23 17 03 21
  23163135.990     1808340.327 4   1409108.807 3
  22927988.687    10415085.769 4   8115652.693 3
  23215771.448    14880371.310 3  11595092.844 2
  26592845.655     -205633.143 2   -160231.580 1
 91  7 31  2 11 30.0070000  0  4 23 17 03 21
  23167372.065     1830613.104 4   1426464.234 3
  22935917.892    10456750.052 4   8148118.367 3
  23228779.748    14948738.979 3  11648366.337 2
  26591428.243     -213039.702 2   -166002.863 1
 91  7 31  2 11 45.0070000  0  4 23 17 03 21
  23171630.913     1852978.826 4   1443892.092 3
  22943858.491    10498473.159 4   8180629.882 3
  23241815.933    15017243.520 3  11701746.489 2
  26590027.601     -220407.639 2   -171744.034 1
 91  7 31  2 12  0.0080000  0  4 23 17 03 21
  23175899.658     1875438.289 4   1461392.989 3
  22951808.691    10540256.924 4   8213188.665 3
  23254878.175    15085888.544 3  11755236.096 2
  26588638.061     -227738.090 2   -177455.961 1
 91  7 31  2 12 15.0080000  0  4 23 17 03 21
  23180195.082     1897986.015 4   1478962.664 3
  22959769.079    10582093.193 4   8245788.366 3
  23267964.128    15154662.201 3  11808825.938 2
  26587247.331     -235032.530 2   -183139.911 1
 91  7 31  2 12 30.0080000  0  4 23 17 03 21
  23184500.400     1920623.391 4   1496602.192 3
  22967740.862    10623985.197 4   8278431.486 3
  23281079.136    15223569.273 3  11862519.757 2
  26585859.289     -242291.151 2   -188795.886 1
 91  7 31  2 12 45.0080000  0  4 23 17 03 21
  23188828.211     1943351.403 4   1514312.345 3
  22975725.541    10665933.802 4   8311118.719 3
  23294215.450    15292610.456 3  11916318.065 1
  26584492.832     -249513.123 2   -194423.278 1
 91  7 31  2 13  0.0080000  0  4 23 17 03 21
  23193168.603     1966169.464 4   1532092.673 3
  22983719.206    10707938.629 4   8343849.764 3
  23307380.244    15361785.200 3  11970220.444 1
  26583115.294     -256698.637 2   -200022.378 1
 91  7 31  2 13 15.0080000  0  4 23 17 03 21
  23197529.378     1989079.636 4   1549944.778 3
  22991720.358    10750001.870 4   8376626.320 3
  23320569.310    15431095.462 3  12024228.423 2
  26581767.125     -263845.294 2   -205591.077 1
 91  7 31  2 13 30.0080000  0  4 23 17 03 21
  23201902.455     2012080.981 4   1567867.915 3
  22999738.611    10792122.255 4   8409447.409 3
  23333784.151    15500540.228 3  12078341.207 2
  26580412.657     -270954.326 2   -211130.540 1
 91  7 31  2 13 45.0080000  0  4 23 17 03 21
  23206301.916     2035175.106 4   1585863.355 3
  23007764.664    10834301.770 4   8442314.567 3
  23347025.690    15570121.023 3  12132560.004 2
  26579068.100     -278023.692 2   -216639.073 1
 91  7 31  2 14  0.0080000  0  4 23 17 03 21
  23210713.052     2058359.027 4   1603928.767 3
  23015800.001    10876537.656 4   8475225.657 3
  23360290.613    15639834.803 3  12186882.426 1
  26577728.918     -285056.357 2   -222118.973 1
 91  7 31  2 14 15.0080000  0  4 23 17 03 21
  23215136.491     2081632.623 4   1622064.043 3
  23023848.216    10918830.193 4   8508180.890 3
  23373582.199    15709681.623 3  12241308.504 2
  26576393.348     -292051.928 2   -227570.045 1
 91  7 31  2 14 30.0080000  0  4 23 17 03 21
  23219587.221     2104999.318 4   1640271.880 3
  23031906.936    10961182.458 4   8541182.662 3
  23386899.280    15779664.495 3  12295840.594 2
  26575073.065     -299007.220 2   -232989.607 1
 91  7 31  2 14 45.0080000  0  4 23 17 03 21
  23224051.126     2128455.221 4   1658549.233 3
  23039979.459    11003590.771 4   8574228.104 3
  23400243.357    15849779.514 3  12350475.643 2
  26573759.377     -305925.998 2   -238380.841 1
 91  7 31  2 15  0.0080000  0  4 23 17 03 21
  23228529.725     2151999.737 4   1676895.612 3
  23048060.061    11046054.652 4   8607316.852 3
  23413610.503    15920025.850 3  12405213.045 2
  26572447.784     -312808.630 2   -243743.705 1
 91  7 31  2 15 15.0080000  0  4 23 17 03 21
  23233028.408     2175636.551 4   1695313.931 3
  23056151.151    11088577.573 4   8640451.603 3
  23427001.032    15990407.299 3  12460055.702 1
  26571139.489     -319651.297 2   -249075.678 1
 91  7 31  2 15 30.0080000  0  4 23 17 03 21
  23237545.676     2199361.967 4   1713801.282 3
  23064253.043    11131156.025 4   8673629.618 3
  23440423.339    16060920.207 3  12515000.805 1
  26569856.374     -326457.450 2   -254379.100 1
 91  7 31  2 15 45.0080000  0  4 23 17 03 21
  23242074.653     2223181.154 4   1732361.699 3
  23072367.237    11173795.634 4   8706855.299 3
  23453863.636    16131569.553 3  12570052.245 2
  26568551.971     -333221.718 2   -259649.804 1
 91  7 31  2 16  0.0080000  0  4 23 17 03 21
  23246626.403     2247093.002 4   1750994.324 3
  23080493.106    11216495.352 4   8740127.813 3
  23467334.506    16202354.144 3  12625209.046 2
  26567287.144     -339945.081 2   -264888.784 1
 91  7 31  2 16 15.0080000  0  4 23 17 03 21
  23251194.329     2271097.058 4   1769698.808 2
  23088630.369    11259254.729 4   8773446.819 3
  23480830.260    16273273.691 3  12680471.009 2
  26566008.532     -346627.836 2   -270096.058 1
 91  7 31  2 16 30.0080000  0  4 23 17 03 21
  23255777.262     2295192.210 4   1788474.257 3
  23096777.841    11302072.638 4   8806811.433 3
  23494348.804    16344326.486 3  12735836.809 2
  26564744.316     -353271.105 2   -275272.496 1
 91  7 31  2 16 45.0080000  0  4 23 17 03 21
  23260379.077     2319378.723 4   1807320.911 3
  23104936.079    11344949.672 4   8840222.121 3
  23507896.717    16415513.089 3  12791306.866 1
  26563486.679     -359874.359 2   -280417.788 1
 91  7 31  2 17  0.0080000  0  4 23 17 03 21
  23265000.680     2343655.367 4   1826237.794 3
  23113105.730    11387884.470 4   8873677.812 3
  23521471.032    16486832.041 3  12846880.064 2
  26562237.749     -366438.813 2   -285532.857 1
 91  7 31  2 17 15.0080000  0  4 23 17 03 21
  23269637.569     2368021.199 4   1845224.174 3
  23121285.276    11430876.134 4   8907177.819 3
  23535067.212    16558282.428 3  12902555.662 1
  26560997.196     -372965.030 2   -290618.138 1
 91  7 31  2 17 30.0080000  0  4 23 17 03 21
  23274292.449     2392476.237 4   1864280.069 2
  23129479.200    11473925.299 4   8940722.635 3
  23548687.090    16629864.433 3  12958333.831 2
  26559762.959     -379452.612 2   -295673.309 1
 91  7 31  2 17 45.0080000  0  4 23 17 03 21
  23278961.412     2417021.565 4   1883406.317 3
  23137682.722    11517032.946 4   8974313.015 3
  23562333.038    16701578.858 3  13014215.189 1
  26558538.303     -385900.547 2   -300697.542 1
 91  7 31  2 18  0.0080000  0  4 23 17 03 21
  23283649.570     2441659.278 4   1902604.552 3
  23145899.122    11560201.059 4   9007950.510 3
  23576004.166    16773427.557 3  13070201.166 2
  26557311.553     -392306.865 2   -305689.420 1
 91  7 31  2 18 15.0080000  0  4 23 17 03 21
  23288359.297     2466386.472 4   1921872.515 3
  23154122.136    11603427.033 4   9041633.095 3
  23589703.495    16845407.545 3  13126289.452 2
  26556107.889     -398674.048 2   -310650.718 1
 91  7 31  2 18 30.0080000  0  4 23 17 03 21
  23293078.638     2491203.738 4   1941210.664 3
  23162359.825    11646711.552 4   9075361.295 3
  23603427.079    16917519.318 3  13182480.420 2
  26554903.614     -405001.249 2   -315580.879 1
 91  7 31  2 18 45.0080000  0  4 23 17 03 21
  23297819.252     2516108.767 4   1960617.196 3
  23170608.927    11690052.398 4   9109133.389 3
  23617174.971    16989760.808 3  13238772.472 1
  26553704.750     -411290.860 2   -320481.980 1
 91  7 31  2 19  0.0080000  0  4 23 17 03 21
  23302573.058     2541105.785 3   1980095.407 2
  23178866.108    11733453.799 4   9142952.672 3
  23630947.730    17062135.686 3  13295168.448 1
  26552513.685     -417538.436 2   -325350.043 1
 91  7 31  2 19 15.0080000  0  4 23 17 03 21
  23307349.653     2566192.235 4   1999643.313 3
  23187136.482    11776913.393 4   9176817.292 3
  23644742.982    17134641.561 3  13351666.520 1
  26551327.105     -423746.353 2   -330187.257 1
 91  7 31  2 19 30.0080000  0  4 23 17 03 21
  23312140.942     2591367.767 4   2019260.631 3
  23195417.046    11820430.942 4   9210727.079 3
  23658566.713    17207278.016 3  13408266.331 1
  26550162.111     -429914.674 2   -334993.655 1
 91  7 31  2 19 45.0080000  0  4 23 17 03 21
  23316950.205     2616633.665 4   2038948.357 2
  23203709.006    11864008.003 4   9244683.235 3
  23672412.623    17280046.159 3  13464968.759 1
  26548992.318     -436042.041 2   -339768.111 1
 91  7 31  2 20  0.0080000  0  4 23 17 03 21
  23321772.974     2641989.794 4   2058706.405 3
  23212015.362    11907644.308 4   9278685.553 3
  23686284.028    17352945.993 3  13521773.816 1
  26547835.125     -442128.345 2   -344510.630 1
 91  7 31  2 20 15.0080000  0  4 23 17 03 21
  23326613.716     2667437.132 4   2078535.515 2
  23220331.002    11951340.886 4   9312734.843 3
  23700181.504    17425977.874 3  13578681.735 1
  26546685.417     -448172.718 2   -349220.401 1
 91  7 31  2 20 30.0080000  0  4 23 17 03 21
  23331473.061     2692976.367 4   2098436.239 3
  23228658.036    11995098.938 4   9346832.028 3
  23714103.270    17499142.919 3  13635693.428 1
  26545541.101     -454174.099 2   -353896.753 1
 91  7 31  2 20 45.0080000  0  4 23 17 03 21
  23336353.974     2718607.983 4   2118408.948 3
  23236996.169    12038918.938 4   9380977.477 3
  23728051.107    17572441.507 3  13692809.196 1
  26544411.479     -460131.724 2   -358538.977 1
 91  7 31  2 21  0.0080000  0  4 23 17 03 21
  23341248.097     2744330.152 4   2138452.217 2
  23245340.584    12082799.075 4   9415169.794 3
  23742028.330    17645871.673 3  13750027.485 1
  26543281.874     -466047.507 2   -363148.599 1
 91  7 31  2 21 15.0080000  0  4 23 17 03 21
  23346160.194     2770143.460 4   2158566.505 3
  23253705.101    12126740.041 4   9449409.513 3
  23756027.139    17719433.648 3  13807348.490 2
  26542166.648     -471920.678 2   -367725.030 1
 91  7 31  2 21 30.0080000  0  4 23 17 03 21
  23351087.577     2796048.803 4   2178752.505 3
  23262079.199    12170742.788 4   9483697.370 3
  23770049.645    17793128.531 3  13864773.068 1
  26541062.206     -477750.120 2   -372267.359 1
 91  7 31  2 21 45.0080000  0  4 23 17 03 21
  23356034.452     2822044.177 4   2199008.662 2
  23270465.285    12214805.624 4   9518032.039 3
  23784098.205    17866953.928 3  13922299.312 1
  26539952.076     -483537.725 2   -376777.096 1
 91  7 31  2 22  0.0080000  0  4 23 17 03 21
  23361001.709     2848129.130 4   2219334.620 3
  23278858.875    12258928.325 4   9552413.379 3
  23798170.462    17940909.640 3  13979927.124 1
  26538866.219     -489283.715 2   -381254.361 1
 91  7 31  2 22 15.0090000  0  4 23 17 03 21
  23365978.567     2874306.734 4   2239732.779 3
  23287270.459    12303115.099 4   9586844.635 3
  23812271.812    18015001.658 3  14037661.138 2
  26537784.867     -494986.987 2   -385698.430 1
 91  7 31  2 22 30.0090000  0  4 23 17 03 21
  23370979.712     2900574.675 4   2260201.320 3
  23295689.822    12347361.264 4   9621322.163 3
  23826396.227    18089221.030 3  14095494.396 2
  26536699.917     -500645.604 2   -390107.646 1
 91  7 31  2 22 45.0090000  0  4 23 17 03 21
  23375998.237     2926933.849 4   2280740.955 3
  23304119.394    12391669.025 4   9655847.697 3
  23840543.136    18163571.782 3  14153430.020 1
  26535634.459     -506260.623 2   -394482.864 1
 91  7 31  2 23  0.0090000  0  4 23 17 03 21
  23381028.454     2953385.594 4   2301352.716 2
  23312563.642    12436040.064 4   9690422.534 3
  23854712.818    18238055.273 3  14211469.092 1
  26534570.205     -511830.485 2   -398822.908 1
 91  7 31  2 23 15.0090000  0  4 23 17 03 21
  23386081.148     2979928.956 4   2322035.877 3
  23321020.785    12480473.459 4   9725045.955 3
  23868915.498    18312670.577 3  14269610.863 1
  26533517.922     -517355.920 2   -403128.406 1
 91  7 31  2 23 30.0090000  0  4 23 17 03 21
  23391149.145     3006564.612 4   2342790.957 3
  23329483.635    12524969.961 4   9759718.561 3
  23883140.653    18387417.964 3  14327855.570 1
  26532472.253     -522836.142 2   -407398.612 1
 91  7 31  2 23 45.0090000  0  4 23 17 03 21
  23396234.819     3033293.301 4   2363618.524 3
  23337968.664    12569530.491 4   9794441.056 3
  23897387.081    18462298.325 3  14386203.866 2
  26531446.354     -528270.154 2   -411632.844 1
 91  7 31  2 24  0.0090000  0  4 23 17 03 21
  23401339.688     3060113.626 4   2384517.493 2
  23346456.676    12614153.895 4   9829212.539 3
  23911660.504    18537310.191 3  14444654.647 1
  26530416.879     -533659.133 2   -415831.959 1
 91  7 31  2 24 15.0090000  0  4 23 17 03 21
  23406458.953     3087025.160 4   2405487.547 3
  23354963.588    12658839.939 4   9864032.830 3
  23925964.500    18612452.921 3  14503207.424 1
  26529402.079     -539003.498 2   -419996.333 1
 91  7 31  2 24 30.0090000  0  4 23 17 03 21
  23411596.489     3114024.526 4   2426526.026 3
  23363475.595    12703584.936 4   9898899.060 3
  23940286.190    18687722.979 3  14561859.392 1
  26528393.282     -544306.346 2   -424128.377 1
 91  7 31  2 24 45.0090000  0  4 23 17 03 21
  23416750.516     3141115.696 3   2447636.039 2
  23372004.703    12748393.373 3   9933814.719 3
  23954632.450    18763124.365 3  14620613.688 1
  26527386.875     -549563.498 2   -428224.778 1
 91  7 31  2 25  0.0090000  0  4 23 17 03 21
  23421924.645     3168298.476 4   2468817.448 3
  23380541.890    12793264.999 4   9968779.625 3
  23969006.299    18838656.706 3  14679470.049 1
  26526396.366     -554775.016 2   -432285.580 1
 91  7 31  2 25 15.0090000  0  3 23 17 03
  23427113.747     3195574.160 3   2490071.236 2
  23389093.771    12838201.472 3  10003795.057 2
  23983405.032    18914321.207 3  14738429.379 1
 91  7 31  2 25 30.0090000  0  3 23 17 03
  23432323.544     3222942.953 3   2511397.571 2
  23397655.249    12883202.882 3  10038861.083 2
  23997824.444    18990117.771 2  14797491.606 1
 91  7 31  2 25 45.0090000  0  4 23 17 03 21
  23437547.424     3250400.235 4   2532792.887 3
  23406232.903    12928264.712 4  10073974.209 3
  24012277.447    19066041.742 3  14856653.116 1
  26523477.573       27476.57412     21417.132 1
 91  7 31  2 26  0.0090000  0  4 23 17 03 21
  23442791.685     3277946.297 4   2554257.369 2
  23414817.451    12973387.423 4  10109134.764 3
  24026750.832    19142093.646 3  14915914.320 2
  26522518.247       22445.459 2     17496.861 1
 91  7 31  2 26 15.0090000  0  4 23 17 03 21
  23448049.157     3305584.738 3   2575793.828 2
  23423414.300    13018574.826 3  10144345.725 3
  24041242.802    19218276.627 3  14975277.645 1
  26521573.894       17461.445 2     13613.303 1
 91  7 31  2 26 30.0090000  0  4 23 17 03 21
  23453325.806     3333319.973 3   2597405.682 1
  23432027.344    13063831.513 3  10179610.633 2
  24055767.735    19294595.184 2  15034746.444
  26520630.744       12529.238 2      9769.988 1
 91  7 31  2 26 45.0090000  0  4 23 17 03 21
  23458619.539     3361147.857 3   2619089.782 2
  23440653.266    13109153.631 3  10214926.599 2
  24070314.271    19371044.984 3  15094317.891 1
  26519701.695        7644.866 2      5964.117 1
 91  7 31  2 27  0.0090000  0  3 23 17 03
  23463933.357     3389067.683 2   2640845.704 1
  23449286.988    13154540.394 2  10250293.132 1
  24084884.488    19447625.370 2  15153991.017 1
 91  7 31  2 27 15.0090000  0  3 23 17 03
  23469263.666     3417079.581 3   2662672.968 1
  23457937.811    13199992.136 3  10285709.861 1
  24099483.183    19524336.151 2  15213765.519 1
 91  7 31  2 27 30.0090000  0  3 23 17 03
  23474612.262     3445181.351 3   2684570.477 2
  23466600.309    13245506.782 3  10321175.819 2
  24114107.355    19601175.182 2  15273640.035 1
 91  7 31  2 27 45.0090000  0  3 23 17 03
  23479976.459     3473376.664 3   2706540.871 1
  23475273.311    13291087.990 3  10356693.650 1
  24128757.912    19678145.712 2  15333617.030 1
 91  7 31  2 28  0.0090000  0  4 23 17 03 21
  23485360.130     3501665.093 3   2728583.798 2
  23483963.083    13336735.557 3  10392263.167 2
  24143426.757    19755247.359 3  15393696.231 1
  26515185.927       24748.31312     19291.492 1
 91  7 31  2 28 15.0090000  0  4 23 17 03 21
  23490763.590     3530047.298 3   2750699.809 2
  23492658.579    13382450.400 3  10427885.125 2
  24158124.378    19832480.698 3  15453878.031 1
  26514317.727       20152.269 2     15710.223 1
 91  7 31  2 28 30.0090000  0  4 23 17 03 21
  23496180.539     3558520.010 3   2772886.358 1
  23501371.141    13428229.398 3  10463557.077 2
  24172846.289    19909842.527 2  15514159.963 1
  26513458.216       15603.060 2     12165.478 1
 91  7 31  2 28 45.0090000  0  4 23 17 03 21
  23501617.870     3587083.732 3   2795143.820 2
  23510096.303    13474072.854 3  10499279.264 2
  24187583.486    19987332.744 3  15574541.926 1
  26512597.205       11100.989 2      8657.364 1
 91  7 31  2 29  0.0090000  0  4 23 17 03 21
  23507068.690     3615734.533 3   2817469.133 2
  23518830.154    13519977.144 3  10535048.841 3
  24202361.762    20064947.588 3  15635021.034 1
  26511740.399        6642.550 2      5183.349 1
 91  7 31  2 29 15.0090000  0  4 23 17 03 21
  23512537.204     3644475.294 3   2839864.541 2
  23527578.699    13565945.389 3  10570868.258 3
  24217154.416    20142690.013 3  15695599.519 1
  26510906.977        2230.885 2      1745.812 1
 91  7 31  2 29 30.0090000  0  4 23 17 03 21
  23518022.506     3673306.969 3   2862330.801 2
  23536337.434    13611978.783 3  10606738.437 3
  24231971.047    20220560.673 3  15756277.922 1
  26510077.463       -2132.807 2     -1654.455 1
 91  7 31  2 29 45.0090000  0  4 23 17 03 21
  23523528.206     3702228.511 3   2884867.068 2
  23545109.362    13658076.388 3  10642658.649 3
  24246817.378    20298558.545 3  15817055.466 1
  26509252.731       -6449.532 2     -5018.091 1
 91  7 31  2 30  0.0090000  0  4 23 17 03 21
  23529049.176     3731240.525 3   2907473.841 2
  23553892.074    13704239.124 3  10678629.623 2
  24261682.887    20376684.050 3  15877932.450 1
  26508440.895      -10718.483 2     -8344.444 1
 91  7 31  2 30 15.0090000  0  4 23 17 03 21
  23534586.636     3760342.014 3   2930150.340 2
  23562690.683    13750465.910 3  10714650.497 2
  24276574.781    20454935.962 3  15938907.943 1
  26507637.138      -14940.587 2    -11634.333 1
 91  7 31  2 30 30.0090000  0  4 23 17 03 21
  23540140.901     3789532.857 4   2952896.465 2
  23571500.984    13796756.572 3  10750721.152 3
  24291489.743    20533313.939 3  15999981.689 1
  26506843.292      -19115.802 2    -14887.654 1
 91  7 31  2 30 45.0090000  0  4 23 17 03 21
  23545713.139     3818816.495 4   2975714.889 2
  23580322.383    13843114.640 4  10786844.317 3
  24306431.405    20611821.542 3  16061156.423 1
  26506060.528      -23240.532 2    -18101.655 1
 91  7 31  2 31  0.0090000  0  4 23 17 03 21
  23551301.572     3848189.114 4   2998602.662 2
  23589156.364    13889536.518 4  10823017.224 3
  24321393.152    20690454.557 3  16122428.883 1
  26505279.578      -27318.514 2    -21279.265 1
 91  7 31  2 31 15.0090000  0  4 23 17 03 21
  23556910.996     3877653.016 3   3021561.552 2
  23598002.350    13936024.876 3  10859241.908 3
  24336380.080    20769215.304 3  16183800.839 1
  26504516.899      -31347.313 2    -24418.598 1
 91  7 31  2 31 30.0090000  0  4 23 17 03 21
  23562534.190     3907208.820 3   3044592.064 2
  23606863.606    13982580.605 3  10895519.119 2
  24351393.689    20848104.371 3  16245272.839 1
  26503764.428      -35325.795 2    -27518.572 1
 91  7 31  2 31 45.0090000  0  4 23 17 03 21
  23568175.985     3936853.255 4   3067691.629 2
  23615732.662    14029200.356 4  10931846.201 3
  24366427.976    20927118.293 3  16306842.087 1
  26503003.546      -39257.286 2    -30582.005 1
 91  7 31  2 32  0.0090000  0  4 23 17 03 21
  23573833.380     3966588.347 3   3090861.843 2
  23624617.614    14075886.461 3  10968224.988 2
  24381487.147    21006259.019 3  16368510.160 1
  26502270.253      -43139.530 2    -33607.099
 91  7 31  2 32 15.0090000  0  4 23 17 03 21
  23579510.547     3996412.868 3   3114101.735 2
  23633513.962    14122637.804 3  11004654.611 2
  24396572.704    21085525.198 3  16430275.984 1
  26501540.869      -46973.604 2    -36594.625 1
 91  7 31  2 32 30.0090000  0  4 23 17 03 21
  23585203.296     4026327.726 3   3137412.028 2
  23642423.188    14169455.408 3  11041135.871 2
  24411680.753    21164917.530 3  16492140.175 1
  26500821.065      -50758.560 2    -39543.858 1
 91  7 31  2 32 45.0100000  0  4 23 17 03 21
  23590914.058     4056336.570 3   3160795.556 2
  23651342.312    14216344.109 3  11077672.521 2
  24426811.264    21244442.913 3  16554107.918 1
  26500109.361      -54492.671 2    -42453.526 1
 91  7 31  2 33  0.0100000  0  4 23 17 03 21
  23596639.492     4086433.509 3   3184247.725 2
  23660279.127    14263296.051 3  11114258.461 2
  24441966.970    21324088.619 3  16616169.490 1
  26499412.941      -58177.198 2    -45324.579 1
 91  7 31  2 33 15.0100000  0  4 23 17 03 21
  23602384.417     4116623.488 3   3207772.401 2
  23669227.930    14310317.212 3  11150898.336 2
  24457147.560    21403862.709 3  16678331.080 1
  26498718.317      -61809.244 2    -48154.643 1
 91  7 31  2 33 30.0100000  0  4 23 17 03 21
  23608147.614     4146904.191 3   3231367.762 2
  23678188.739    14357405.779 3  11187590.724 2
  24472354.535    21483762.862 3  16740590.941 1
  26498038.684      -65390.975 2    -50945.495 1
 91  7 31  2 33 45.0100000  0  4 23 17 03 21
  23613928.225     4177274.753 4   3255033.142 3
  23687160.611    14404560.760 4  11224334.872 3
  24487581.892    21563788.161 3  16802948.296 1
  26497365.349      -68923.070 2    -53697.689 1
 91  7 31  2 34  0.0100000  0  4 23 17 03 21
  23619725.606     4207734.328 4   3278767.886 2
  23696147.491    14451781.191 4  11261130.016 3
  24502832.946    21643937.396 3  16865402.237 1
  26496705.208      -72406.436 2    -56411.953 1
 91  7 31  2 34 15.0100000  0  4 23 17 03 21
  23625536.180     4238285.789 4   3302574.242 2
  23705145.172    14499070.447 4  11297978.783 3
  24518113.072    21724213.641 3  16927955.120 1
  26496051.662      -75837.822 2    -59085.727 1
 91  7 31  2 34 30.0100000  0  4 23 17 03 21
  23631367.449     4268927.141 3   3326450.619 1
  23714154.231    14546426.646 3  11334879.718 1
  24533412.969    21804614.447 2  16990605.109 1
  26495412.810      -79218.977 2    -61720.334 1
 91  7 31  2 34 45.0100000  0  4 23 17 03 21
  23637215.192     4299661.225 3   3350399.262 2
  23723180.984    14593852.927 3  11371835.278 2
  24548732.969    21885142.737 3  17053354.360 1
  26494769.752      -82547.037 2    -64313.500 1
 91  7 31  2 35  0.0100000  0  4 23 17 03 21
  23643082.426     4330485.541 4   3374418.234 2
  23732219.429    14641346.715 3  11408843.432 3
  24564079.040    21965795.716 3  17116200.788 1
  26494150.688      -85824.430 2    -66867.243 1
 91  7 31  2 35 15.0100000  0  4 23 17 03 21
  23648964.964     4361398.106 3   3398505.948 3
  23741271.067    14688906.426 3  11445902.951 3
  24579454.496    22046571.308 3  17179142.787 1
  26493531.606      -89052.694 2    -69382.708 1
 91  7 31  2 35 30.0100000  0  4 23 17 03 21
  23654864.883     4392401.666 3   3422664.576 2
  23750332.284    14736534.932 3  11483016.077 3
  24594848.834    22127472.174 3  17242182.399 1
  26492926.625      -92228.910 2    -71857.693 1
 91  7 31  2 35 45.0100000  0  4 23 17 03 21
  23660780.978     4423494.561 3   3446892.825 2
  23759406.712    14784230.580 3  11520181.520 2
  24610265.665    22208496.422 3  17305318.157 1
  26492334.539      -95354.655 2    -74293.270 1
 91  7 31  2 36  0.0100000  0  4 23 17 03 21
  23666712.080     4454679.175 3   3471192.523 2
  23768499.706    14831996.020 3  11557401.344 2
  24625710.068    22289646.433 3  17368551.923 1
  26491747.252      -98427.303 2    -76687.475 1
 91  7 31  2 36 15.0100000  0  4 23 17 03 21
  23672664.751     4485952.752 3   3495561.556 2
  23777603.205    14879828.561 3  11594673.459 2
  24641173.072    22370919.283 3  17431881.406 1
  26491173.436     -101449.549 2    -79042.398 1
 91  7 31  2 36 30.0100000  0  4 23 17 03 21
  23678634.226     4517315.645 3   3520000.197 2
  23786717.192    14927728.658 3  11631998.208 2
  24656662.147    22452315.086 3  17495306.671 1
  26490601.732     -104421.025 2    -81357.804 1
 91  7 31  2 36 45.0100000  0  4 23 17 03 21
  23684619.877     4548766.581 3   3544507.426 2
  23795844.686    14975695.303 4  11669374.818 2
  24672177.607    22533832.586 3  17558826.770 1
  26490052.522     -107342.662 2    -83634.350 1
 91  7 31  2 37  0.0100000  0  4 23 17 03 21
  23690618.424     4580305.982 3   3569083.588 2
  23804984.743    15023728.934 3  11706803.625 3
  24687713.152    22615471.960 3  17622441.808 1
  26489504.498     -110213.855 2    -85871.514 1
 91  7 31  2 37 15.0100000  0  4 23 17 03 21
  23696639.465     4611934.580 3   3593729.273 2
  23814138.307    15071830.762 3  11744285.562 2
  24703270.283    22697233.967 3  17686152.408 1
  26488966.664     -113033.583 2    -88068.801 1
 91  7 31  2 37 30.0100000  0  4 23 17 03 21
  23702674.588     4643651.109 3   3618443.454 2
  23823304.767    15119999.504 3  11781819.640 2
  24718852.297    22779117.090 3  17749957.415 1
  26488444.432     -115803.122 2    -90226.715 1
 91  7 31  2 37 45.0100000  0  4 23 17 03 21
  23708729.185     4675455.877 3   3643226.405 2
  23832482.919    15168235.533 3  11819406.176 2
  24734456.492    22861121.072 3  17813856.634 1
  26487917.994     -118522.143 2    -92345.418 1
 91  7 31  2 38  0.0100000  0  4 23 17 03 21
  23714793.991     4707348.092 4   3668077.488 2
  23841676.060    15216538.199 4  11857044.609 3
  24750084.680    22943245.452 3  17877849.634 1
  26487415.846     -121191.227 2    -94425.218 1
 91  7 31  2 38 15.0100000  0  4 23 17 03 21
  23720880.069     4739323.929 4   3692993.743 3
  23850879.374    15264904.002 4  11894732.247 3
  24765733.232    23025486.043 3  17941933.203 1
  26486917.293     -123813.945 2    -96468.786 1
 91  7 31  2 38 30.0100000  0  4 23 17 03 21
  23726981.450     4771385.786 4   3717977.024 2
  23860096.196    15313335.327 4  11932470.947 3
  24781406.390    23107845.288 3  18006109.192 1
  26486425.023     -126387.730 2    -98474.271 1
 91  7 31  2 38 45.0100000  0  4 23 17 03 21
  23733100.212     4803534.658 4   3743028.102 3
  23869324.412    15361833.394 4  11970261.649 2
  24797104.117    23190324.101 3  18070378.371 1
  26485947.463     -128911.290 2   -100440.606 1
 91  7 31  2 39  0.0100000  0  4 23 17 03 21
  23739232.166     4835770.765 4   3768147.151 3
  23878566.710    15410398.768 4  12008104.805 2
  24812818.945    23272922.304 3  18134740.577 1
  26485478.593     -131384.292 2   -102367.582 1
 91  7 31  2 39 15.0100000  0  4 23 17 03 21
  23745384.205     4868091.655 4   3793332.280 2
  23887821.608    15459028.910 4  12045998.409 2
  24828560.752    23355637.507 3  18199193.948 1
  26485016.912     -133809.233 2   -104257.041 1
 91  7 31  2 39 30.0100000  0  4 23 17 03 21
  23751550.048     4900493.760 4   3818580.695 3
  23897085.492    15507720.428 4  12083939.857 3
  24844323.237    23438465.906 3  18263735.547 1
  26484563.625     -136189.210 2   -106111.500 1
 91  7 31  2 39 45.0100000  0  4 23 17 03 21
  23757732.660     4932982.047 4   3843896.253 2
  23906365.570    15556478.572 4  12121933.212 3
  24860108.198    23521412.393 3  18328369.167 1
  26484117.825     -138519.131 2   -107927.011 1
 91  7 31  2 40  0.0100000  0  4 23 17 03 21
  23763932.670     4965558.637 4   3869280.613 2
  23915656.136    15605305.750 4  12159980.366 3
  24875911.464    23604478.826 3  18393096.233 1
  26483689.125     -140796.766 2   -109701.715 1
 91  7 31  2 40 15.0100000  0  4 23 17 03 21
  23770147.373     4998220.268 4   3894731.253 2
  23924961.098    15654198.832 4  12198078.874 3
  24891740.801    23687662.052 3  18457914.282 1
  26483264.614     -143025.103 2   -111437.990 1
 91  7 31  2 40 30.0100000  0  4 23 17 03 21
  23776378.252     5030966.621 3   3920247.894 2
  23934277.438    15703157.470 3  12236228.445 2
  24907593.538    23770961.271 2  18522822.733 1
  26482845.512     -145204.477 2   -113136.147 1
 91  7 31  2 40 45.0100000  0  4 23 17 03 21
  23782623.528     5063797.969 3   3945830.776 2
  23943606.080    15752182.191 3  12274429.532 2
  24923467.844    23854376.598 3  18587821.650 1
  26482442.586     -147334.553 2   -114795.922 1
 91  7 31  2 41  0.0100000  0  4 23 17 03 21
  23788888.889     5096714.043 3   3971479.693 2
  23952945.524    15801272.805 3  12312681.958 2
  24939362.846    23937907.688 3  18652910.817 1
  26482045.070     -149415.189 2   -116417.123 1
 91  7 31  2 41 15.0100000  0  4 23 17 03 21
  23795168.350     5129716.366 3   3997195.794 2
  23962303.238    15850430.965 3  12350987.023 2
  24955278.527    24021555.920 3  18718091.215 1
  26481658.635     -151444.763 2   -117998.506 1
 91  7 31  2 41 30.0100000  0  4 23 17 03 21
  23801467.286     5162805.994 3   4022979.928 2
  23971667.565    15899657.963 3  12389345.707 2
  24971223.873    24105322.176 2  18783363.642 1
  26481282.688     -153421.996 2   -119539.219 1
 91  7 31  2 41 45.0100000  0  4 23 17 03 21
  23807779.413     5195982.200 3   4048831.537 2
  23981050.757    15948953.163 3  12427757.562 2
  24987183.929    24189205.857 3  18848727.514 1
  26480915.745     -155347.470 2   -121039.502 1
 91  7 31  2 42  0.0100000  0  4 23 17 03 21
  23814111.033     5229244.956 3   4074750.576 2
  23990442.656    15998316.833 3  12466222.752 2
  25003168.259    24273206.507 3  18914182.523 1
  26480561.383     -157221.016 2   -122499.324 1
 91  7 31  2 42 15.0100000  0  4 23 17 03 21
  23820452.843     5262590.989 3   4100734.509 2
  23999849.545    16047745.697 3  12504738.746 2
  25019175.693    24357320.647 3  18979725.950 1
  26480212.728     -159046.007 2   -123921.312 1
 91  7 31  2 42 30.0100000  0  4 23 17 03 21
  23826816.536     5296023.947 3   4126786.183 2
  24009266.328    16097243.950 3  12543308.800 2
  25035198.395    24441551.909 2  19045360.689 1
  26479874.263     -160818.309 2   -125302.303 1
 91  7 31  2 42 45.0100000  0  4 23 17 03 21
  23833194.922     5329545.233 3   4152906.676 2
  24018700.195    16146812.807 3  12581933.908 2
  25051253.171    24525901.467 3  19111087.557 1
  26479548.084     -162536.469 2   -126641.056 1
 91  7 31  2 43  0.0100000  0  4 23 17 03 21
  23839589.188     5363151.439 3   4179093.339 2
  24028145.160    16196449.000 3  12620611.475 2
  25067326.253    24610365.793 2  19176903.851 1
  26479234.503     -164203.764 2   -127940.198 1
 91  7 31  2 43 15.0110000  0  4 23 17 03 21
  23846004.153     5396842.701 3   4205346.301 2
  24037603.618    16246153.967 3  12659342.606 2
  25083424.815    24694948.254 3  19242812.302 1
  26478923.020     -165822.218 2   -129201.225 1
 91  7 31  2 43 30.0110000  0  4 23 17 03 21
  23852427.805     5430617.026 3   4231663.962 2
  24047076.748    16295923.834 3  12698124.313 2
  25099540.143    24779639.995 3  19308805.872 1
  26478622.632     -167388.882 2   -130421.926 1
 91  7 31  2 43 45.0110000  0  4 23 17 03 21
  23858872.450     5464472.423 3   4258044.810 2
  24056556.491    16345757.762 3  12736955.945 2
  25115671.090    24864442.060 2  19374885.374 1
  26478336.623     -168907.993 2   -131605.584 1
 91  7 31  2 44  0.0110000  0  4 23 17 03 21
  23865329.676     5498413.391 4   4284492.332 3
  24066055.116    16395660.365 3  12775841.101 2
  25131835.296    24949358.882 3  19441054.268 1
  26478057.821     -170374.946 2   -132748.552 1
 91  7 31  2 44 15.0110000  0  4 23 17 03 21
  23871804.597     5532436.970 4   4311004.220 3
  24075565.432    16445629.221 4  12814777.868 2
  25148018.384    25034387.386 3  19507310.238 1
  26477783.207     -171792.358 2   -133853.030 1
 91  7 31  2 44 30.0110000  0  4 23 17 03 21
  23878296.008     5566542.201 4   4337579.747 3
  24085084.439    16495663.326 4  12853765.495 3
  25164221.277    25119526.600 3  19573652.432 1
  26477522.989     -173161.020 2   -134919.438 1
 91  7 31  2 44 45.0110000  0  4 23 17 03 21
  23884801.502     5600729.737 3   4364219.394 2
  24094617.842    16545763.496 3  12892804.587 2
  25180435.845    25204776.620 2  19640080.973 1
  26477278.669     -174480.061 2   -135947.134 1
 91  7 31  2 45  0.0110000  0  4 23 17 03 21
  23891322.578     5635000.868 4   4390924.193 2
  24104165.327    16595930.980 3  12931896.142 2
  25196681.300    25290138.738 3  19706596.894 1
  26477026.234     -175748.227 2   -136935.254 1
 91  7 31  2 45 15.0110000  0  4 23 17 03 21
  23897858.959     5669355.438 3   4417694.000 2
  24113725.411    16646165.905 3  12971040.234 2
  25212951.342    25375612.744 2  19773200.010 1
  26476802.889     -176965.325 2   -137883.589 1
 91  7 31  2 45 30.0110000  0  4 23 17 03 21
  23904414.517     5703792.953 4   4444528.445 3
  24123296.297    16696468.114 4  13010236.776 2
  25229231.261    25461198.071 3  19839889.843 1
  26476580.137     -178131.668 2   -138792.340 1
 91  7 31  2 45 45.0110000  0  4 23 17 03 21
  23910982.377     5738312.237 4   4471426.595 3
  24132883.360    16746836.473 4  13049484.848 2
  25245542.067    25546893.133 3  19906665.182 1
  26476365.202     -179248.406 2   -139662.462 1
 91  7 31  2 46  0.0110000  0  4 23 17 03 21
  23917565.210     5772914.739 4   4498389.595 3
  24142480.910    16797272.533 4  13088785.674 3
  25261867.566    25632699.213 3  19973527.045 1
  26476163.129     -180314.102 2   -140492.824 1
 91  7 31  2 46 15.0110000  0  4 23 17 03 21
  23924167.535     5807598.379 4   4525415.820 3
  24152089.855    16847774.427 4  13128137.800 2
  25278219.449    25718614.248 3  20040473.787 1
  26475965.871     -181330.490 2   -141284.755 1
 91  7 31  2 46 30.0110000  0  4 23 17 03 21
  23930780.365     5842364.496 4   4552506.315 3
  24161712.603    16898343.822 4  13167542.524 3
  25294593.512    25804639.305 3  20107506.249 1
  26475789.293     -182296.011 2   -142037.028 1
 91  7 31  2 46 45.0110000  0  4 23 17 03 21
  23937413.577     5877212.779 4   4579660.837 2
  24171351.230    16948980.451 4  13206999.637 2
  25310982.879    25890774.047 3  20174624.217 1
  26475613.918     -183210.734 2   -142749.715 1
 91  7 31  2 47  0.0110000  0  4 23 17 03 21
  23944060.277     5912144.864 4   4606880.660 3
  24180997.641    16999685.953 4  13246510.431 2
  25327393.203    25977019.658 3  20241828.553 1
  26475455.627     -184073.007 2   -143421.544 1
 91  7 31  2 47 15.0110000  0  4 23 17 03 21
  23950723.451     5947158.967 4   4634164.383 3
  24190658.151    17050458.949 4  13286073.809 3
  25343826.335    26063374.513 3  20309118.044 1
  26475297.039     -184884.234 2   -144053.619 1
 91  7 31  2 47 30.0110000  0  4 23 17 03 21
  23957403.133     5982254.538 4   4661511.589 2
  24200333.355    17101299.007 4  13325689.438 3
  25360278.051    26149837.590 3  20376491.818 1
  26475148.032     -185644.998 2   -144646.318 1
 91  7 31  2 47 45.0110000  0  4 23 17 03 21
  23964097.193     6017434.785 4   4688924.778 2
  24210023.251    17152209.236 3  13365359.749 2
  25376754.930    26236411.901 2  20443952.301 1
  26475017.330     -186352.086 2   -145197.245 1
 91  7 31  2 48  0.0110000  0  4 23 17 03 21
  23970806.558     6052701.337 3   4716405.212 2
  24219723.635    17203191.817 3  13405086.437 2
  25393248.911    26323099.185 2  20511500.790 1
  26474889.612     -187003.502 2   -145704.800 1
 91  7 31  2 48 15.0110000  0  4 23 17 03 21
  23977537.194     6088049.244 4   4743949.054 3
  24229437.212    17254242.049 4  13444865.840 2
  25409768.387    26409894.400 3  20579133.415 1
  26474777.494     -187603.755 2   -146172.414 1
 91  7 31  2 48 30.0110000  0  4 23 17 03 21
  23984278.632     6123479.620 4   4771557.151 3
  24239164.871    17305360.813 4  13484698.654 2
  25426302.538    26496798.241 2  20646850.630 1
  26474668.361     -188151.902 2   -146599.496 1
 91  7 31  2 48 45.0110000  0  4 23 17 03 21
  23991034.152     6158994.973 4   4799231.459 3
  24248905.425    17356551.034 4  13524587.143 2
  25442865.778    26583813.047 2  20714654.331 1
  26474576.031     -188645.161 2   -146983.775 1
 91  7 31  2 49  0.0110000  0  4 23 17 03 21
  23997808.571     6194593.544 4   4826970.615 3
  24258660.673    17407811.278 3  13564530.195 2
  25459439.803    26670937.027 2  20782543.140 1
  26474495.691     -189085.004 2   -147326.449 1
 91  7 31  2 49 15.0110000  0  4 23 17 03 21
  24004592.866     6230269.371 4   4854769.968 3
  24268430.317    17459135.646 4  13604523.208 3
  25476042.307    26758164.126 3  20850512.272 1
  26474418.037     -189477.267 2   -147632.041 1
 91  7 31  2 49 30.0110000  0  4 23 17 03 21
  24011402.657     6266026.797 4   4882632.901 3
  24278207.743    17510528.413 4  13644569.523 2
  25492662.505    26845498.204 3  20918564.758 1
  26474355.077     -189817.574 2   -147897.131 1
 91  7 31  2 49 45.0110000  0  4 23 17 03 21
  24018222.027     6301870.014 4   4910562.686 3
  24287998.973    17561994.075 3  13684672.639 2
  25509296.785    26932943.264 2  20986703.743 1
  26474303.825     -190101.569 2   -148118.389 1
 91  7 31  2 50  0.0110000  0  4 23 17 03 21
  24025060.000     6337794.580 4   4938555.866 3
  24297806.676    17613528.493 4  13724829.331 2
  25525961.639    27020494.926 3  21054925.754 1
  26474254.651     -190333.405 2   -148298.987 1
 91  7 31  2 50 15.0110000  0  4 23 17 03 21
  24031911.461     6373801.007 4   4966612.830 3
  24307624.274    17665132.067 3  13765039.917 2
  25542642.389    27108153.493 2  21123231.100 1
  26474225.579     -190512.498 2   -148438.446 1
 91  7 31  2 50 30.0110000  0  4 23 17 03 21
  24038778.192     6409889.101 4   4994733.428 2
  24317457.768    17716804.891 3  13805304.460 2
  25559339.037    27195918.631 2  21191619.435 1
  26474202.195     -190638.806 2   -148536.797 1
 91  7 31  2 50 45.0110000  0  4 23 17 03 21
  24045659.930     6446059.028 4   5022917.796 2
  24327308.363    17768547.508 4  13845623.386 2
  25576062.959    27283790.034 2  21260090.643 1
  26474185.112     -190712.076 2   -148593.818 1
 91  7 31  2 51  0.0110000  0  4 23 17 03 21
  24052559.955     6482309.176 4   5051164.669 3
  24337166.131    17820358.298 4  13885995.432 2
  25592800.981    27371766.226 2  21328643.466 1
  26474178.812     -190733.684 2   -148610.556 2
 91  7 31  2 51 15.0110000  0  4 23 17 03 21
  24059471.969     6518640.029 4   5079474.434 3
  24347036.794    17872238.082 4  13926421.240 2
  25609569.558    27459847.495 3  21397278.222 1
  26474193.505     -190702.915 2   -148586.555 1
 91  7 31  2 51 30.0110000  0  4 23 17 03 21
  24066399.880     6555053.710 4   5107848.737 3
  24356923.948    17924188.962 4  13966902.449 2
  25626350.752    27548035.421 2  21465996.049 1
  26474200.695     -190617.846 2   -148520.199 1
 91  7 31  2 51 45.0110000  0  4 23 17 03 21
  24073346.375     6591551.985 3   5136288.952 3
  24366823.998    17976212.723 4  14007440.451 2
  25643149.623    27636331.937 2  21534798.464 1
  26474234.269     -190476.286 2   -148409.832 1
 91  7 31  2 52  0.0110000  0  4 23 17 03 21
  24080308.750     6628129.142 4   5164790.633 3
  24376735.739    18028304.120 4  14048031.153 2
  25659973.064    27724731.087 2  21603680.900 1
  26474267.250     -190283.671 2   -148259.729 1
 91  7 31  2 52 15.0110000  0  4 23 17 03 21
  24087281.631     6664787.112 4   5193355.300 3
  24386661.859    18080465.189 4  14088676.148 2
  25676815.403    27813234.811 2  21672644.782 1
  26474319.705     -190038.019 2   -148068.208 1
 91  7 31  2 52 30.0110000  0  4 23 17 03 21
  24094273.689     6701526.205 4   5221983.169 3
  24396602.689    18132696.405 4  14129375.800 2
  25693676.345    27901842.966 2  21741690.080 1
  26474372.771     -189738.815 2   -147835.048 1
 91  7 31  2 52 45.0110000  0  4 23 17 03 21
  24101281.923     6738345.110 4   5250673.226 3
  24406552.193    18184996.717 4  14170129.292 3
  25710558.244    27990554.263 2  21810815.728 1
  26474435.435     -189387.171 2   -147560.968 1
 91  7 31  2 53  0.0110000  0  4 23 17 03 21
  24108302.774     6775247.227 3   5279428.132 3
  24416518.798    18237369.545 4  14210939.289 2
  25727459.652    28079371.688 2  21880024.065 1
  26474518.166     -188979.669 2   -147243.364 1
 91  7 31  2 53 15.0110000  0  4 23 17 03 21
  24115341.895     6812227.653 4   5308244.057 3
  24426497.687    18289810.197 3  14251802.140 2
  25744382.332    28168290.192 2  21949311.196 1
  26474604.214     -188520.888 2   -146885.847 1
 91  7 31  2 53 30.0120000  0  4 23 17 03 21
  24122396.916     6849294.351 4   5337127.193 3
  24436493.367    18342328.071 4  14292725.167 2
  25761323.914    28257321.179 2  22018685.966 1
  26474695.953     -188005.007 2   -146483.813 1
 91  7 31  2 53 45.0120000  0  4 23 17 03 21
  24129461.515     6886438.965 3   5366071.056 3
  24446501.032    18394912.581 4  14333700.110 2
  25778283.170    28346448.906 2  22088136.056 1
  26474805.976     -187435.533 2   -146040.025 1
 91  7 31  2 54  0.0120000  0  4 23 17 03 21
  24136545.623     6923661.527 3   5395075.659 3
  24456518.609    18447565.083 4  14374728.040 2
  25795262.808    28435677.014 2  22157664.449 1
  26474928.581     -186814.768 2   -145556.251 1
 91  7 31  2 54 15.0120000  0  4 23 17 03 21
  24143642.312     6960959.425 3   5424138.954 3
  24466550.861    18500283.329 4  14415807.194 2
  25812259.250    28525002.522 2  22227268.691 1
  26475049.110     -186145.007 2   -145034.290 1
 91  7 31  2 54 30.0120000  0  4 23 17 03 21
  24150758.773     6998341.336 4   5453267.721 3
  24476598.103    18553076.119 4  14456944.435 2
  25829278.761    28614434.050 2  22296955.552 1
  26475193.598     -185417.449 2   -144467.308 1
 91  7 31  2 54 45.0120000  0  4 23 17 03 21
  24157886.646     7035801.285 4   5482457.299 3
  24486657.037    18605937.682 4  14498135.268 2
  25846317.468    28703965.301 2  22366720.104 1
  26475341.401     -184637.909 2   -143859.865 1
 91  7 31  2 55  0.0120000  0  4 23 17 03 21
  24165031.602     7073334.438 4   5511703.918 3
  24496729.459    18658863.179 4  14539375.924 2
  25863372.351    28793591.259 2  22436558.514 1
  26475497.598     -183811.145 2   -143215.564 1
 91  7 31  2 55 15.0120000  0  4 23 17 03 21
  24172187.937     7110947.254 4   5541012.612 3
  24506813.295    18711859.253 4  14580671.567 2
  25880444.039    28883318.363 2  22506475.652 1
  26475663.986     -182930.396 2   -142529.204 1
 91  7 31  2 55 30.0120000  0  4 23 17 03 21
  24179358.982     7148637.601 4   5570381.720 3
  24516912.102    18764923.963 4  14622020.715 3
  25897535.812    28973144.043 2  22576469.679 1
  26475841.158     -181997.708 2   -141802.404 1
 91  7 31  2 55 45.0120000  0  4 23 17 03 21
  24186546.499     7186409.019 4   5599814.002 3
  24527020.490    18818060.925 4  14663426.128 2
  25914649.153    29063071.725 2  22646543.178 1
  26476028.835     -181009.439 2   -141032.297 1
 91  7 31  2 56  0.0120000  0  4 23 17 03 21
  24193751.712     7224260.641 4   5629308.778 3
  24537148.090    18871269.595 4  14704887.430 2
  25931786.802    29153100.339 2  22716695.329 1
  26476227.296     -179966.211 2   -140219.316 1
 91  7 31  2 56 15.0120000  0  4 23 17 03 21
  24200967.726     7262189.382 4   5658863.644 3
  24547284.974    18924547.225 4  14746402.477 2
  25948932.828    29243226.795 2  22786923.685 1
  26476430.242     -178870.859 2   -139365.752 1
 91  7 31  2 56 30.0120000  0  4 23 17 03 21
  24208198.415     7300195.572 4   5688478.865 3
  24557436.237    18977894.298 3  14787971.620 2
  25966104.034    29333451.268 2  22857228.433 1
  26476657.200     -177722.781 2   -138471.102 1
 91  7 31  2 56 45.0120000  0  4 23 17 03 21
  24215445.892     7338278.576 3   5718153.940 3
  24567601.303    19031310.124 3  14829594.347 2
  25983288.136    29423772.815 2  22927608.785 1
  26476888.939     -176522.653 2   -137535.930 1
 91  7 31  2 57  0.0120000  0  4 23 17 03 21
  24222706.561     7376438.573 3   5747889.014 3
  24577781.062    19084794.872 4  14871270.785 2
  26000495.639    29514191.384 2  22998064.782 1
  26477124.272     -175270.140 2   -136559.896 1
 91  7 31  2 57 15.0120000  0  4 23 17 03 21
  24229982.238     7414676.472 3   5777684.781 3
  24587969.808    19138349.801 3  14913001.895 2
  26017727.397    29604707.384 2  23068596.660 1
  26477371.891     -173964.320 2   -135542.363 1
 91  7 31  2 57 30.0120000  0  4 23 17 03 21
  24237274.980     7452990.222 3   5807539.654 3
  24598174.433    19191973.244 4  14954786.408 2
  26034957.376    29695318.887 2  23139202.993 1
  26477627.327     -172606.810 2   -134484.535 1
 91  7 31  2 57 45.0120000  0  4 23 17 03 21
  24244579.135     7491381.240 4   5837454.742 3
  24608392.269    19245666.568 4  14996625.368 2
  26052225.413    29786027.148 2  23209884.747 1
  26477895.939     -171196.137 2   -133385.260 1
 91  7 31  2 58  0.0120000  0  4 23 17 03 21
  24251899.467     7529847.957 4   5867428.809 3
  24618622.686    19299428.495 3  15038517.786 2
  26069506.364    29876830.337 2  23280640.463 1
  26478174.147     -169733.625 2   -132245.592 1
 91  7 31  2 58 15.0120000  0  4 23 17 03 21
  24259232.677     7568388.537 3   5897460.439 3
  24628867.481    19353257.465 3  15080462.443 2
  26086799.285    29967726.531 2  23351468.612 1
  26478465.531     -168220.914 2   -131066.850 1
 91  7 31  2 58 30.0120000  0  4 23 17 03 21
  24266578.503     7607004.948 3   5927551.157 3
  24639123.987    19407155.719 4  15122461.078 2
  26104115.590    30058717.559 2  23422370.674 1
  26478760.230     -166655.936 2   -129847.326 1
 91  7 31  2 58 45.0120000  0  4 23 17 03 21
  24273945.897     7645699.776 3   5957702.976 3
  24649393.981    19461125.750 4  15164515.650 2
  26121448.996    30149805.572 2  23493348.302 1
  26479069.029     -165036.045 2   -128585.042 1
 91  7 31  2 59  0.0120000  0  4 23 17 03 21
  24281323.483     7684475.222 3   5987917.615 3
  24659678.354    19515170.023 3  15206628.072 2
  26138801.283    30240992.774 2  23564403.237 1
  26479387.095     -163358.734 2   -127277.982 1
 91  7 31  2 59 15.0120000  0  4 23 17 03 21
  24288716.669     7723325.766 3   6018190.770 3
  24669976.233    19569283.132 3  15248794.143 2
  26156174.563    30332273.123 2  23635530.710 1
  26479717.165     -161629.570 2   -125930.556 1
 91  7 31  2 59 30.0120000  0  4 23 17 03 21
  24296123.938     7762254.928 3   6048525.192 3
  24680283.693    19623468.911 3  15291016.822 2
  26173560.128    30423650.236 2  23706733.618 1
  26480057.445     -159844.530 2   -124539.566 1
 91  7 31  2 59 45.0120000  0  4 23 17 03 21
  24303547.696     7801258.449 3   6078917.543 3
  24690609.755    19677723.144 4  15333292.846 2
  26190963.666    30515119.636 2  23778008.449 1
  26480406.397     -158007.862 2   -123108.397 1
 91  7 31  3  0  0.0120000  0  4 23 17 03 21
  24310983.164     7840337.031 3   6109368.396 3
  24700945.990    19732046.693 3  15375622.892 2
  26208382.212    30606681.683 2  23849355.476 1
  26480767.040     -156118.860 2   -121636.424 1
 91  7 31  3  0 15.0120000  0  4 23 17 03 21
  24318433.605     7879492.080 3   6139878.833 3
  24711296.325    19786441.214 3  15418008.236 2
  26225830.440    30698337.839 2  23920775.798 1
  26481133.094     -154175.605 2   -120122.113 1
 91  7 31  3  0 30.0120000  0  4 23 17 03 21
  24325900.535     7918724.649 3   6170449.667 3
  24721663.150    19840907.955 3  15460449.846 2
  26243296.049    30790088.891 2  23992270.087 1
  26481515.934     -152176.958 2   -118564.711 1
 91  7 31  3  0 45.0120000  0  4 23 17 03 21
  24333377.954     7958032.767 3   6201079.370 3
  24732039.259    19895445.205 3  15502946.414 2
  26260767.957    30881932.411 2  24063836.417 1
  26481908.651     -150124.892 2   -116965.655 1
 91  7 31  3  1  0.0120000  0  4 23 17 03 21
  24340873.067     7997417.027 3   6231768.421 3
  24742431.265    19950053.492 3  15545498.333 2
  26278259.043    30973869.078 2  24135475.326 1
  26482310.669     -148018.504 2   -115324.311 1
 91  7 31  3  1 15.0120000  0  4 23 17 03 21
  24348382.558     8036876.322 3   6262515.924 3
  24752840.372    20004731.896 3  15588104.875 2
  26295771.122    31065897.430 2  24207185.624 1
  26482715.392     -145858.924 2   -113641.457 1
 91  7 31  3  1 30.0120000  0  4 23 17 03 21
  24355906.150     8076411.672 3   6293322.692 3
  24763254.261    20059481.768 3  15630767.114 2
  26313301.489    31158018.437 2  24278968.220 1
  26483145.296     -143644.864 2   -111916.164 1
 91  7 31  3  1 45.0120000  0  4 23 17 03 21
  24363444.138     8116020.493 3   6324186.715 3
  24773686.734    20114300.600 3  15673483.082 2
  26330847.142    31250229.116 2  24350820.666 1
  26483571.604     -141378.807 2   -110150.349 1
 91  7 31  3  2  0.0120000  0  4 23 17 03 21
  24370995.912     8155703.989 3   6355108.933 3
  24784132.696    20169189.909 3  15716253.970 2
  26348418.569    31342530.783 2  24422743.988 1
  26484014.107     -139059.257 2   -108342.922 1
 91  7 31  3  2 15.0120000  0  4 23 17 03 21
  24378562.378     8195464.020 3   6386090.775 3
  24794592.164    20224151.719 3  15759081.362 2
  26366000.204    31434924.627 2  24494739.148 1
  26484468.580     -136684.320 2   -106492.264 1
 91  7 31  3  2 30.0120000  0  4 23 17 03 21
  24386142.631     8235300.113 3   6417131.905 3
  24805063.918    20279185.349 3  15801964.709 2
  26383600.406    31527410.213 2  24566805.780 1
  26484926.963     -134254.427 2   -104598.839 1
 91  7 31  3  2 45.0120000  0  4 23 17 03 21
  24393735.168     8275210.502 3   6448230.913 3
  24815553.942    20334289.633 3  15844903.104 2
  26401219.821    31619985.657 2  24638942.488 1
  26485400.946     -131770.957 2   -102663.570 1
 91  7 31  3  3  0.0120000  0  4 23 17 03 21
  24401344.493     8315194.543 3   6479387.307 3
  24826051.783    20389463.970 3  15887896.098 2
  26418844.908    31712649.993 2  24711148.424 1
  26485886.306     -129234.537 2   -100687.113 1
 91  7 31  3  3 15.0120000  0  4 23 17 03 21
  24408967.027     8355252.766 3   6510601.525 3
  24836564.911    20444709.068 3  15930944.213 2
  26436500.584    31805403.637 2  24783423.909 1
  26486369.572     -126644.454 2    -98668.840 1
 91  7 31  3  3 30.0120000  0  4 23 17 03 21
  24416606.628     8395385.244 3   6541873.589 3
  24847089.120    20500025.350 3  15974047.806 2
  26454167.063    31898246.142 2  24855768.657 1
  26486875.315     -124000.500 2    -96608.587 1
 91  7 31  3  3 45.0120000  0  4 23 17 03 21
  24424257.047     8435591.700 3   6573203.306 3
  24857629.226    20555412.581 3  16017206.694 2
  26471852.719    31991177.375 2  24928182.536 1
  26487392.155     -121302.792 3    -94506.422 1
 91  7 31  3  4  0.0130000  0  4 23 17 03 21
  24431922.129     8475875.307 3   6604593.141 2
  24868183.418    20610875.065 3  16060424.208 2
  26489554.258    32084203.679 2  25000670.558 1
  26487915.298     -118550.432 2    -92361.710 1
 91  7 31  3  4 15.0130000  0  4 23 17 03 21
  24439601.010     8516231.046 3   6636039.183 3
  24878749.891    20666405.743 3  16103694.863 2
  26507269.300    32177312.688 2  25073222.969 1
  26488450.723     -115743.355 2    -90174.286 1
 91  7 31  3  4 30.0130000  0  4 23 17 03 21
  24447294.898     8556659.585 3   6667541.942 3
  24889331.075    20722006.786 3  16147020.356 2
  26525012.210    32270508.706 2  25145843.181 1
  26488996.043     -112882.891 2    -87945.317 2
 91  7 31  3  4 45.0130000  0  4 23 17 03 21
  24455001.054     8597162.491 3   6699102.654 3
  24899923.933    20777679.832 3  16190401.933 2
  26542758.436    32363793.006 2  25218532.168 1
  26489552.164     -109967.479 2    -85673.574 1
 91  7 31  3  5  0.0130000  0  4 23 17 03 21
  24462724.311     8637739.301 3   6730720.963 3
  24910533.596    20833424.722 3  16233839.507 2
  26560527.731    32457164.841 2  25291289.447 1
  26490114.567     -106997.470 2    -83359.225 1
 91  7 31  3  5 15.0130000  0  4 23 17 03 21
  24470460.760     8678391.352 3   6762397.889 3
  24921152.245    20889242.892 3  16277334.192 2
  26578307.828    32550625.106 2  25364115.595 1
  26490689.272     -103971.452 3    -81001.234 1
 91  7 31  3  5 30.0130000  0  4 23 17 03 21
  24478209.180     8719115.682 3   6794131.155 2
  24931786.478    20945131.595 3  16320883.836 2
  26596110.103    32644171.050 2  25437008.491 1
  26491275.669     -100892.074 2    -78601.688 1
 91  7 31  3  5 45.0130000  0  4 23 17 03 21
  24485973.515     8759914.705 3   6825922.609 3
  24942436.904    21001093.296 3  16364490.355 2
  26613926.758    32737804.508 2  25509969.549 1
  26491872.851      -97756.974 2    -76158.692 1
 91  7 31  3  6  0.0130000  0  4 23 17 03 21
  24493750.135     8800786.802 3   6857770.999 2
  24953099.022    21057126.586 3  16408152.649 2
  26631765.313    32831523.951 2  25582997.654 1
  26492476.035      -94567.328 2    -73673.219 1
 91  7 31  3  6 15.0130000  0  4 23 17 03 21
  24501542.931     8841731.534 3   6889675.995 3
  24963774.035    21113231.206 3  16451870.527 2
  26649617.060    32925328.664 2  25656092.185 1
  26493094.209      -91323.488 3    -71145.536 1
 91  7 31  3  6 30.0130000  0  4 23 17 03 21
  24509347.139     8882749.569 3   6921638.109 2
  24974469.728    21169407.872 3  16495644.549 2
  26667481.686    33019219.130 2  25729253.530 1
  26493721.980      -88024.682 2    -68574.975 1
 91  7 31  3  6 45.0130000  0  4 23 17 03 21
  24517169.915     8923841.147 3   6953657.524 3
  24985172.033    21225657.353 3  16539475.310 2
  26685362.209    33113195.327 2  25802481.682 1
  26494361.130      -84670.548 2    -65961.295 1
 91  7 31  3  7  0.0130000  0  4 23 17 03 21
  24525001.101     8965003.985 3   6985732.475 2
  24995885.717    21281977.006 3  16583360.757 2
  26703265.207    33207254.595 2  25875774.540 1
  26495014.082      -81263.299 2    -63306.281 1
 91  7 31  3  7 15.0130000  0  4 23 17 03 21
  24532848.464     9006240.295 3   7017864.678 3
  25006617.077    21338369.526 3  16627302.981 2
  26721178.711    33301398.846 2  25949133.633
  26495671.833      -77800.629 2    -60608.032 1
 91  7 31  3  7 30.0130000  0  4 23 17 03 21
  24540706.629     9047547.800 3   7050052.356 2
  25017366.446    21394833.105 3  16671300.571 2
  26739112.003    33395625.891 2  26022557.283 1
  26496338.867      -74284.290 3    -57867.995 1
 91  7 31  3  7 45.0130000  0  4 23 17 03 21
  24548583.971     9088926.589 3   7082295.573 2
  25028122.394    21451367.749 3  16715353.524 2
  26757047.982    33489935.525 2  26096045.350 1
  26497014.296      -70714.339 2    -55086.181 1
 91  7 31  3  8  0.0130000  0  4 23 17 03 21
  24556467.910     9130379.375 3   7114596.456 2
  25038894.832    21507976.250 3  16759464.038 2
  26775017.536    33584330.352 2  26169599.666 1
  26497709.512      -67087.710 2    -52260.159 1
 91  7 31  3  8 15.0130000  0  4 23 17 03 21
  24564371.934     9171905.326 3   7146954.345 2
  25049678.665    21564657.803 3  16803631.486 2
  26793000.299    33678808.995 2  26243219.365 1
  26498407.434      -63405.313 2    -49390.731 1
 91  7 31  3  8 30.0130000  0  4 23 17 03 21
  24572288.853     9213500.836 3   7179366.449 3
  25060479.582    21621409.306 3  16847853.439 2
  26810993.533    33773368.067 2  26316901.687 1
  26499118.548      -59670.247 3    -46480.231 1
 91  7 31  3  8 45.0130000  0  4 23 17 03 21
  24580217.464     9255166.097 3   7211832.898 3
  25071293.709    21678230.889 3  16892129.999 2
  26829003.868    33868007.194 2  26390646.377 1
  26499838.648      -55882.502 3    -43528.713 1
 91  7 31  3  9  0.0130000  0  4 23 17 03 21
  24588158.064     9296904.998 3   7244356.721 3
  25082120.417    21735126.465 3  16936464.213 2
  26847028.285    33962730.226 2  26464456.520 1
  26500569.830      -52037.913 3    -40532.881 1
 91  7 31  3  9 15.0130000  0  4 23 17 03 21
  24596113.374     9338714.194 3   7276935.338 3
  25092963.302    21792093.254 3  16980853.914 2
  26865064.708    34057533.662 2  26538329.255 1
  26501311.516      -48139.504 2    -37495.086 1
 91  7 31  3  9 30.0130000  0  4 23 17 03 21
  24604081.248     9380590.686 3   7309566.373 3
  25103814.598    21849128.048 3  17025296.612 2
  26883121.495    34152414.170 2  26612262.111 1
  26502061.597      -44190.296 2    -34417.722 1
 91  7 31  3  9 45.0130000  0  4 23 17 03 21
  24612065.630     9422536.370 3   7342251.331 3
  25114684.164    21906233.276 3  17069794.190 2
  26901196.885    34247373.442 2  26686256.301 1
  26502823.072      -40188.197 3    -31299.192 1
 91  7 31  3 10  0.0130000  0  4 23 17 03 21
  24620060.779     9464552.203 3   7374990.951 3
  25125561.827    21963409.862 3  17114347.377 2
  26919277.369    34342412.064 2  26760312.348 1
  26503600.444      -36132.207 2    -28138.605 1
 91  7 31  3 10 15.0130000  0  4 23 17 03 21
  24628070.935     9506638.938 3   7407785.819 3
  25136455.998    22020659.224 3  17158957.268 2
  26937380.033    34437530.941 2  26834430.951 1
  26504381.690      -32021.205 3    -24935.195 1
 91  7 31  3 10 30.0130000  0  4 23 17 03 21
  24636093.096     9548796.393 3   7440635.791 3
  25147365.438    22077980.934 3  17203623.539 2
  26955495.907    34532729.498 2  26908611.554 1
  26505171.958      -27855.332 3    -21689.016 1
 91  7 31  3 10 45.0130000  0  4 23 17 03 21
  24644129.026     9591021.703 3   7473538.646 3
  25158283.585    22135372.430 3  17248344.185 2
  26973622.844    34628004.572 2  26982851.870 1
  26505973.900      -23637.225 2    -18402.125 1
 91  7 31  3 11  0.0130000  0  4 23 17 03 21
  24652175.758     9633319.382 3   7506497.879 3
  25169223.616    22192838.212 3  17293122.705 2
  26991766.883    34723360.488 2  27057155.034 1
  26506790.239      -19362.363 2    -15071.025 1
 91  7 31  3 11 15.0130000  0  4 23 17 03 21
  24660237.776     9675684.492 3   7539509.652 3
  25180170.224    22250373.445 3  17337955.360 2
  27009928.615    34818792.083 2  27131517.234 1
  26507614.657      -15035.492 2    -11699.406 1
 91  7 31  3 11 30.0130000  0  4 23 17 03 21
  24668312.376     9718119.888 3   7572576.214 3
  25191130.950    22307981.235 3  17382844.552 2
  27028104.134    34914301.862 2  27205940.430 1
  26508444.485      -10653.519 2     -8284.819 1
 91  7 31  3 11 45.0130000  0  4 23 17 03 21
  24676401.389     9760626.646 3   7605698.367 2
  25202109.336    22365662.734 3  17427791.171 1
  27046292.548    35009890.951 2  27280425.344 1
  26509289.599       -6215.165 2     -4826.316 1
 91  7 31  3 12  0.0130000  0  4 23 17 03 21
  24684503.578     9803201.560 3   7638873.638 3
  25213098.838    22423415.040 3  17472792.970 2
  27064495.045    35105555.746 2  27354969.329 1
  26510142.810       -1723.539 3     -1326.319 1
 91  7 31  3 12 15.0130000  0  4 23 17 03 21
  24692616.864     9845847.863 3   7672104.525 2
  25224101.514    22481241.566 3  17517852.598 2
  27082717.033    35201299.442 2  27429574.719 1
  26511010.103        2824.751 2      2217.819 1
 91  7 31  3 12 30.0130000  0  4 23 17 03 21
  24700746.921     9888563.442 3   7705389.405 3
  25235122.792    22539140.317 3  17562968.521 2
  27100955.198    35297119.486 2  27504239.657 1
  26511887.605        7427.601 3      5804.527 1
 91  7 31  3 12 45.0130000  0  4 23 17 03 21
  24708889.297     9931348.819 3   7738728.663 3
  25246151.260    22597111.714 3  17608141.036 2
  27119199.366    35393016.212 2  27578964.360 1
  26512774.983       12085.697 3      9434.235 1
 91  7 31  3 13  0.0130000  0  4 23 17 03 21
  24717043.051     9974203.177 3   7772121.681 2
  25257194.404    22655155.547 3  17653370.000 2
  27137466.324    35488988.631 2  27653748.035 1
  26513669.272       16798.463 2     13106.560 1
 91  7 31  3 13 15.0130000  0  4 23 17 03 21
  24725210.887    10017128.438 3   7805569.934 3
  25268255.259    22713273.728 3  17698656.888 2
  27155744.677    35585038.375 2  27728591.926 1
  26514580.645       21567.920 2     16823.067 1
 91  7 31  3 13 30.0130000  0  4 23 17 03 21
  24733393.731    10060122.281 3   7839071.635 2
  25279330.790    22771464.346 3  17744000.226 2
  27174027.811    35681163.184 2  27803494.285 1
  26515496.502       26392.005 2     20582.134 1
 91  7 31  3 13 45.0130000  0  4 23 17 03 21
  24741588.859    10103184.129 3   7872626.327 2
  25290417.105    22829726.878 3  17789399.608 2
  27192341.832    35777362.131 2  27878454.448 1
  26516416.268       31270.213 2     24383.341 1
 91  7 31  3 14  0.0130000  0  4 23 17 03 21
  24749795.679    10146313.577 3   7906233.696 2
  25301517.817    22888061.199 3  17834854.926 2
  27210659.744    35873634.343 2  27953471.692 1
  26517359.417       36202.278 2     28226.567 1
 91  7 31  3 14 15.0140000  0  4 23 17 03 21
  24758014.787    10189516.329 3   7939898.178 2
  25312631.131    22946474.206 3  17880371.552 2
  27228992.056    35969989.168 2  28028553.247 1
  26518313.651       41191.716 2     32114.489 1
 91  7 31  3 14 30.0140000  0  4 23 17 03 21
  24766249.178    10232784.481 3   7973613.640 2
  25323759.432    23004955.734 3  17925941.587 2
  27247342.949    36066411.252 2  28103687.314 1
  26519269.399       46235.710 2     36044.871 1
 91  7 31  3 14 45.0140000  0  4 23 17 03 21
  24774497.966    10276121.275 3   8007382.566 2
  25334901.518    23063510.126 3  17971568.386 2
  27265712.148    36162906.929 2  28178878.674 1
  26520242.825       51334.959 2     40018.339 1
 91  7 31  3 15  0.0140000  0  4 23 17 03 21
  24782756.648    10319526.407 3   8041204.746 2
  25346060.094    23122137.335 3  18017251.919 2
  27284085.814    36259475.703 2  28254127.051 1
  26521223.440       56489.377 2     44034.818 1
 91  7 31  3 15 15.0140000  0  4 23 17 03 21
  24791028.226    10362997.988 3   8075078.713 2
  25357229.752    23180836.060 3  18062991.193 2
  27302463.406    36356115.729 2  28329430.926 1
  26522217.247       61697.380 2     48093.014 1
 91  7 31  3 15 30.0140000  0  4 23 17 03 21
  24799316.294    10406539.725 3   8109007.345 2
  25368415.010    23239610.134 3  18108789.168 2
  27320875.148    36452830.632 2  28404793.210 1
  26523216.761       66962.948 2     52196.128 1
 91  7 31  3 15 45.0140000  0  4 23 17 03 21
  24807615.146    10450147.162 3   8142987.173 2
  25379608.068    23298455.010 3  18154642.313 2
  27339295.301    36549615.440 2  28480209.918 1
  26524230.653       72281.654 3     56340.604 1
 91  7 31  3 16  0.0140000  0  4 23 17 03 21
  24815925.690    10493822.352 3   8177019.794 2
  25390824.806    23357372.997 3  18200552.438 2
  27357731.037    36646471.958 2  28555682.374 1
  26525251.159       77655.563 3     60528.087 1
 91  7 31  3 16 15.0140000  0  4 23 17 03 21
  24824251.835    10537566.113 3   8211105.853 3
  25402049.624    23416365.189 3  18246520.398 2
  27376169.478    36743400.951 2  28631211.397 1
  26526282.729       83085.761 3     64759.437 1
 91  7 31  3 16 30.0140000  0  4 23 17 03 21
  24832584.855    10581375.732 3   8245243.209 3
  25413288.838    23475428.859 3  18292544.047 2
  27394630.099    36840399.259 2  28706794.416 1
  26527328.712       88569.613 2     69032.609 1
 91  7 31  3 16 45.0140000  0  4 23 17 03 21
  24840935.883    10625251.431 3   8279432.076 2
  25424541.855    23534564.322 3  18338623.616 2
  27413104.208    36937466.949 2  28782431.527 1
  26528381.292       94107.493 2     73347.892 1
 91  7 31  3 17  0.0140000  0  4 23 17 03 21
  24849293.194    10669191.853 3   8313671.367 3
  25435808.362    23593770.415 3  18384758.232 2
  27431586.414    37034602.550 2  28858121.538 1
  26529441.358       99698.310 3     77704.395 1
 91  7 31  3 17 15.0140000  0  4 23 17 03 21
  24857671.201    10713197.423 3   8347961.417 3
  25447090.748    23653047.761 3  18430948.367 2
  27450082.999    37131806.237 2  28933864.559 1
  26530519.101      105342.586 3     82102.554 1
 91  7 31  3 17 30.0140000  0  4 23 17 03 21
  24866056.083    10757267.977 4   8382302.122 3
  25458384.825    23712396.368 3  18477194.033 2
  27468589.496    37229077.512 2  29009660.317 1
  26531604.958      111040.328 3     86542.364 1
 91  7 31  3 17 45.0140000  0  4 23 17 03 21
  24874456.268    10801403.992 4   8416693.819 3
  25469689.704    23771817.108 3  18523495.906 2
  27487115.171    37326416.729 2  29085509.067 1
  26532693.206      116792.132 3     91024.326 1
 91  7 31  3 18  0.0140000  0  4 23 17 03 21
  24882867.552    10845607.361 4   8451138.003 3
  25481013.761    23831311.724 3  18569855.352 2
  27505648.942    37423825.391 2  29161411.724 1
  26533803.022      122599.923 3     95549.899 1
 91  7 31  3 18 15.0140000  0  4 23 17 03 21
  24891291.715    10889877.214 4   8485633.996 3
  25492348.009    23890879.803 3  18616272.032 2
  27524199.501    37521302.572 2  29237367.914
  26534919.452      128463.119 3    100118.669 1
 91  7 31  3 18 30.0140000  0  4 23 17 03 21
  24899727.883    10934211.968 4   8520180.564 3
  25503696.654    23950519.789 3  18662744.740 2
  27542758.453    37618846.200 2  29313375.850 1
  26536043.683      134380.216 3    104729.423 1
 91  7 31  3 18 45.0140000  0  4 23 17 03 21
  24908177.523    10978612.407 4   8554778.307 3
  25515060.288    24010232.516 3  18709274.137 2
  27561335.676    37716457.068 2  29389436.226 1
  26537182.885      140352.259 3    109382.988 1
 91  7 31  3 19  0.0140000  0  4 23 17 03 21
  24916638.278    11023076.934 4   8589425.980 3
  25526436.224    24070016.739 3  18755859.251 2
  27579925.812    37814133.507 2  29465547.710 1
  26538328.998      146377.868 3    114078.303 2
 91  7 31  3 19 15.0140000  0  4 23 17 03 21
  24925112.209    11067606.232 4   8624124.145 3
  25537825.929    24129872.811 3  18802500.353 2
  27598528.232    37911875.419 2  29541710.049 1
  26539483.504      152457.591 3    118815.771 1
 91  7 31  3 19 30.0140000  0  4 23 17 03 21
  24933597.831    11112199.306 4   8658871.995 3
  25549229.140    24189800.468 3  18849197.218 2
  27617142.955    38009682.212 2  29617923.138 1
  26540650.889      158590.554 3    123594.729 1
 91  7 31  3 19 45.0140000  0  4 23 17 03 21
  24942096.052    11156855.772 4   8693669.238 3
  25560647.935    24249799.299 3  18895949.557 2
  27635762.756    38107552.868 2  29694185.931 1
  26541827.575      164776.569 3    128415.020 1
 91  7 31  3 20  0.0140000  0  4 23 17 03 21
  24950606.558    11201575.821 4   8728516.038 3
  25572079.625    24309869.879 3  18942757.800 2
  27654398.455    38205487.578 2  29770498.693 1
  26543016.859      171016.231 3    133277.127 1
 91  7 31  3 20 15.0140000  0  4 23 17 03 21
  24959127.552    11246361.590 4   8763414.038 3
  25583522.692    24370014.045 3  18989623.386 2
  27673046.455    38303487.939 2  29846862.544 1
  26544213.927      177311.657 3    138182.700 1
 91  7 31  3 20 30.0140000  0  4 23 17 03 21
  24967656.049    11291189.358 3   8798344.764 3
  25594978.970    24430208.410 3  19036528.083 2
  27691706.427    38401530.176 2  29923259.033
  26545419.981      183639.250 3    143113.310 1
 91  7 31  3 20 45.0140000  0  4 23 17 03 21
  24976200.740    11336076.953 4   8833322.112 3
  25606447.532    24490470.837 3  19083485.826 2
  27710371.511    38499631.859 2  29999701.776 1
  26546633.853      190017.047 3    148083.054 1
 91  7 31  3 21  0.0140000  0  4 23 17 03 21
  24984752.324    11381025.609 4   8868347.046 3
  25617925.378    24550802.840 3  19130497.756 2
  27729050.085    38597794.025 2  30076191.724 1
  26547857.899      196446.273 3    153092.875 1
 91  7 31  3 21 15.0140000  0  4 23 17 03 21
  24993318.880    11426039.565 4   8903422.842 3
  25629420.918    24611209.083 3  19177567.543 2
  27747748.726    38696020.825 2  30152731.962 1
  26549087.057      202931.578 3    158146.377 1
 91  7 31  3 21 30.0140000  0  4 23 17 03 21
  25001897.442    11471118.345 3   8938549.171 3
  25640929.354    24671688.961 3  19224694.732 2
  27766450.683    38794311.136 2  30229321.825 1
  26550331.188      209472.433 3    163243.169 1
 91  7 31  3 21 45.0140000  0  5 23 17 11 03 21
  25010489.196    11516261.380 3   8973725.565 3
  25652453.077    24732242.141 3  19271879.024 2
  29387984.630           0.190 2         0.287 1
  27785168.537    38892664.361 2  30305960.651 1
  26551586.714      216068.398 3    168382.926 1
 91  7 31  3 22  0.0140000  0  5 23 17 11 03 21
  25019090.548    11561466.899 4   9008950.648 3
  25663991.789    24792866.963 3  19319119.142 2
  29384376.326      -18942.373 2    -14760.105 1
  27803901.660    38991078.491 2  30382646.863 1
  26552855.449      222717.831 3    173564.329 1
 91  7 31  3 22 15.0140000  0  5 23 17 11 03 21
  25027704.185    11606735.706 3   9044225.040 3
  25675540.395    24853564.287 3  19366415.770 2
  29380780.604      -37866.938 2    -29506.462 1
  27822630.298    39089554.152 2  30459381.037 1
  26554129.856      229421.679 3    178788.131 1
 91  7 31  3 22 30.0140000  0  5 23 17 11 03 21
  25036330.404    11652067.343 4   9079548.380 3
  25687105.492    24914333.965 3  19413768.735 2
  29377177.710      -56773.590 2    -44238.811 1
  27841382.319    39188090.718 2  30536162.723 1
  26555415.972      236179.724 3    184054.152 1
 91  7 31  3 22 45.0140000  0  5 23 17 11 03 21
  25044971.333    11697460.608 4   9114919.769 3
  25698681.373    24975175.014 3  19461177.359 2
  29373586.490      -75663.063 2    -58957.880 1
  27860144.532    39286686.477 2  30612990.545 1
  26556711.372      242990.885 3    189361.606 1
 91  7 31  3 23  0.0140000  0  5 23 17 11 03 21
  25053621.842    11742926.828 4   9150347.985 3
  25710275.839    25036098.743 3  19508650.387 2
  29369999.476      -94523.507 2    -73654.296 1
  27878918.418    39385352.926 2  30689873.425 1
  26558017.573      249866.678 3    194719.387 1
 91  7 31  3 23 15.0140000  0  5 23 17 11 03 21
  25062286.748    11788445.627 4   9185817.184 2
  25721879.605    25097085.187 3  19556172.288 2
  29366408.256     -113374.544 2    -88343.330 1
  27897699.529    39484069.087 2  30766795.003 1
  26559335.151      256786.914 3    200111.827 1
 91  7 31  3 23 30.0140000  0  5 23 17 11 03 21
  25070959.139    11834028.167 4   9221336.038 3
  25733499.863    25158145.432 3  19603751.687 2
  29362825.133     -132204.837 2   -103016.263 1
  27916506.711    39582846.097 2  30843764.019 1
  26560665.329      263762.743 3    205547.565 1
 91  7 31  3 23 45.0140000  0  5 23 17 11 03 21
  25079642.629    11879674.343 4   9256904.490 3
  25745132.108    25219279.405 3  19651388.552 2
  29359245.325     -151013.940 2   -117672.686 1
  27935309.093    39681683.445 2  30920780.064 1
  26562000.009      270794.185 3    211026.641 1
 91  7 31  3 24  0.0140000  0  5 23 17 11 03 21
  25088341.109    11925383.794 4   9292522.250 2
  25756781.158    25280487.083 3  19699082.856 2
  29355676.285     -169801.683 2   -132312.444 1
  27954138.158    39780580.618 2  30997843.023 1
  26563350.569      277881.150 3    216548.979 1
 91  7 31  3 24 15.0140000  0  5 23 17 11 03 21
  25097049.780    11971151.587 4   9328185.466 3
  25768443.679    25341763.938 3  19746831.045 2
  29352094.662     -188572.462 2   -146938.985 1
  27972958.828    39879532.526 2  31074948.598 1
  26564711.930      285018.803 3    222110.799 1
 91  7 31  3 24 30.0140000  0  5 23 17 11 03 21
  25105775.238    12016980.798 4   9363896.534 3
  25780119.096    25403112.876 3  19794635.407 2
  29348523.842     -207322.772 2   -161549.525 1
  27991792.377    39978541.959 2  31152098.743 1
  26566075.089      292210.333 3    227714.630 1
 91  7 31  3 24 45.0150000  0  5 23 17 11 03 21
  25114503.386    12062872.617 3   9399656.394 2
  25791802.003    25464536.405 3  19842497.882 2
  29344967.403     -226055.180 2   -176146.163 1
  28010657.427    40077613.338 2  31229297.104 1
  26567456.224      299454.486 2    233359.450 1
 91  7 31  3 25  0.0150000  0  5 23 17 11 03 21
  25123249.243    12108826.080 3   9435464.285 2
  25803506.806    25526031.419 3  19890416.073 2
  29341408.868     -244761.597 2   -190722.609 1
  28029523.956    40176738.493 2  31306537.397 1
  26568846.972      306755.567 3    239048.640 1
 91  7 31  3 25 15.0150000  0  5 23 17 11 03 21
  25132011.870    12154858.089 3   9471333.382 3
  25815225.099    25587616.147 3  19938404.191 2
  29337855.131     -263428.865 2   -205268.383 1
  28048389.300    40275937.669 2  31383835.400 1
  26570249.097      314128.077 3    244793.458 1
 91  7 31  3 25 30.0150000  0  5 23 17 11 03 21
  25140782.297    12200964.938 3   9507260.797 2
  25826961.661    25649286.984 3  19986459.384 2
  29334311.882     -282060.312 2   -219786.583 1
  28067285.216    40375206.532 2  31461187.662 1
  26571664.117      321568.331 3    250591.122 2
 91  7 31  3 25 45.0150000  0  5 23 17 11 03 21
  25149569.808    12247135.541 4   9543237.898 3
  25838711.434    25711033.134 3  20034573.252 2
  29330763.537     -300666.507 2   -234284.790 1
  28086187.431    40474533.984 2  31538585.619 1
  26573091.126      329065.542 3    256433.130 2
 91  7 31  3 26  0.0150000  0  5 23 17 11 03 21
  25158367.527    12293366.786 4   9579262.242 3
  25850472.898    25772851.521 3  20082743.426 2
  29327227.180     -319249.964 2   -248765.377 1
  28105093.555    40573916.769 2  31616026.653 1
  26574530.438      336616.806 3    262317.263 1
 91  7 31  3 26 15.0150000  0  5 23 17 11 03 21
  25167177.218    12339660.010 4   9615334.883 3
  25862251.132    25834743.631 3  20130971.038 2
  29323693.529     -337808.867 2   -263226.738 1
  28124012.244    40673355.970 2  31693511.684 1
  26575976.031      344223.613 3    268244.673 1
 91  7 31  3 26 30.0150000  0  5 23 17 11 03 21
  25175998.023    12386013.271 3   9651454.308 2
  25874046.467    25896707.682 3  20179254.700 2
  29320175.757     -356344.517 2   -277670.128 1
  28142958.242    40772849.518 2  31771038.962 1
  26577433.630      351884.088 3    274213.892 1
 91  7 31  3 26 45.0150000  0  5 23 17 11 03 21
  25184828.113    12432423.306 4   9687617.984 3
  25885851.103    25958740.496 3  20227591.980 2
  29316647.515     -374859.906 2   -292097.709 1
  28161897.330    40872393.717 2  31848605.838 1
  26578906.499      359595.150 3    280222.570 1
 91  7 31  3 27  0.0150000  0  5 23 17 11 03 21
  25193668.986    12478889.426 4   9723825.350 3
  25897665.913    26020841.599 3  20275982.455 2
  29313133.041     -393355.325 2   -306509.660 1
  28180847.202    40971987.377 2  31926211.216 1
  26580380.588      367356.086 3    286270.072 2
 91  7 31  3 27 15.0150000  0  5 23 17 11 03 21
  25202526.350    12525415.078 4   9760079.112 3
  25909497.823    26083014.721 3  20324429.030 2
  29309618.270     -411826.784 2   -320902.879 1
  28199805.781    41071634.100 2  32003857.902 1
  26581865.462      375170.546 3    292359.294 2
 91  7 31  3 27 30.0150000  0  5 23 17 11 03 21
  25211389.717    12571996.433 4   9796376.274 3
  25921342.630    26145256.190 3  20372928.878 2
  29306106.205     -430277.315 2   -335279.913 1
  28218789.245    41171329.644 2  32081542.769
  26583362.621      383034.943 3    298487.461 1
 91  7 31  3 27 45.0150000  0  5 23 17 11 03 21
  25220263.572    12618635.069 4   9832718.060 3
  25933198.517    26207567.504 3  20421483.153 2
  29302593.842     -448705.016 2   -349639.192 1
  28237769.707    41271075.424 2  32159266.579 1
  26584868.174      390950.925 3    304655.769 1
 91  7 31  3 28  0.0150000  0  5 23 17 11 03 21
  25229147.617    12665329.808 4   9869103.583 3
  25945070.598    26269948.047 3  20470091.366 2
  29299094.358     -467110.387 2   -363981.006 1
  28256757.062    41370870.243 2  32237028.700 1
  26586383.934      398917.706 3    310863.672 2
 91  7 31  3 28 15.0150000  0  5 23 17 11 03 21
  25238045.466    12712082.980 4   9905534.631 3
  25956955.575    26332400.147 3  20518755.336 2
  29295593.984     -485490.750 2   -378303.349 1
  28275750.699    41470716.108 2  32314830.581 1
  26587908.682      406937.563 3    317112.923 2
 91  7 31  3 28 30.0150000  0  5 23 17 11 03 21
  25246953.505    12758892.353 4   9942009.463 3
  25968850.743    26394921.475 3  20567473.248 2
  29292109.786     -503848.052 2   -392607.671 1
  28294755.749    41570610.178 2  32392670.024 1
  26589445.715      415008.131 3    323401.716 1
 91  7 31  3 28 45.0150000  0  5 23 17 11 03 21
  25255872.923    12805759.808 4   9978529.568 3
  25980764.495    26457513.901 3  20616246.555 2
  29288615.712     -522179.669 2   -406892.018 1
  28313777.882    41670554.248 2  32470548.417 1
  26590992.345      423131.534 3    329731.666 1
 91  7 31  3 29  0.0150000  0  4 23 17 03 21
  25264801.937    12852688.859 4  10015097.652 3
  25992688.142    26520181.194 3  20665078.204 2
  28332803.907    41770551.762 2  32548468.458 1
  26592546.758      431311.517 3    336105.691 1
 91  7 31  3 29 15.0150000  0  4 23 17 03 21
  25273743.254    12899674.825 4  10051710.103 3
  26004627.371    26582918.850 3  20713964.698 2
  28351846.422    41870597.383 2  32626426.057 1
  26594116.475      439543.489 3    342520.244 2
 91  7 31  3 29 30.0150000  0  5 23 17 11 03 21
  25282692.947    12946719.345 4  10088368.179 3
  26016578.293    26645728.608 3  20762907.359 2
  29278183.535       43191.69212     33657.232 1
  28370895.237    41970692.752 2  32704422.332 1
  26595690.991      447829.248 3    348976.704 1
 91  7 31  3 29 45.0150000  0  5 23 17 11 03 21
  25291658.555    12993826.226 4  10125074.844 3
  26028545.704    26708614.503 3  20811909.350 2
  29274715.532       24974.747 2     19462.178 1
  28389954.539    42070841.587 2  32782460.278 1
  26597280.479      456172.672 3    355478.108 1
 91  7 31  3 30  0.0150000  0  5 23 17 11 03 21
  25300637.635    13040994.856 4  10161829.621 3
  26040524.528    26771576.170 3  20860970.392 2
  29271253.827        6789.684 2      5292.108 1
  28409022.235    42171042.789 2  32860539.075 1
  26598877.488      464573.442 3    362024.179 1
 91  7 31  3 30 15.0150000  0  5 23 17 11 03 21
  25309622.106    13088223.140 4  10198630.889 3
  26052524.607    26834611.711 3  20910088.983 2
  29267799.626      -11365.303 2     -8854.594 1
  28428101.640    42271294.209 2  32938656.972 1
  26600484.670      473029.373 3    368613.243 1
 91  7 31  3 30 30.0150000  0  5 23 17 11 03 21
  25318618.583    13135510.407 4  10235478.120 3
  26064531.596    26897720.217 3  20959264.452 2
  29264346.315      -29490.295 2    -22977.959 1
  28447176.822    42371594.826 2  33016813.342 1
  26602108.936      481539.907 3    375244.850 1
 91  7 31  3 30 45.0150000  0  5 23 17 11 03 21
  25327630.050    13182859.103 4  10272373.212 3
  26076551.480    26960904.492 3  21008498.947 2
  29260905.900      -47582.222 2    -37075.525 1
  28466285.596    42471946.831 2  33095009.480 1
  26603739.223      490107.813 3    381921.154 2
 91  7 31  3 31  0.0150000  0  5 23 17 11 03 21
  25336654.692    13230264.911 4  10309312.804 3
  26088591.450    27024160.503 3  21057789.335 2
  29257471.471      -65644.838 2    -51150.172 1
  28485380.287    42572345.673 2  33173242.268 1
  26605377.589      498728.931 3    388638.950 1
 91  7 31  3 31 15.0150000  0  5 23 17 11 03 21
  25345685.040    13277727.347 4  10346296.530 3
  26100643.704    27087487.996 3  21107135.436 2
  29254039.152      -83678.095 2    -65201.940 1
  28504503.440    42672790.703 2  33251510.981 1
  26607029.741      507402.865 3    395397.876 2
 91  7 31  3 31 30.0150000  0  5 23 17 11 03 21
  25354727.080    13325247.221 4  10383325.001 3
  26112706.150    27150887.586 3  21156537.717 2
  29250616.711     -101680.756 2    -79230.052 1
  28523621.811    42773282.491 2  33329816.175 1
  26608688.192      516130.518 3    402198.669 2
 91  7 31  3 31 45.0150000  0  5 23 17 11 03 21
  25363781.125    13372821.962 4  10420396.233 3
  26124781.788    27214356.951 3  21205994.355 2
  29247193.083     -119654.850 2    -93235.840 1
  28542762.955    42873818.149 2  33408155.615 1
  26610358.335      524909.464 3    409039.425 1
 91  7 31  3 32  0.0150000  0  5 23 17 11 03 21
  25372843.547    13420450.612 4  10457509.479 3
  26136875.417    27277895.242 3  21255504.701 2
  29243779.960     -137601.039 2   -107219.747 1
  28561903.506    42974396.484 2  33486528.230 1
  26612036.278      533738.711 3    415919.396 2
 91  7 31  3 32 15.0150000  0  5 23 17 11 03 21
  25381916.473    13468133.386 4  10494664.891 3
  26148977.736    27341502.807 3  21305069.037 2
  29240370.118     -155518.462 2   -121181.272 1
  28581051.542    43075017.380 2  33564934.032 1
  26613729.193      542618.836 3    422838.972 2
 91  7 31  3 32 30.0150000  0  5 23 17 11 03 21
  25391002.278    13515873.982 4  10531865.365 3
  26161094.452    27405183.643 3  21354690.467 2
  29236968.966     -173402.813 2   -135117.125 1
  28600202.598    43175684.300 2  33643375.688 1
  26615429.927      551553.594 3    429801.153 2
 91  7 31  3 32 45.0150000  0  5 23 17 11 03 21
  25400098.571    13563670.297 4  10569109.255 3
  26173230.049    27468935.711 3  21404367.387 2
  29233570.222     -191255.818 2   -149028.451 1
  28619362.029    43276394.971 2  33721851.388 1
  26617137.832      560541.058 3    436804.386 2
 91  7 31  3 33  0.0150000  0  5 23 17 11 03 21
  25409203.571    13611525.000 4  10606398.636 3
  26185371.352    27532761.799 3  21454102.000 2
  29230175.962     -209074.153 2   -162912.841 1
  28638533.764    43377151.888 2  33800363.244 1
  26618859.540      569584.054 3    443850.889 1
 91  7 31  3 33 15.0150000  0  5 23 17 11 03 21
  25418321.763    13659435.091 4  10643731.184 3
  26197531.519    27596658.998 3  21503892.029 2
  29226790.411     -226860.383 2   -176772.224 1
  28657714.781    43477951.730 2  33878908.464 1
  26620593.551      578679.599 3    450938.357 2
 91  7 31  3 33 30.0150000  0  5 23 17 11 03 21
  25427447.739    13707399.878 4  10681106.350 3
  26209704.895    27660626.728 3  21553737.001 2
  29223416.254     -244614.841 2   -190606.865 1
  28676906.286    43578793.425 2  33957486.249 1
  26622333.843      587827.054 3    458066.273 2
 91  7 31  3 33 45.0150000  0  5 23 17 11 03 21
  25436588.110    13755420.272 4  10718524.840 3
  26221895.059    27724665.948 3  21603637.693 2
  29220042.987     -262336.045 2   -204415.419 1
  28696111.298    43679677.765 2  34036097.331 1
  26624084.030      597027.576 3    465235.532 2
 91  7 31  3 34  0.0150000  0  5 23 17 11 03 21
  25445735.392    13803495.567 4  10755986.115 3
  26234093.913    27788776.219 3  21653593.746 2
  29216672.425     -280023.936 2   -218198.153 1
  28715314.198    43780603.739 2  34114740.947 1
  26625841.110      606280.666 3    472445.762 1
 91  7 31  3 34 15.0150000  0  5 23 17 11 03 21
  25454894.942    13851626.191 4  10793490.508 3
  26246302.958    27852958.132 3  21703605.610 2
  29213318.040     -297677.841 2   -231954.400 1
  28734521.600    43881571.635 2  34193417.079 1
  26627613.180      615586.805 3    479697.311 2
 91  7 31  3 34 30.0150000  0  5 23 17 11 03 21
  25464064.700    13899809.559 4  10831035.994 3
  26258534.793    27917209.156 3  21753671.342 2
  29209967.860     -315299.711 2   -245685.607 1
  28753748.495    43982578.452 2  34272123.563 1
  26629393.050      624943.511 3    486988.254 2
 91  7 31  3 34 45.0150000  0  5 23 17 11 03 21
  25473243.148    13948047.922 4  10868624.334 3
  26270772.630    27981531.650 3  21803792.761 2
  29206616.476     -332886.872 2   -259389.785 1
  28772978.984    44083626.200 2  34350861.996 1
  26631186.705      634353.185 3    494320.475 1
 91  7 31  3 35  0.0160000  0  5 23 17 11 03 21
  25482435.071    13996345.988 4  10906259.199 3
  26283026.944    28045931.610 3  21853974.525 2
  29203279.194     -350438.539 2   -273066.401 1
  28792214.257    44184722.938 2  34429638.478
  26632986.070      643818.060 3    501695.752 2
 91  7 31  3 35 15.0160000  0  5 23 17 11 03 21
  25491634.215    14044700.176 4  10943937.780 3
  26295297.152    28110403.559 3  21904212.410 2
  29199950.600     -367948.867 2   -286710.743 1
  28811466.943    44285857.751 2  34508444.796 1
  26634797.420      653339.878 3    509115.373 2
 91  7 31  3 35 30.0160000  0  5 23 17 11 03 21
  25500847.127    14093110.174 4  10981659.872 3
  26307576.940    28174948.212 3  21954506.944 2
  29196620.505     -385422.075 2   -300326.248 1
  28830710.607    44387033.668 2  34587282.991 1
  26636619.851      662915.879 3    516577.188 1
 91  7 31  3 35 45.0160000  0  5 23 17 11 03 21
  25510068.747    14141575.964 4  11019425.430 3
  26319875.627    28239565.553 3  22004858.103 2
  29193301.806     -402857.697 2   -313912.367 1
  28849976.170    44488250.457 2  34666153.072 1
  26638453.381      672546.073 3    524081.261 2
 91  7 31  3 36  0.0160000  0  5 23 17 11 03 21
  25519302.058    14190096.935 4  11057233.976 3
  26332186.598    28304255.124 3  22055265.547 2
  29189986.997     -420255.903 2   -327469.278 1
  28869245.329    44589507.019 2  34745054.307 1
  26640298.305      682230.066 3    531627.247 2
 91  7 31  3 36 15.0160000  0  5 23 17 11 03 21
  25528543.763    14238671.366 4  11095084.193 3
  26344511.966    28369015.455 3  22105728.138 2
  29186684.177     -437617.747 2   -340997.982 1
  28888519.897    44690801.652 2  34823985.014 1
  26642147.731      691966.241 3    539213.890 2
 91  7 31  3 36 30.0160000  0  5 23 17 11 03 21
  25537800.144    14287300.740 4  11132977.220 3
  26356846.932    28433848.042 3  22156247.045 2
  29183395.457     -454941.433 2   -354496.853 1
  28907806.750    44792135.461 2  34902946.255 1
  26644011.240      701756.135 3    546842.409 2
 91  7 31  3 36 45.0160000  0  5 23 17 11 03 21
  25547062.545    14335983.874 4  11170912.131 3
  26369199.889    28498751.977 3  22206821.522 2
  29180095.341     -472227.505 2   -367966.497 1
  28927089.695    44893506.974 2  34981936.993 1
  26645881.345      711598.821 3    554512.054 2
 91  7 31  3 37  0.0160000  0  5 23 17 11 03 21
  25556338.715    14384719.479 4  11208887.932 3
  26381563.630    28563726.163 3  22257450.754 2
  29176818.906     -489476.646 2   -381407.279 1
  28946396.319    44994914.651 2  35060955.884 1
  26647767.330      721493.184 3    562221.974 2
 91  7 31  3 37 15.0160000  0  5 23 17 11 03 21
  25565622.981    14433510.696 4  11246907.066 3
  26393938.452    28628773.434 3  22308136.926 2
  29173547.880     -506685.351 2   -394816.680 1
  28965688.564    45096361.408 2  35140005.541 1
  26649661.132      731442.288 3    569974.534 2
 91  7 31  3 37 30.0160000  0  5 23 17 11 03 21
  25574916.862    14482357.749 4  11284969.709 3
  26406329.485    28693894.493 3  22358880.600 2
  29170284.637     -523852.674 2   -408193.758 1
  28985007.805    45197847.386 2  35219085.520 1
  26651564.514      741446.703 3    577770.196 2
 91  7 31  3 37 45.0160000  0  5 23 17 11 03 21
  25584224.215    14531260.184 4  11323075.506 3
  26418739.085    28759088.624 3  22409681.222 2
  29167020.190     -540978.822 2   -421538.692 1
  29004318.635    45299371.444 2  35298195.123 1
  26653478.681      751505.842 3    585608.507 1
 91  7 31  3 38  0.0160000  0  5 23 17 11 03 21
  25593540.869    14580218.576 4  11361224.910 3
  26431155.892    28824357.091 3  22460539.769 2
  29163765.340     -558062.461 2   -434850.578 1
  29023649.846    45400934.338 2  35377334.806 1
  26655400.351      761620.432 3    593490.033 2
 91  7 31  3 38 15.0160000  0  5 23 17 11 03 21
  25602866.806    14629230.333 4  11399415.891 3
  26443588.579    28889697.394 3  22511454.279 2
  29160517.087     -575105.632 2   -448130.896 1
  29042987.654    45502532.988 2  35456502.433 1
  26657338.512      771788.231 3    601413.006 2
 91  7 31  3 38 30.0160000  0  5 23 17 11 03 21
  25612202.934    14678292.865 4  11437646.443 3
  26456038.664    28955107.005 3  22562422.789 2
  29157286.231     -592110.528 2   -461381.541 1
  29062319.180    45604164.773 2  35535695.911 1
  26659285.363      782006.675 3    609375.439 2
 91  7 31  3 38 45.0160000  0  5 23 17 11 03 21
  25621550.772    14727409.513 4  11475919.160 3
  26468500.440    29020589.089 3  22613447.786 2
  29154053.875     -609073.257 2   -474599.144 1
  29081671.681    45705832.541 2  35614917.458 1
  26661237.606      792279.202 3    617380.029 1
 91  7 31  3 39  0.0160000  0  5 23 17 11 03 21
  25630905.798    14776580.191 4  11514233.975 3
  26480972.704    29086144.008 3  22664529.532 2
  29150842.494     -625993.485 2   -487783.632 1
  29101025.072    45807536.169 2  35694166.979 1
  26663204.839      802605.834 3    625426.787 2
 91  7 31  3 39 15.0160000  0  5 23 17 11 03 21
  25640272.517    14825804.123 4  11552590.292 3
  26493462.662    29151771.030 3  22715667.460 2
  29147629.019     -642871.284 2   -500935.125 1
  29120376.683    45909274.436 2  35773443.373 1
  26665178.389      812986.007 3    633515.245 2
 91  7 31  3 39 30.0160000  0  5 23 17 11 03 21
  25649648.816    14875080.575 4  11590987.536 3
  26505964.295    29217469.191 3  22766860.847 2
  29144430.237     -659707.100 2   -514053.977 1
  29139740.282    46011046.377 2  35852745.987 1
  26667163.299      823418.998 3    641644.876 1
 91  7 31  3 39 45.0160000  0  5 23 17 11 03 21
  25659037.713    14924412.788 4  11629428.223 3
  26518480.045    29283242.182 3  22818112.504 2
  29141233.846     -676497.170 2   -527137.073 1
  29159129.952    46112854.966 2  35932077.334 1
  26669157.527      833908.164 3    649818.261 2
 91  7 31  3 40  0.0160000  0  5 23 17 11 03 21
  25668435.912    14973797.672 4  11667909.949 3
  26531011.064    29349086.914 3  22869420.079 2
  29138041.957     -693243.895 2   -540186.415 1
  29178506.132    46214696.978 1  36011434.638 1
  26671166.728      844450.539 3    658033.117 2
 91  7 31  3 40 15.0160000  0  5 23 17 11 03 21
  25677842.207    15023234.513 4  11706432.176 3
  26543553.478    29415002.933 3  22920783.206 2
  29134868.949     -709947.451 2   -553202.121 1
  29197888.630    46316571.570 2  36090817.313 1
  26673180.134      855045.687 3    666289.103 2
 91  7 31  3 40 30.0160000  0  5 23 17 11 03 21
  25687262.271    15072724.150 4  11744995.530 3
  26556108.194    29480991.160 3  22972202.593 2
  29131688.751     -726606.517 2   -566183.232 1
  29217283.396    46418478.904 2  36170225.472 1
  26675207.937      865694.383 3    674586.809 2
 91  7 31  3 40 45.0160000  0  5 23 17 11 03 21
  25696689.559    15122271.860 4  11783604.135 2
  26568682.978    29547056.743 3  23023682.256 2
  29128530.436     -743215.525 2   -579125.209 1
  29236678.475    46520424.222 2  36249663.256 1
  26677245.633      876401.834 3    682930.292 2
 91  7 31  3 41  0.0160000  0  5 23 17 11 03 21
  25706127.614    15171872.711 4  11822254.157 3
  26581269.174    29613194.740 3  23075218.366 2
  29125369.731     -759778.895 2   -592031.720 1
  29256087.637    46622402.236 2  36329126.481 1
  26679292.003      887163.269 3    691315.863 2
 91  7 31  3 41 15.0160000  0  5 23 17 11 03 21
  25715577.378    15221527.231 4  11860945.998 3
  26593870.046    29679406.103 3  23126811.627 2
  29122242.599     -776295.419 2   -604901.669 1
  29275498.002    46724413.206 2  36408615.373 1
  26681351.286      897979.596 3    699744.188 2
 91  7 31  3 41 30.0160000  0  5 23 17 11 03 21
  25725036.129    15271235.652 4  11899679.834 3
  26606477.811    29745691.212 3  23178462.340 2
  29119106.760     -792764.280 2   -617734.527 1
  29294927.843    46826457.345 2  36488130.139 1
  26683419.852      908851.071 3    708215.484 2
 91  7 31  3 41 45.0160000  0  5 23 17 11 03 21
  25734505.071    15320995.965 4  11938454.112 3
  26619110.477    29812048.028 3  23230168.965 2
  29115970.625     -809187.035 2   -630531.513 1
  29314339.098    46928532.166 2  36567669.183 1
  26685500.110      919775.882 3    716728.341 1
 91  7 31  3 42  0.0160000  0  5 23 17 11 03 21
  25743982.703    15370808.662 4  11977269.204 3
  26631750.316    29878477.391 3  23281932.082 2
  29112870.175     -825562.648 2   -643291.585 1
  29333778.850    47030638.211 2  36647232.424 1
  26687587.871      930754.720 3    725283.310 1
 91  7 31  3 42 15.0160000  0  5 23 17 11 03 21
  25753472.934    15420672.553 4  12016124.184 3
  26644406.959    29944978.045 3  23333750.775 2
  29109752.641     -841891.793 2   -656015.607 1
  29353211.395    47132773.296 2  36726818.124 1
  26689688.511      941786.256 3    733879.328 1
 91  7 31  3 42 30.0160000  0  5 23 17 11 03 21
  25762971.873    15470590.717 4  12055021.457 3
  26657073.496    30011553.300 3  23385627.586 2
  29106656.379     -858170.831 2   -668700.571 1
  29372658.337    47234941.151 2  36806429.618 1
  26691797.859      952873.799 3    742518.996 1
 91  7 31  3 42 45.0160000  0  5 23 17 11 03 21
  25772482.783    15520561.444 4  12093959.692 3
  26669754.709    30078201.424 3  23437561.205 2
  29103563.729     -874401.125 2   -681347.452 1
  29392106.168    47337139.352 2  36886064.479 1
  26693918.880      964015.799 3    751201.079 2
 91  7 31  3 43  0.0160000  0  5 23 17 11 03 21
  25782002.993    15570588.993 4  12132942.192 3
  26682454.820    30144926.981 3  23489555.119 2
  29100489.943     -890577.626 2   -693952.454 1
  29411549.201    47439371.879 2  36965726.169 1
  26696050.110      975216.746 3    759929.111 2
 91  7 31  3 43 15.0160000  0  5 23 17 11 03 21
  25791529.504    15620674.213 4  12171969.646 3
  26695163.918    30211730.753 3  23541610.003 2
  29097419.769     -906699.014 2   -706514.603 1
  29431022.527    47541639.648 2  37045415.587 1
  26698191.828      986477.521 3    768703.767 2
 91  7 31  3 43 30.0160000  0  5 23 17 11 03 21
  25801074.581    15670817.106 4  12211042.030 3
  26707893.102    30278612.625 3  23593725.742 2
  29094370.292     -922764.978 2   -719033.395 1
  29450485.052    47643942.140 2  37125131.779 1
  26700344.644      997798.114 3    777525.045 1
 91  7 31  3 43 45.0160000  0  5 23 17 11 03 21
  25810625.678    15721016.717 4  12250158.615 3
  26720636.682    30345572.010 3  23645901.875 2
  29091318.091     -938775.683 2   -731509.278 1
  29469958.971    47746278.075 2  37204873.905 1
  26702511.228     1009177.756 3    786392.312 2
 91  7 31  3 44  0.0160000  0  5 23 17 11 03 21
  25820189.357    15771272.726 4  12289319.150 3
  26733389.563    30412608.549 3  23698138.128 2
  29088284.493     -954731.178 2   -743942.160 1
  29489439.487    47848646.867 2  37284641.766
  26704687.724     1020616.058 3    795305.282 2
 91  7 31  3 44 15.0160000  0  5 23 17 11 03 21
  25829764.135    15821585.259 4  12328523.725 3
  26746162.215    30479722.513 3  23750434.734 2
  29085256.898     -970630.816 2   -756331.358 1
  29508922.097    47951048.323 2  37364434.901 1
  26706877.115     1032113.342 3    804264.224 1
 91  7 31  3 44 30.0160000  0  5 23 17 11 03 21
  25839349.382    15871950.765 4  12367769.575 3
  26758944.761    30546910.759 3  23802789.196 2
  29082238.289     -986477.452 2   -768679.372 1
  29528411.006    48053478.949 2  37444250.785 1
  26709074.586     1043666.372 3    813266.615 2
 91  7 31  3 44 45.0160000  0  5 23 17 11 03 21
  25848943.041    15922371.301 4  12407058.310 3
  26771745.298    30614175.109 3  23855202.967 2
  29079242.157    -1002268.525 2   -780984.111 1
  29547919.093    48155940.470 2  37524090.881 1
  26711283.766     1055277.394 3    822314.190 2
 91  7 31  3 45  0.0160000  0  5 23 17 11 03 21
  25858550.206    15972846.693 4  12446389.788 3
  26784561.140    30681515.585 3  23907676.068 2
  29076238.835    -1018003.785 2   -793245.306 1
  29567418.507    48258432.381 2  37603954.627 1
  26713502.823     1066946.086 3    831406.718 1
 91  7 31  3 45 15.0160000  0  5 23 17 11 03 21
  25868162.449    16023373.707 4  12485761.491 3
  26797391.953    30748928.873 3  23960205.884 2
  29073250.502    -1033686.059 2   -805465.253 1
  29586927.798    48360950.951 2  37683839.463 1
  26715734.479     1078669.226 3    840541.638 2
 91  7 31  3 45 30.0170000  0  5 23 17 11 03 21
  25877789.685    16073955.166 4  12525175.622 3
  26810231.757    30816419.278 3  24012795.807 2
  29070280.164    -1049316.271 2   -817644.549 1
  29606442.188    48463502.428 2  37763749.582 1
  26717975.422     1090447.305 3    849719.386 1
 91  7 31  3 45 45.0170000  0  5 23 17 11 03 21
  25887421.420    16124582.951 4  12564625.845 3
  26823088.658    30883976.442 3  24065437.742 2
  29067320.904    -1064893.198 2   -829782.399 1
  29625964.671    48566071.498 2  37843673.315 1
  26720225.680     1102277.440 3    858937.704 2
 91  7 31  3 46  0.0170000  0  5 23 17 11 03 21
  25897068.127    16175261.994 4  12604116.014 3
  26835958.159    30951606.647 3  24118136.611 2
  29064370.055    -1080415.689 2   -841877.793 1
  29645485.061    48668666.204 2  37923617.163 1
  26722487.315     1114162.286 3    868198.626 2
 91  7 31  3 46 15.0170000  0  5 23 17 11 03 21
  25906722.355    16225993.299 4  12643646.912 3
  26848839.927    31019311.144 3  24170893.341 2
  29061418.002    -1095882.227 2   -853929.630 1
  29665007.544    48771287.524 2  38003581.728 1
  26724763.330     1126102.981 3    877503.096 2
 91  7 31  3 46 30.0170000  0  5 23 17 11 03 21
  25916384.663    16276772.845 4  12683215.387 3
  26861735.813    31087085.707 3  24223704.685 2
  29058482.125    -1111296.464 2   -865940.657 1
  29684545.611    48873931.266 2  38083564.086 1
  26727042.049     1138095.452 3    886847.917 2
 91  7 31  3 46 45.0170000  0  5 23 17 11 03 21
  25926055.661    16327599.381 4  12722820.479 3
  26874650.265    31154929.020 3  24276569.596 2
  29055563.645    -1126659.138 2   -877911.569 1
  29704082.787    48976595.359 2  38163561.984 1
  26729333.664     1150138.624 3    896232.225 2
 91  7 31  3 47  0.0170000  0  5 23 17 11 03 21
  25935736.571    16378472.928 4  12762462.222 3
  26887573.425    31222841.491 3  24329488.410 2
  29052652.967    -1141969.590 2   -889841.808 1
  29723618.463    49079279.873 2  38243575.815 1
  26731638.175     1162232.600 3    905656.116 2
 91  7 31  3 47 15.0170000  0  4 23 17 11 21
  25945427.654    16429397.170 4  12802143.452 3
  26900511.872    31290826.734 3  24382463.910 2
  29049748.570    -1157223.750 2   -901728.137 1
  26733948.967     1174381.108 3    915122.500 2
 91  7 31  3 47 30.0170000  0  4 23 17 11 21
  25955125.944    16480372.345 4  12841864.374 3
  26913463.196    31358885.311 3  24435496.558 2
  29046858.884    -1172420.671 2   -913569.851 1
  26736269.061     1186584.464 3    924631.634 2
 91  7 31  3 47 45.0170000  0  4 23 17 11 21
  25964833.221    16531395.681 4  12881622.825 3
  26926431.919    31427014.366 3  24488584.120 2
  29043972.775    -1187562.686 2   -925368.779 1
  26738603.551     1198840.153 3    934181.553 2
 91  7 31  3 48  0.0170000  0  5 23 17 11 12 21
  25974553.987    16582467.103 4  12921418.740 3
  26939403.032    31495214.049 3  24541726.726 2
  29041103.156    -1202649.289 2   -937124.563 1
  29608011.608           0.397 2         0.381 1
  26740945.824     1211148.133 3    943772.217 2
 91  7 31  3 48 15.0170000  0  5 23 17 11 12 21
  25984283.460    16633585.670 4  12961251.390 3
  26952400.234    31563483.319 3  24594923.565 2
  29038240.448    -1217680.985 2   -948837.490 1
  29608053.873         218.732 1       170.642
  26743295.601     1223507.553 3    953402.958 2
 91  7 31  3 48 30.0170000  0  4 23 17 11 21
  25994020.420    16684752.678 4  13001121.799 2
  26965400.733    31631823.697 3  24648175.799 2
  29035390.915    -1232655.854 2   -960506.218 1
  26745656.476     1235919.927 3    963074.955 2
 91  7 31  3 48 45.0170000  0  4 23 17 11 21
  26003765.773    16735970.184 4  13041031.545 3
  26978416.833    31700237.097 3  24701484.945 1
  29032558.482    -1247571.387 2   -972128.703 1
  26748033.823     1248387.321 3    972789.817 2
 91  7 31  3 49  0.0170000  0  5 23 17 11 12 21
  26013521.614    16787237.206 4  13080979.875 3
  26991451.500    31768722.865 3  24754850.456 2
  29029720.344    -1262428.132 2   -983705.361 1
  29608254.428       30854.46012     24042.731 1
  26750413.283     1260908.711 3    982546.769 2
 91  7 31  3 49 15.0170000  0  5 23 17 11 12 21
  26023286.459    16838553.340 4  13120966.479 3
  27004497.580    31837280.688 3  24808272.129 2
  29026909.795    -1277225.957 2   -995236.042 1
  29608340.772       31347.347 2     24426.819 1
  26752806.214     1273484.014 3    992345.729 2
 91  7 31  3 49 30.0170000  0  5 23 17 11 12 21
  26033061.792    16889915.568 4  13160988.995 3
  27017559.835    31905907.706 3  24861747.733 2
  29024108.529    -1291967.103 2  -1006722.653 1
  29608462.487       31907.135 2     24862.969 1
  26755210.260     1286110.415 3   1002184.518 2
 91  7 31  3 49 45.0170000  0  5 23 17 11 12 21
  26042844.018    16941326.292 4  13201049.303 3
  27030627.483    31974606.276 3  24915279.077 2
  29021314.766    -1306648.896 2  -1018163.005 1
  29608580.311       32536.570 2     25353.515 1
  26757622.387     1298790.301 3   1012064.964 2
 91  7 31  3 50  0.0170000  0  5 23 17 11 12 21
  26052638.825    16992786.289 4  13241147.998 2
  27043717.328    32043377.330 3  24968866.905 2
  29018531.788    -1321270.048 2  -1029556.056 1
  29608707.418       33237.132 2     25899.499 1
  26760045.908     1311524.544 3   1021987.785 2
 91  7 31  3 50 15.0170000  0  5 23 17 11 12 21
  26062438.448    17044295.538 4  13281285.082 3
  27056817.363    32112220.669 3  25022511.042 2
  29015764.410    -1335829.991 2  -1040901.431 1
  29608855.815       34009.370 2     26501.250 1
  26762479.916     1324313.109 3   1031952.908 2
 91  7 31  3 50 30.0170000  0  5 23 17 11 12 21
  26072247.966    17095850.498 4  13321457.788 3
  27069932.668    32181133.071 3  25076209.017 2
  29013001.221    -1350331.620 2  -1052201.400 1
  29609012.308       34850.417 2     27156.757 1
  26764919.335     1337152.658 3   1041957.776 1
 91  7 31  3 50 45.0170000  0  5 23 17 11 12 21
  26082069.455    17147453.444 4  13361667.879 3
  27083053.399    32250117.041 3  25129962.762 2
  29010251.223    -1364772.195 2  -1063453.757 1
  29609186.182       35763.060 2     27868.009 1
  26767377.337     1350045.638 3   1052004.275 2
 91  7 31  3 51  0.0170000  0  5 23 17 11 12 21
  26091897.854    17199103.538 4  13401914.706 2
  27096198.090    32319171.636 3  25183771.525 2
  29007513.511    -1379152.092 2  -1074658.836 1
  29609383.457       36746.951 2     28634.660 1
  26769842.826     1362991.255 3   1062091.796 2
 91  7 31  3 51 15.0170000  0  5 23 17 11 12 21
  26101733.739    17250799.502 4  13442197.280 3
  27109352.378    32388295.783 3  25237634.494 2
  29004793.197    -1393472.034 2  -1085817.162 1
  29609576.212       37801.364 2     29456.340
  26772312.817     1375988.326 3   1072219.395 2
 91  7 31  3 51 30.0170000  0  5 23 17 11 12 21
  26111581.629    17302544.460 4  13482518.037 3
  27122519.876    32457492.789 3  25291554.221 2
  29002083.073    -1407728.178 2  -1096925.860 1
  29609799.261       38930.091 2     30335.919 1
  26774798.095     1389040.189 3   1082389.688 2
 91  7 31  3 51 45.0170000  0  5 23 17 11 12 21
  26121437.896    17354338.176 4  13522876.775 3
  27135702.346    32526762.391 3  25345530.527 2
  28999379.546    -1421920.377 2  -1107984.646 1
  29610012.712       40133.317 2     31273.544 1
  26777287.875     1402146.649 3   1092602.554 2
 91  7 31  3 52  0.0170000  0  5 23 17 11 12 21
  26131304.372    17406181.658 4  13563274.288 2
  27148898.009    32596105.405 3  25399564.037 2
  28996689.508    -1436047.350 2  -1118992.647 1
  29610263.349       41412.576 2     32270.445 1
  26779797.129     1415308.673 3   1102858.679 2
 91  7 31  3 52 15.0170000  0  5 23 17 11 12 21
  26141177.443    17458070.294 4  13603706.997 3
  27162108.068    32665517.277 3  25453651.201 2
  28994014.162    -1450113.225 2  -1129953.050 1
  29610525.364       42763.837 2     33323.409 1
  26782310.885     1428521.739 3   1113154.597 2
 91  7 31  3 52 30.0170000  0  5 23 17 11 12 21
  26151061.002    17510007.816 4  13644177.796 3
  27175327.114    32735002.276 3  25507795.350 2
  28991350.212    -1464113.290 2  -1140862.167 1
  29610792.771       44191.615 2     34436.120 1
  26784835.443     1441789.892 3   1123493.446 2
 91  7 31  3 52 45.0170000  0  5 23 17 11 12 21
  26160952.658    17561991.938 4  13684684.910 2
  27188564.448    32804557.881 3  25561994.508 1
  28988695.249    -1478049.815 2  -1151721.727 1
  29611082.375       45694.102 2     35606.871 1
  26787367.783     1455110.738 3   1133873.343 2
 91  7 31  3 53  0.0170000  0  5 23 17 11 12 21
  26170848.799    17614021.780 4  13725227.647 2
  27201815.568    32874183.366 3  25616248.125 2
  28986056.776    -1491922.932 2  -1162531.915 1
  29611375.277       47270.977 2     36835.627 1
  26789916.632     1468483.616 3   1144293.784 2
 91  7 31  3 53 15.0170000  0  5 23 17 11 12 21
  26180765.339    17666097.895 4  13765806.436 3
  27215075.988    32943879.264 3  25670556.590 2
  28983423.992    -1505731.511 2  -1173291.837 1
  29611691.859       48923.144 2     38123.081 1
  26792469.058     1481909.123 3   1154755.230 2
 91  7 31  3 53 30.0170000  0  5 23 17 11 12 21
  26190681.861    17718219.442 4  13806420.636 2
  27228352.009    33013644.791 3  25724919.344 1
  28980813.701    -1519476.014 2  -1184001.746 1
  29612019.818       50650.343 2     39469.055 1
  26795033.193     1495386.464 3   1165257.064 2
 91  7 31  3 53 45.0170000  0  5 23 17 11 12 21
  26200608.889    17770384.580 4  13847068.815 3
  27241644.800    33083478.159 3  25779334.939 1
  28978210.896    -1533157.557 2  -1194662.697 1
  29612365.193       52451.480 2     40872.540 1
  26797607.501     1508913.955 3   1175797.990 2
 91  7 31  3 54  0.0170000  0  5 23 17 11 12 21
  26210544.310    17822596.031 4  13887753.062 3
  27254944.186    33153382.447 3  25833805.817 2
  28975618.300    -1546772.824 2  -1205272.004 1
  29612724.929       54329.926 2     42336.349 1
  26800191.111     1522494.600 3   1186380.332 2
 91  7 31  3 54 15.0170000  0  5 23 17 11 12 21
  26220485.140    17874854.568 4  13928474.008 3
  27268260.971    33223358.530 3  25888332.613 2
  28973038.285    -1560320.644 2  -1215828.676 1
  29613099.969       56286.837 2     43861.269 1
  26802787.319     1536129.176 3   1197004.703 2
 91  7 31  3 54 30.0170000  0  5 23 17 11 12 21
  26230440.943    17927158.391 4  13969230.234 3
  27281588.854    33293404.394 3  25942913.784 2
  28970480.153    -1573802.461 2  -1226333.979 1
  29613473.823       58320.937 2     45446.332 1
  26805392.811     1549815.742 3   1207669.561 2
 91  7 31  3 54 45.0170000  0  5 23 17 11 12 21
  26240405.454    17979506.685 4  14010021.108 3
  27294931.116    33363519.315 3  25997548.784 2
  28967925.319    -1587218.652 2  -1236788.123 1
  29613883.030       60431.939 2     47091.301 1
  26808004.306     1563553.608 3   1218374.411 2
 91  7 31  3 55  0.0170000  0  5 23 17 11 12 21
  26250372.041    18031899.619 4  14050846.777 3
  27308288.368    33433703.779 3  26052237.968 2
  28965382.177    -1600568.225 2  -1247190.303 1
  29614300.649       62620.753 2     48796.938 1
  26810628.086     1577343.329 3   1229119.663 2
 91  7 31  3 55 15.0170000  0  5 23 17 11 12 21
  26260350.931    18084338.527 4  14091708.271 2
  27321653.106    33503959.059 3  26106982.312 2
  28962852.837    -1613849.219 2  -1257539.163 1
  29614721.252       64889.249 2     50564.634 1
  26813263.872     1591186.346 3   1239906.445 2
 91  7 31  3 55 30.0170000  0  5 23 17 11 12 21
  26270338.528    18136823.708 3  14132605.812 2
  27335036.445    33574285.327 2  26161782.011 1
  28960334.282    -1627061.154 2  -1267834.163 1
  29615176.336       67237.980 2     52394.851 1
  26815903.828     1605082.804 3   1250734.864 1
 91  7 31  3 55 45.0170000  0  5 23 17 11 12 21
  26280337.503    18189357.529 3  14173541.257 2
  27348435.072    33644685.174 3  26216639.016 1
  28957842.705    -1640200.919 2  -1278072.883 1
  29615641.611       69670.199 2     54290.221 1
  26818560.589     1619035.477 3   1261607.096 2
 91  7 31  3 56  0.0180000  0  5 23 17 11 12 21
  26290342.169    18241940.282 4  14214514.854 2
  27361848.080    33715160.431 3  26271554.786 2
  28955352.929    -1653272.001 2  -1288258.090 1
  29616127.289       72183.352 2     56248.597 1
  26821226.357     1633042.076 3   1272521.355 2
 91  7 31  3 56 15.0180000  0  5 23 17 11 12 21
  26300356.745    18294567.716 3  14255523.235 2
  27375271.887    33785704.115 3  26326523.843 1
  28952875.138    -1666269.558 2  -1298386.015 1
  29616609.944       74780.319 2     58272.151 1
  26823907.688     1647103.499 3   1283478.323 2
 91  7 31  3 56 30.0180000  0  5 23 17 11 12 21
  26310380.900    18347242.019 3  14296568.136 2
  27388706.199    33856319.828 2  26381549.067 1
  28950420.136    -1679195.197 2  -1308457.958 1
  29617122.300       77460.616 2     60360.795 1
  26826588.146     1661219.477 3   1294477.796 1
 91  7 31  3 56 45.0180000  0  5 23 17 11 12 21
  26320409.854    18399960.404 3  14337647.414 2
  27402158.781    33927004.916 3  26436628.361 1
  28947971.434    -1692051.200 2  -1318475.599 1
  29617652.333       80221.907 2     62512.443 1
  26829285.077     1675387.353 3   1305517.717 2
 91  7 31  3 57  0.0180000  0  5 23 17 11 12 21
  26330451.407    18452726.072 3  14378763.511 2
  27415623.962    33997762.366 3  26491764.040 1
  28945540.724    -1704834.082 2  -1328436.237 1
  29618188.055       83067.782 2     64730.071 1
  26831991.606     1689610.287 3   1316600.552 2
 91  7 31  3 57 15.0180000  0  5 23 17 11 12 21
  26340504.949    18505536.586 3  14419914.569 2
  27429101.725    34068590.047 3  26546954.433 2
  28943124.096    -1717545.563 2  -1338341.314 1
  29618746.863       85996.481 2     67012.292 1
  26834707.121     1703886.047 3   1327724.531 2
 91  7 31  3 57 30.0180000  0  5 23 17 11 12 21
  26350559.381    18558389.030 3  14461098.296 2
  27442594.792    34139485.008 3  26602197.228 1
  28940712.859    -1730188.146 2  -1348192.581 1
  29619316.473       89005.495 2     69357.051 1
  26837433.735     1718211.729 3   1338887.411 2
 91  7 31  3 57 45.0180000  0  5 23 17 11 12 21
  26360627.319    18611286.628 3  14502317.209 2
  27456099.236    34210450.822 3  26657495.257 2
  28938323.820    -1742757.878 2  -1357987.158 1
  29619903.464       92098.860 2     71767.442 1
  26840170.243     1732590.682 3   1350091.815 2
 91  7 31  3 58  0.0180000  0  5 23 17 11 12 21
  26370703.039    18664229.443 3  14543571.357 2
  27469616.873    34281487.553 3  26712848.516 1
  28935946.769    -1755254.107 2  -1367724.484 1
  29620512.947       95277.315 2     74244.131 1
  26842915.145     1747023.087 3   1361337.849 2
 91  7 31  3 58 15.0180000  0  5 23 17 11 12 21
  26380783.559    18717218.488 3  14584861.517 2
  27483148.609    34352595.808 2  26768257.530 1
  28933582.892    -1767675.595 2  -1377403.515 1
  29621136.810       98542.024 2     76788.126 1
  26845674.426     1761510.026 3   1372626.384 1
 91  7 31  3 58 30.0180000  0  5 23 17 11 12 21
  26390876.678    18770252.950 3  14626187.087 2
  27496693.242    34423775.019 3  26823721.880 1
  28931231.318    -1780022.602 2  -1387024.518 1
  29621772.678      101892.901 2     79399.299 1
  26848442.118     1776050.859 3   1383956.923 2
 91  7 31  3 58 45.0180000  0  5 23 17 11 12 21
  26400978.783    18823331.396 3  14667546.904 2
  27510249.251    34495024.045 2  26879240.586 1
  28928894.141    -1792296.030 2  -1396588.199 1
  29622428.615      105328.951 2     82076.855 1
  26851217.296     1790644.126 3   1395328.322 2
 91  7 31  3 59  0.0180000  0  5 23 17 11 12 21
  26411085.984    18876454.141 3  14708941.273 2
  27523819.361    34566343.137 2  26934813.869 1
  28926574.641    -1804494.954 2  -1406093.816 1
  29623103.450      108851.303 2     84821.637 1
  26854004.165     1805290.326 3   1406740.960 2
 91  7 31  3 59 15.0180000  0  5 23 17 11 12 21
  26421202.783    18929620.980 3  14750369.975 2
  27537409.241    34637732.590 3  26990441.991 1
  28924263.848    -1816618.867 2  -1415541.049 1
  29623783.380      112460.406 2     87633.970 1
  26856801.522     1819989.504 3   1418194.876 2
 91  7 31  3 59 30.0180000  0  5 23 17 11 12 21
  26431330.977    18982830.670 4  14791832.076 2
  27551006.329    34709190.747 3  27046123.673 2
  28921979.736    -1828668.683 2  -1424930.486 1
  29624491.492      116155.254 2     90513.061 1
  26859610.571     1834740.419 3   1429689.127 2
 91  7 31  3 59 45.0180000  0  5 23 17 11 12 21
  26441464.562    19036084.482 4  14833328.560 2
  27564616.609    34780718.785 3  27101859.802 1
  28919699.813    -1840642.565 2  -1434260.721 1
  29625207.998      119937.633 2     93460.488 1
  26862426.827     1849544.343 3   1441224.652 2
 91  7 31  4  0  0.0180000  0  5 23 17 11 12 21
  26451607.135    19089385.083 3  14874861.489 2
  27578245.770    34852319.645 3  27157652.652 1
  28917435.473    -1852537.303 2  -1443529.302 1
  29625943.682      123810.854 2     96478.520 1
  26865253.867     1864404.021 3   1452803.626 2
 91  7 31  4  0 15.0180000  0  5 23 17 11 12 21
  26461755.710    19142732.144 3  14916430.630 2
  27591881.841    34923993.003 3  27213502.023 1
  28915185.826    -1864352.746 2  -1452736.107 1
  29626700.062      127775.062 2     99567.584 1
  26868094.413     1879319.282 3   1464425.938 2
 91  7 31  4  0 30.0180000  0  5 23 17 11 12 21
  26471915.367    19196123.878 3  14958034.576 2
  27605525.695    34995737.147 2  27269406.510 1
  28912949.685    -1876090.253 2  -1461882.204 1
  29627469.023      131828.933 2    102726.574 1
  26870938.834     1894288.325 3   1476090.154 2
 91  7 31  4  0 45.0180000  0  5 23 17 11 12 21
  26482085.528    19249557.563 3  14999671.219 2
  27619198.325    35067549.544 2  27325364.218 1
  28910731.518    -1887752.048 2  -1470969.253 1
  29628256.289      135970.413 2    105953.658
  26873798.855     1909308.605 3   1487794.273 2
 91  7 31  4  1  0.0180000  0  5 23 17 11 12 21
  26492260.488    19303034.990 3  15041341.935 2
  27632877.254    35139431.688 3  27381376.273 1
  28908532.843    -1899335.848 2  -1479995.574 1
  29629061.826      140201.762 2    109250.855 1
  26876666.972     1924381.891 3   1499539.693 2
 91  7 31  4  1 15.0180000  0  5 23 17 11 12 21
  26502447.140    19356559.617 3  15083049.442 2
  27646567.281    35211387.038 2  27437445.349 1
  28906343.451    -1910837.495 2  -1488957.878 1
  29629890.153      144527.007 1    112621.220 1
  26879546.485     1939511.882 3   1511329.313 2
 91  7 31  4  1 30.0180000  0  5 23 17 11 12 21
  26512642.186    19410130.206 3  15124792.760 2
  27660275.282    35283414.691 2  27493570.787 1
  28904169.067    -1922257.805 2  -1497856.768 1
  29630726.281      148945.313 2    116063.871 1
  26882437.376     1954697.387 3   1523162.191 2
 91  7 31  4  1 45.0180000  0  5 23 17 11 12 21
  26522844.421    19463743.336 3  15166569.217 2
  27673994.399    35355511.468 2  27549750.041 1
  28902004.856    -1933599.584 2  -1506694.483 1
  29631580.975      153454.036 2    119576.984 1
  26885334.269     1969935.149 3   1535035.792 1
 91  7 31  4  2  0.0180000  0  5 23 17 11 12 21
  26533056.253    19517401.432 3  15208380.732 2
  27687730.582    35427679.853 3  27605985.176 1
  28899868.234    -1944859.967 2  -1515468.768 1
  29632462.979      158056.072 2    123163.043 1
  26888244.948     1985227.630 3   1546952.035 2
 91  7 31  4  2 15.0180000  0  5 23 17 11 12 21
  26543269.883    19571102.259 3  15250225.532 2
  27701475.176    35499917.400 3  27662274.171 1
  28897734.910    -1956040.516 2  -1524180.865 1
  29633347.966      162749.702 2    126820.463 1
  26891167.632     2000572.726 3   1558909.281 2
 91  7 31  4  2 30.0180000  0  5 23 17 11 12 21
  26553500.893    19624846.856 3  15292104.431 2
  27715233.242    35572224.877 2  27718617.631 1
  28895624.969    -1967140.012 2  -1532829.796 1
  29634250.335      167536.463 2    130550.424 1
  26894094.802     2015971.345 3   1570908.205 2
 91  7 31  4  2 45.0180000  0  5 23 17 11 12 21
  26563736.406    19678636.196 3  15334018.204 2
  27729005.408    35644603.474 2  27775016.526 1
  28893527.331    -1978156.798 2  -1541414.302 1
  29635196.189      172417.810 2    134354.172 1
  26897037.275     2031424.697 3   1582949.796 1
 91  7 31  4  3  0.0180000  0  5 23 17 11 12 21
  26573981.813    19732470.093 3  15375966.696 3
  27742793.156    35717053.186 3  27831470.830 1
  28891442.868    -1989090.692 2  -1549934.094 1
  29636138.727      177394.038 2    138231.800 1
  26899988.124     2046932.587 3   1595033.895 2
 91  7 31  4  3 15.0180000  0  5 23 17 11 12 21
  26584233.519    19786347.475 3  15417949.075 2
  27756592.003    35789573.191 3  27887979.910 1
  28889387.494    -1999942.005 3  -1558389.657 1
  29637105.260      182464.789 2    142182.881 1
  26902949.478     2062494.141 3   1607159.804 2
 91  7 31  4  3 30.0180000  0  5 23 17 11 12 21
  26594497.807    19840268.889 3  15459965.766 2
  27770408.841    35862164.191 3  27944544.308 1
  28887336.919    -2010709.760 2  -1566780.096 1
  29638077.481      187631.105 2    146208.676 1
  26905916.521     2078110.080 3   1619328.091 2
 91  7 31  4  3 45.0180000  0  5 23 17 11 12 21
  26604764.799    19894233.108 3  15502015.807 2
  27784234.666    35934824.850 2  28001163.021 1
  28885299.518    -2021394.639 2  -1575105.909 1
  29639087.186      192892.283 2    150308.408 1
  26908900.648     2093779.263 3   1631537.856 2
 91  7 31  4  4  0.0180000  0  5 23 17 11 12 21
  26615041.390    19948242.989 3  15544101.417 2
  27798073.998    36007557.766 2  28057837.977 1
  28883284.315    -2031993.397 2  -1583364.630 1
  29640113.381      198251.539 2    154484.340 1
  26911896.484     2109504.371 3   1643791.200 2
 91  7 31  4  4 15.0180000  0  5 23 17 11 12 21
  26625324.873    20002294.673 3  15586219.623 2
  27811926.801    36080359.191 3  28114566.352 1
  28881284.101    -2042509.501 2  -1591559.016 1
  29641149.453      203705.507 2    158734.427 1
  26914898.009     2125281.654 3   1656085.210 2
 91  7 31  4  4 30.0180000  0  5 23 17 11 12 21
  26635620.047    20056387.738 3  15628370.067 2
  27825798.799    36153228.860 3  28171347.915 1
  28879291.688    -2052942.751 2  -1599688.755 1
  29642203.830      209254.340 2    163058.172 1
  26917907.927     2141110.900 3   1668419.709 2
 91  7 31  4  4 45.0180000  0  5 23 17 11 12 21
  26645922.708    20110521.997 3  15670552.600 2
  27839675.003    36226166.631 3  28228182.527 1
  28877324.141    -2063292.793 2  -1607753.684 1
  29643279.182      214898.382 2    167456.258 1
  26920931.928     2156992.036 3   1680794.631 2
 91  7 31  4  5  0.0180000  0  5 23 17 11 12 21
  26656231.983    20164700.331 3  15712769.481 2
  27853566.179    36299175.296 3  28285072.358 1
  28875371.898    -2073556.217 2  -1615751.120 1
  29644371.932      220641.092 2    171931.107 1
  26923964.322     2172927.975 3   1693212.272 2
 91  7 31  4  5 15.0180000  0  5 23 17 11 12 21
  26666551.134    20218920.758 3  15755019.171 2
  27867476.253    36372253.017 3  28342016.055 1
  28873437.332    -2083734.400 2  -1623682.107 1
  29645482.656      226480.914 2    176481.658 1
  26927006.314     2188916.757 3   1705671.080 2
 91  7 31  4  5 30.0180000  0  5 23 17 11 12 21
  26676875.974    20273183.825 3  15797302.072 2
  27881396.816    36445400.373 2  28399013.966 1
  28871517.459    -2093826.197 2  -1631545.868 1
  29646613.482      232419.063 2    181108.879 1
  26930059.404     2204959.283 3   1718171.773 2
 91  7 31  4  5 45.0180000  0  5 23 17 11 12 21
  26687205.927    20327486.666 3  15839615.974 2
  27895327.865    36518614.302 3  28456063.767 1
  28869614.687    -2103834.207 2  -1639344.276 1
  29647768.582      238453.094 2    185810.726 1
  26933122.685     2221052.692 3   1730712.102 2
 91  7 31  4  6  0.0180000  0  5 23 17 11 12 21
  26697549.963    20381832.767 3  15881963.590 2
  27909270.921    36591898.834 3  28513168.584 1
  28867728.388    -2113754.410 2  -1647074.259 1
  29648926.683      244586.969 2    190590.397 1
  26936195.860     2237200.434 3   1743294.779 2
 91  7 31  4  6 15.0180000  0  5 23 17 11 12 21
  26707899.111    20436221.990 3  15924344.803 2
  27923229.542    36665253.411 3  28570327.977 1
  28865851.687    -2123586.536 2  -1654735.597 1
  29650108.761      250820.808 2    195447.966 1
  26939275.335     2253402.303 3   1755919.622 2
 91  7 31  4  6 30.0190000  0  5 23 17 11 12 21
  26718258.139    20490658.635 3  15966762.957 2
  27937203.784    36738683.778 2  28627546.400 1
  28864001.670    -2133329.760 2  -1662327.683 1
  29651316.912      257156.561 2    200385.029 1
  26942370.082     2269660.438 3   1768588.333 2
 91  7 31  4  6 45.0190000  0  5 23 17 11 12 21
  26728624.965    20545135.514 3  16009212.491 2
  27951186.399    36812180.366 2  28684816.477 1
  28862163.936    -2142982.356 2  -1669849.175 1
  29652542.476      263594.015 2    205401.273 1
  26945477.442     2285972.686 3   1781299.190 2
 91  7 31  4  7  0.0190000  0  5 23 17 11 12 21
  26738998.072    20599655.310 3  16051695.449 2
  27965188.803    36885746.982 3  28742141.122 1
  28860342.709    -2152545.572 2  -1677300.993 1
  29653788.404      270132.948 2    210496.554 1
  26948590.770     2302339.112 3   1794052.259 2
 91  7 31  4  7 15.0190000  0  5 23 17 11 12 21
  26749383.482    20654216.898 3  16094210.965 2
  27979199.897    36959382.475 2  28799519.405 1
  28858539.142    -2162019.970 2  -1684683.610 1
  29655046.635      276772.820 2    215670.515 1
  26951716.122     2318758.770 3   1806846.820 2
 91  7 31  4  7 30.0190000  0  5 23 17 11 12 21
  26759775.191    20708822.597 3  16136760.871 2
  27993222.997    37033089.142 2  28856953.151 1
  28856756.881    -2171402.720 3  -1691994.831 1
  29656332.140      283516.496 2    220925.338 1
  26954849.849     2335234.126 3   1819684.769 2
 91  7 31  4  7 45.0190000  0  5 23 17 11 12 21
  26770174.387    20763471.140 3  16179344.147 2
  28007270.370    37106866.187 3  28914441.745 1
  28854986.312    -2180694.544 2  -1699235.190 1
  29657634.153      290363.247 2    226260.594 1
  26957995.862     2351763.957 3   1832565.169 2
 91  7 31  4  8  0.0190000  0  5 23 17 11 12 21
  26780583.180    20818164.054 3  16221962.002 2
  28021322.541    37180714.828 3  28971986.129 1
  28853238.516    -2189893.206 2  -1706402.939 1
  29658956.531      297315.125 2    231677.670 1
  26961152.990     2368349.936 3   1845489.336 2
 91  7 31  4  8 15.0190000  0  5 23 17 11 12 21
  26790995.882    20872900.155 3  16264613.517 2
  28035387.609    37254634.132 3  29029585.580 1
  28851503.615    -2198999.400 2  -1713498.604 1
  29660306.200      304371.541 2    237176.207 1
  26964318.198     2384991.047 3   1858456.451 2
 91  7 31  4  8 30.0190000  0  5 23 17 11 12 21
  26801425.057    20927681.026 4  16307299.910 2
  28049467.055    37328625.591 2  29087241.261 1
  28849790.300    -2208011.039 3  -1720520.681 1
  29661666.357      311534.465 2    242757.810 1
  26967497.191     2401688.906 3   1871467.779 2
 91  7 31  4  8 45.0190000  0  5 23 17 11 12 21
  26811856.640    20982504.830 4  16350019.757 2
  28063560.008    37402687.491 3  29144951.849 1
  28848090.789    -2216929.519 2  -1727470.107 1
  29663048.101      318802.588 2    248421.299 1
  26970684.282     2418441.729 3   1884521.946 2
 91  7 31  4  9  0.0190000  0  5 23 17 11 12 21
  26822296.006    21037371.586 3  16392773.078 2
  28077668.841    37476819.816 3  29202717.238 2
  28846409.844    -2225754.340 3  -1734346.557 1
  29664450.522      326176.331 2    254167.158 1
  26973885.472     2435249.529 3   1897618.949 2
 91  7 31  4  9 15.0190000  0  5 23 17 11 12 21
  26832744.080    21092280.622 3  16435559.344 2
  28091789.662    37551021.364 2  29260536.602 1
  28844754.098    -2234486.051 2  -1741150.459 1
  29665872.436      333655.253 2    259995.046 1
  26977089.942     2452111.525 3   1910758.186 2
 91  7 31  4  9 30.0190000  0  5 23 17 11 12 21
  26843201.140    21147232.247 3  16478378.787 2
  28105919.784    37625292.781 2  29318410.404 1
  28843109.432    -2243123.526 3  -1747880.909 1
  29667321.345      341240.474 2    265905.441 1
  26980307.920     2469028.305 3   1923940.104 2
 91  7 31  4  9 45.0190000  0  5 23 17 11 12 21
  26853664.797    21202227.317 3  16521232.094 2
  28120068.176    37699635.067 3  29376339.460 1
  28841478.866    -2251665.357 2  -1754536.877 1
  29668780.724      348933.292 2    271899.883 1
  26983539.979     2486000.891 3   1937165.516 2
 91  7 31  4 10  0.0190000  0  5 23 17 11 12 21
  26864139.848    21257267.733 3  16564120.732 2
  28134231.872    37774050.319 2  29434325.356 1
  28839873.167    -2260108.968 2  -1761116.293 1
  29670259.909      356736.219 2    277980.263 1
  26986779.839     2503031.337 3   1950436.003 2
 91  7 31  4 10 15.0190000  0  5 23 17 11 12 21
  26874624.480    21312353.732 3  16607044.881 2
  28148400.960    37848538.729 2  29492368.252 1
  28838284.866    -2268453.852 2  -1767618.756 1
  29671773.558      364649.858 2    284146.818 1
  26990031.390     2520119.762 3   1963751.661 2
 91  7 31  4 10 30.0190000  0  5 23 17 11 12 21
  26885112.131    21367484.675 3  16650004.065 2
  28162594.950    37923099.800 2  29550467.789 1
  28836719.354    -2276700.178 2  -1774044.445 1
  29673302.808      372674.182 2    290399.444 1
  26993294.023     2537265.636 3   1977112.106 2
 91  7 31  4 10 45.0190000  0  5 23 17 11 12 21
  26895614.457    21422658.888 3  16692996.957 2
  28176791.313    37997731.347 2  29608622.224 1
  28835167.925    -2284849.175 2  -1780394.260 1
  29674847.938      380807.903 2    296737.464 1
  26996567.771     2554467.313 3   1990516.022 2
 91  7 31  4 11  0.0190000  0  5 23 17 11 12 21
  26906119.785    21477877.424 3  16736024.393 2
  28191008.965    38072434.969 2  29666832.830 1
  28833637.786    -2292899.079 3  -1786666.879 1
  29676411.652      389052.610 2    303162.062 1
  26999851.692     2571726.039 3   2003964.387 2
 91  7 31  4 11 15.0190000  0  5 23 17 11 12 21
  26916636.193    21533140.620 3  16779086.627 2
  28205235.918    38147210.748 2  29725099.638 1
  28832118.744    -2300849.186 3  -1792861.782 1
  29678006.235      397409.123 2    309673.576 1
  27003149.417     2589042.262 3   2017457.571 2
 91  7 31  4 11 30.0190000  0  5 23 17 11 12 21
  26927162.217    21588449.646 3  16822184.575 2
  28219479.658    38222059.716 2  29783423.491 1
  28830629.368    -2308697.921 2  -1798977.595 1
  29679614.325      405879.030 2    316273.565 1
  27006453.127     2606417.107 3   2030996.419 2
 91  7 31  4 11 45.0190000  0  5 23 17 11 12 21
  26937697.821    21643801.751 3  16865316.082 2
  28233735.090    38296979.540 2  29841802.548 1
  28829157.390    -2316447.348 2  -1805016.075 1
  29681247.892      414460.181 2    322960.226 1
  27009770.623     2623847.999 3   2044578.941 2
 91  7 31  4 12  0.0190000  0  5 23 17 11 12 21
  26948237.630    21699198.225 3  16908482.181 2
  28248012.405    38371971.409 3  29900237.776 1
  28827695.899    -2324095.659 2  -1810975.792 1
  29682907.844      423154.252 2    329734.881 1
  27013099.514     2641336.159 3   2058206.086 2
 91  7 31  4 12 15.0190000  0  5 23 17 11 12 21
  26958786.426    21754638.171 3  16951682.137 2
  28262291.516    38447034.326 2  29958728.332 1
  28826262.887    -2331643.360 3  -1816857.060 1
  29684582.786      431960.910 2    336597.262 1
  27016442.504     2658880.789 3   2071877.242 2
 91  7 31  4 12 30.0190000  0  5 23 17 11 12 21
  26969346.304    21810122.669 3  16994916.812 2
  28276588.323    38522169.438 3  30017275.168 1
  28824839.176    -2339088.762 2  -1822658.632 1
  29686283.519      440881.684 2    343548.547 1
  27019786.088     2676483.194 3   2085593.417 2
 91  7 31  4 12 45.0190000  0  5 23 17 11 12 21
  26979910.700    21865652.373 3  17038186.723 2
  28290901.009    38597377.490 2  30075878.814 1
  28823450.540    -2346430.847 3  -1828379.741 1
  29687998.021      449917.654 2    350589.638 1
  27023147.367     2694144.039 3   2099355.121 2
 91  7 31  4 13  0.0190000  0  5 23 17 11 12 21
  26990484.974    21921228.495 3  17081492.785 2
  28305222.402    38672659.513 2  30134540.117 1
  28822068.204    -2353667.813 2  -1834018.853 1
  29689735.923      459070.642 2    357721.940 1
  27026520.930     2711864.728 3   2113163.471 2
 91  7 31  4 13 15.0190000  0  5 23 17 11 12 21
  27001071.253    21976847.145 3  17124831.998 2
  28319568.663    38748011.688 3  30193256.058 1
  28820707.436    -2360803.008 3  -1839578.730 1
  29691504.101      468337.244 2    364942.563 1
  27029904.091     2729641.415 3   2127015.443 2
 91  7 31  4 13 30.0190000  0  5 23 17 11 12 21
  27011661.424    22032509.071 3  17168204.938 2
  28333921.240    38823434.828 3  30252027.333 1
  28819373.960    -2367835.437 3  -1845058.535 1
  29693287.565      477718.474 2    372252.602 1
  27033297.443     2747474.646 3   2140911.470 2
 91  7 31  4 13 45.0190000  0  5 23 17 11 12 21
  27022262.675    22088214.766 3  17211611.972 2
  28348285.195    38898929.222 2  30310854.134 1
  28818054.881    -2374764.035 3  -1850457.372 1
  29695098.305      487215.424 2    379652.996 1
  27036700.986     2765365.201 3   2154852.173 2
 91  7 31  4 14  0.0190000  0  5 23 17 11 12 21
  27032870.227    22143964.987 3  17255053.704 2
  28362662.342    38974495.789 2  30369737.160 1
  28816757.073    -2381587.525 2  -1855774.372 1
  29696926.145      496829.340 2    387144.364 1
  27040117.110     2783313.945 3   2168838.219 2
 91  7 31  4 14 15.0190000  0  5 23 17 11 12 21
  27043488.579    22199759.926 3  17298530.292 2
  28377061.075    39050134.797 3  30428676.623 1
  28815476.663    -2388305.298 2  -1861008.953 1
  29698773.460      506560.895 2    394727.356 1
  27043544.647     2801320.984 3   2182869.687 2
 91  7 31  4 14 30.0190000  0  5 23 17 11 12 21
  27054115.029    22255598.728 3  17342041.047 2
  28391466.701    39125845.303 2  30487671.789 1
  28814216.932    -2394917.625 2  -1866161.390 1
  29700648.067      516409.646 2    402401.723 1
  27046979.967     2819385.525 3   2196945.968 2
 91  7 31  4 14 45.0190000  0  5 23 17 11 12 21
  27064748.965    22311482.521 3  17385586.860 2
  28405888.520    39201628.632 3  30546723.739 1
  28812983.586    -2401422.887 3  -1871230.402 1
  29702539.758      526377.079 2    410168.615 1
  27050430.573     2837508.882 3   2211068.076 2
 91  7 31  4 15  0.0190000  0  5 23 17 11 12 21
  27075393.388    22367411.810 3  17429168.127 2
  28420321.124    39277485.133 2  30605832.677 1
  28811765.822    -2407820.058 3  -1876215.179 1
  29704465.931      536464.364 2    418028.935 1
  27053885.977     2855691.629 3   2225236.456 2
 91  7 31  4 15 15.0190000  0  5 23 17 11 12 21
  27086043.221    22423383.354 3  17472782.319 2
  28434770.812    39353411.511 2  30664996.069 1
  28810569.366    -2414111.895 3  -1881117.839 1
  29706410.688      546668.797 2    425980.419 1
  27057358.780     2873930.559 3   2239448.622 2
 91  7 31  4 15 30.0190000  0  5 23 17 11 12 21
  27096705.043    22479401.814 3  17516433.079 2
  28449234.896    39429412.533 3  30724217.646 1
  28809389.975    -2420293.114 2  -1885934.367 1
  29708365.321      556995.475 2    434027.139 1
  27060842.960     2892230.544 3   2253708.362 2
 91  7 31  4 15 45.0190000  0  5 23 17 11 12 21
  27107373.460    22535464.043 4  17560117.929 2
  28463709.782    39505484.910 2  30783494.808 1
  28808241.768    -2426366.527 3  -1890666.861 1
  29710358.939      567441.631 2    442167.128 1
  27064335.255     2910588.363 3   2268013.166 2
 91  7 31  4 16  0.0190000  0  5 23 17 11 12 21
  27118046.973    22591569.474 3  17603836.444 2
  28478199.658    39581627.969 2  30842827.017 1
  28807099.564    -2432332.285 2  -1895315.468 1
  29712371.455      578007.164 2    450400.070 1
  27067838.334     2929003.512 3   2282362.630 2
 91  7 31  4 16 15.0190000  0  5 23 17 11 12 21
  27128731.863    22647716.104 3  17647587.068 2
  28492703.005    39657839.965 2  30902212.956 1
  28805987.322    -2438191.892 3  -1899881.384 1
  29714401.055      588690.470 2    458724.835 1
  27071356.385     2947474.012 3   2296755.251 2
 91  7 31  4 16 30.0190000  0  5 23 17 11 12 21
  27139426.072    22703909.024 3  17691373.767 2
  28507218.358    39734125.855 2  30961656.518 1
  28804892.181    -2443939.618 3  -1904360.096 1
  29716455.521      599497.218 2    467145.623 1
  27074881.957     2966005.230 3   2311195.177 2
 91  7 31  4 16 45.0200000  0  5 23 17 11 12 21
  27150128.661    22760149.752 3  17735197.698 2
  28521750.204    39810488.645 2  31021159.979 2
  28803819.537    -2449577.748 3  -1908753.411 1
  29718544.473      610426.285 2    475661.780 1
  27078418.299     2984596.090 3   2325681.561 2
 91  7 31  4 17  0.0200000  0  5 23 17 11 12 21
  27160839.342    22816428.745 3  17779051.472 2
  28536294.629    39886916.294 2  31080713.953 1
  28802767.254    -2455106.933 3  -1913061.860 1
  29720643.926      621474.700 2    484270.928 1
  27081964.550     3003242.212 3   2340211.035 2
 91  7 31  4 17 15.0200000  0  5 23 17 11 12 21
  27171555.120    22872750.016 3  17822938.180 2
  28550848.652    39963414.024 2  31140322.575 1
  28801737.168    -2460526.880 2  -1917285.177 1
  29722761.353      632643.899 2    492974.326 1
  27085529.385     3021945.047 3   2354784.671 2
 91  7 31  4 17 30.0200000  0  5 23 17 11 12 21
  27182281.106    22929113.683 3  17866857.922 2
  28565425.464    40039981.930 2  31199985.852 1
  28800723.275    -2465837.108 3  -1921422.950 1
  29724916.577      643934.441 2    501772.203 1
  27089097.205     3040704.946 3   2369402.788 2
 91  7 31  4 17 45.0200000  0  5 23 17 11 12 21
  27193014.560    22985521.385 3  17910811.988 2
  28580006.779    40116621.183 2  31259704.740 1
  28799736.361    -2471035.643 3  -1925473.735 1
  29727083.772      655348.164 2    510666.079 1
  27092678.530     3059523.282 3   2384066.436 2
 91  7 31  4 18  0.0200000  0  5 23 17 11 12 21
  27203757.926    23041972.727 3  17954800.047 2
  28594604.567    40193331.623 2  31319479.088 1
  28798771.922    -2476122.297 3  -1929437.328 1
  29729281.243      666885.248 2    519655.951 1
  27096267.953     3078399.823 3   2398775.459 2
 91  7 31  4 18 15.0200000  0  5 23 17 11 12 21
  27214510.279    23098467.269 3  17998821.768 2
  28609214.657    40270112.910 2  31379308.638 1
  28797823.084    -2481096.846 3  -1933313.598 1
  29731505.116      678545.752 2    528742.147 1
  27099874.442     3097334.360 3   2413529.651 2
 91  7 31  4 18 30.0200000  0  5 23 17 11 12 21
  27225267.745    23155001.494 4  18042874.419 2
  28623839.422    40346961.578 2  31439190.702 1
  28796897.629    -2485962.303 2  -1937104.852 1
  29733748.446      690326.686 2    537922.074 1
  27103487.544     3116323.609 3   2428326.488 2
 91  7 31  4 18 45.0200000  0  5 23 17 11 12 21
  27236033.884    23211577.008 3  18086959.242 2
  28638475.897    40423879.044 2  31499126.390 1
  28795991.352    -2490716.721 3  -1940809.533 1
  29736014.287      702230.032 2    547197.475 1
  27107110.837     3135369.066 3   2443167.114 2
 91  7 31  4 19  0.0200000  0  5 23 17 11 12 21
  27246801.226    23268193.292 3  18131075.822 2
  28653126.454    40500864.719 2  31559115.206 1
  28795106.958    -2495360.047 3  -1944427.716 1
  29738296.898      714255.656 2    556568.136 1
  27110740.727     3154470.263 3   2458051.169 2
 91  7 31  4 19 15.0200000  0  5 23 17 11 12 21
  27257588.672    23324852.392 3  18175225.783 2
  28667789.296    40577920.753 2  31619158.842 1
  28794247.761    -2499889.773 3  -1947957.310 1
  29740612.803      726406.106 2    566036.084 1
  27114391.592     3173629.364 3   2472980.364 2
 91  7 31  4 19 30.0200000  0  5 23 17 11 12 21
  27268379.398    23381551.245 3  18219406.710 2
  28682467.442    40655043.990 2  31679254.873 1
  28793403.241    -2504308.455 3  -1951400.426 2
  29742949.388      738678.803 2    575599.256 1
  27118046.959     3192843.308 3   2487952.283 2
 91  7 31  4 19 45.0200000  0  5 23 17 11 12 21
  27279175.516    23438290.308 3  18263618.968 2
  28697153.668    40732235.301 2  31739403.896 1
  28792580.009    -2508615.109 3  -1954756.259 1
  29745304.853      751074.768 2    585258.386 1
  27121714.628     3212112.798 3   2502967.477 2
 91  7 31  4 20  0.0200000  0  5 23 17 11 12 21
  27289978.545    23495070.832 4  18307863.534 2
  28711857.588    40809495.474 2  31799606.602 1
  28791785.553    -2512808.118 3  -1958023.518 1
  29747696.894      763595.495 2    595014.875 1
  27125390.377     3231439.009 3   2518026.873 2
 91  7 31  4 20 15.0200000  0  5 23 17 11 12 21
  27300792.061    23551891.837 3  18352139.643 2
  28726569.308    40886823.516 2  31859862.231 1
  28791008.495    -2516888.220 3  -1961202.779 1
  29750089.249      776240.333 2    604868.061 1
  27129080.836     3250820.891 3   2533129.656 2
 91  7 31  4 20 30.0200000  0  5 23 17 11 12 21
  27311613.359    23608755.211 4  18396448.765 2
  28741299.019    40964221.303 2  31920172.172 1
  28790256.024    -2520852.821 3  -1964292.098 1
  29752524.148      789011.822 2    614819.858 1
  27132777.874     3270260.568 3   2548277.470 2
 91  7 31  4 20 45.0200000  0  5 23 17 11 12 21
  27322439.771    23665659.665 3  18440789.907 2
  28756041.016    41041687.661 2  31980535.551 1
  28789519.729    -2524702.905 3  -1967292.112 1
  29754978.556      801908.966 2    624869.667 1
  27136491.106     3289756.633 3   2563469.228 2
 91  7 31  4 21  0.0200000  0  5 23 17 11 12 21
  27333276.670    23722602.445 3  18485160.909 2
  28770793.796    41119219.659 2  32040950.091 1
  28788808.319    -2528440.537 3  -1970204.537 1
  29757461.146      814929.657 2    635015.587 1
  27140207.025     3309306.613 3   2578702.999 2
 91  7 31  4 21 15.0200000  0  5 23 17 11 12 21
  27344122.260    23779588.032 3  18529565.258 2
  28785560.973    41196821.998 2  32101419.423 1
  28788122.700    -2532060.750 3  -1973025.433 1
  29759956.614      828078.831 2    645261.766 1
  27143941.843     3328915.095 3   2593982.349 2
 91  7 31  4 21 30.0200000  0  5 23 17 11 12 21
  27354975.650    23836615.622 3  18574002.348 2
  28800339.248    41274493.742 2  32161942.849 1
  28787456.555    -2535563.824 3  -1975755.102 1
  29762480.561      841356.054 2    655607.717 1
  27147684.147     3348581.259 3   2609306.657 2
 91  7 31  4 21 45.0200000  0  5 23 17 11 12 21
  27365829.633    23893680.655 3  18618468.610 2
  28815136.091    41352230.570 2  32222516.960 1
  28786812.607    -2538954.037 3  -1978396.819 2
  29765039.287      854757.096 2    666050.138 1
  27151437.846     3368300.517 3   2624672.326 2
 91  7 31  4 22  0.0200000  0  5 23 17 11 12 21
  27376699.199    23950787.068 3  18662967.105 2
  28829936.842    41430035.897 2  32283144.491 1
  28786193.229    -2542227.167 3  -1980947.275 1
  29767608.814      868286.086 2    676592.226 1
  27155199.048     3388076.664 3   2640082.322 2
 91  7 31  4 22 15.0200000  0  5 23 17 11 12 21
  27387572.377    24007933.578 3  18707496.863 2
  28844757.085    41507908.498 2  32343824.401 1
  28785589.155    -2545383.751 3  -1983406.911 1
  29770212.508      881942.479 2    687233.560 1
  27158974.036     3407908.891 3   2655536.014 2
 91  7 31  4 22 30.0200000  0  5 23 17 11 12 21
  27398457.841    24065119.610 3  18752057.408 2
  28859592.318    41585848.084 2  32404556.543 1
  28785010.244    -2548423.892 3  -1985775.831 2
  29772830.006      895726.171 2    697974.073 1
  27162757.715     3427796.637 3   2671032.988 2
 91  7 31  4 22 45.0200000  0  5 23 17 11 12 21
  27409343.601    24122343.417 3  18796647.386 2
  28874428.441    41663852.608 2  32465339.245 1
  28784449.935    -2551349.043 3  -1988055.157 1
  29775479.560      909635.621 2    708812.703 1
  27166551.881     3447738.041 3   2686571.769 2
 91  7 31  4 23  0.0200000  0  5 23 17 11 12 21
  27420243.757    24179608.421 3  18841269.477 2
  28889294.857    41741925.692 2  32526175.410 1
  28783919.902    -2554155.248 3  -1990241.777 1
  29778148.309      923674.786 2    719752.377 1
  27170361.054     3467736.763 3   2702155.195 2
 91  7 31  4 23 15.0200000  0  5 23 17 11 12 21
  27431147.508    24236913.563 4  18885922.834 2
  28904158.272    41820066.154 2  32587064.073 1
  28783407.267    -2556843.123 3  -1992336.210 1
  29780846.148      937843.041 2    730792.556 1
  27174173.508     3487791.688 3   2717782.432 2
 91  7 31  4 23 30.0200000  0  5 23 17 11 12 21
  27442057.855    24294259.976 3  18930608.350 2
  28919042.069    41898275.150 2  32648006.097 1
  28782917.701    -2559410.954 3  -1994337.093 1
  29783567.369      952141.963 2    741934.611 1
  27178002.766     3507904.119 3   2733454.474 2
 91  7 31  4 23 45.0200000  0  5 23 17 11 12 21
  27452979.301    24351643.771 3  18975322.998 2
  28933932.147    41976548.495 2  32708998.334 1
  28782452.426    -2561862.192 3  -1996247.113 2
  29786312.271      966568.047 2    753175.818 1
  27181839.807     3528070.189 3   2749168.311 2
 91  7 31  4 24  0.0200000  0  5 23 17 11 12 21
  27463907.639    24409066.206 4  19020067.760 2
  28948845.330    42054887.771 2  32770041.906 1
  28782011.128    -2564195.018 3  -1998064.887 1
  29789080.242      981123.025 2    764517.275 1
  27185685.835     3548291.243 3   2764924.994 2
 91  7 31  4 24 15.0200000  0  5 23 17 11 12 21
  27474841.370    24466525.259 4  19064841.049 2
  28963760.014    42133290.787 2  32831135.128 1
  28781582.428    -2566411.103 3  -1999791.642 1
  29791870.724      995805.196 2    775957.972 1
  27189544.462     3568565.350 3   2780723.019 2
 91  7 31  4 24 30.0200000  0  5 23 17 11 12 21
  27485782.290    24524023.668 4  19109645.003 2
  28978699.564    42211760.163 2  32892280.083 1
  28781187.303    -2568507.425 3  -2001425.148 1
  29794701.062     1010617.502 2    787500.144 1
  27193411.186     3588895.128 3   2796564.422 2
 91  7 31  4 24 45.0200000  0  5 23 17 11 12 21
  27496731.604    24581559.493 4  19154478.119 2
  28993643.023    42290293.947 2  32953475.209 1
  28780808.668    -2570485.419 3  -2002966.390 2
  29797539.794     1025558.563 2    799142.580 1
  27197291.399     3609278.743 3   2812447.776 2
 91  7 31  4 25  0.0200000  0  5 23 17 11 12 21
  27507689.625    24639133.421 4  19199340.920 2
  29008600.565    42368892.781 2  33014721.051 1
  28780454.306    -2572343.927 3  -2004414.574 1
  29800401.019     1040629.400 2    810886.108 1
  27201181.506     3629716.827 3   2828373.571 2
 91  7 31  4 25 15.0200000  0  5 23 17 11 12 21
  27518650.630    24696746.280 4  19244234.064 2
  29023563.202    42447557.535 2  33076018.214 1
  28780125.736    -2574081.574 3  -2005768.562 1
  29803297.004     1055831.405 2    822731.869 1
  27205083.008     3650210.370 3   2844342.578 2
 91  7 31  4 25 30.0200000  0  5 23 17 11 12 21
  27529622.734    24754397.506 4  19289157.098 2
  29038549.239    42526287.631 2  33137366.340 1
  28779819.642    -2575698.382 3  -2007028.341 1
  29806218.188     1071164.468 2    834679.625 1
  27208992.014     3670759.020 3   2860354.537 2
 91  7 31  4 25 45.0200000  0  5 23 17 11 12 21
  27540601.434    24812087.719 4  19334110.513 2
  29053539.151    42605083.585 2  33198765.768 1
  28779530.946    -2577193.386 3  -2008193.259 1
  29809161.848     1086629.443 2    846730.376 1
  27212914.492     3691363.448 3   2876409.956 2
 91  7 31  4 26  0.0200000  0  5 23 17 11 12 21
  27551585.840    24869815.163 3  19379092.952 2
  29068555.761    42683943.603 2  33260215.108 1
  28779271.321    -2578567.997 3  -2009264.349 1
  29812125.296     1102224.996 2    858882.766 1
  27216842.064     3712021.839 3   2892507.412 2
 91  7 31  4 26 15.0200000  0  5 23 17 11 12 21
  27562576.528    24927579.978 3  19424104.488 2
  29083570.557    42762868.045 2  33321714.632 1
  28779034.487    -2579821.242 3  -2010240.915 1
  29815123.523     1117951.933 2    871137.553 1
  27220784.051     3732734.550 3   2908647.218 2
 91  7 31  4 26 30.0200000  0  5 23 17 11 12 21
  27573576.203    24985382.368 3  19469145.320 2
  29098597.951    42841856.712 2  33383264.238 1
  28778815.644    -2580952.903 3  -2011122.695 2
  29818131.644     1133810.488 2    883494.876 1
  27224737.712     3753501.551 3   2924829.314 2
 91  7 31  4 26 45.0200000  0  5 23 17 11 12 21
  27584585.789    25043225.804 4  19514218.131 2
  29113641.540    42920913.320 2  33444866.773 1
  28778625.576    -2581958.913 3  -2011906.562 1
  29821183.530     1149804.621 2    895957.903 1
  27228701.267     3774326.563 3   2941056.612 2
 91  7 31  4 27  0.0200000  0  5 23 17 11 12 21
  27595599.861    25101106.782 4  19559320.197 2
  29128703.416    43000034.440 2  33506519.558 1
  28778455.890    -2582842.239 3  -2012594.846 1
  29824257.002     1165931.359 2    908524.208 1
  27232669.918     3795206.154 3   2957326.449 2
 91  7 31  4 27 15.0210000  0  5 23 17 11 12 21
  27606619.031    25159029.671 3  19604454.918 2
  29143770.687    43079225.351 2  33568226.737 1
  28778312.295    -2583602.153 3  -2013186.955 1
  29827340.965     1182192.520 2    921195.291 1
  27236658.046     3816142.229 3   2973640.294 2
 91  7 31  4 27 30.0210000  0  5 23 17 11 12 21
  27617648.999    25216984.714 4  19649614.697 2
  29158849.647    43158473.254 2  33629978.326 1
  28778197.473    -2584240.121 3  -2013684.039 1
  29830463.594     1198584.327 2    933968.199 1
  27240651.895     3837130.056 3   2989994.465 2
 91  7 31  4 27 45.0210000  0  5 23 17 11 12 21
  27628685.267    25274979.942 3  19694805.778 2
  29173944.801    43237787.794 2  33691781.860 1
  28778094.639    -2584751.589 3  -2014082.560 1
  29833611.125     1215112.464 2    946847.227 1
  27244655.324     3858175.241 3   3006393.322 2
 91  7 31  4 28  0.0210000  0  5 23 17 11 12 21
  27639727.817    25333011.798 3  19740025.403 2
  29189051.333    43317165.502 2  33753634.591 1
  28778021.488    -2585139.639 3  -2014384.915 1
  29836779.334     1231773.798 2    959830.211 1
  27248673.132     3879274.220 3   3022834.106 2
 91  7 31  4 28 15.0210000  0  5 23 17 11 12 21
  27650779.965    25391081.410 3  19785274.465 2
  29204162.680    43396607.420 2  33815537.332 1
  28777972.924    -2585402.676 3  -2014589.810 1
  29839974.521     1248569.863 2    972918.004 1
  27252697.257     3900428.292 3   3039317.808 2
 91  7 31  4 28 30.0210000  0  5 23 17 11 12 21
  27661836.301    25449186.711 3  19830551.330 2
  29219294.410    43476111.420 2  33877488.491 1
  28777946.539    -2585542.215 3  -2014698.533 1
  29843197.890     1265498.895 2    986109.471 1
  27256731.555     3921635.416 3   3055842.863 2
 91  7 31  4 28 45.0210000  0  5 23 17 11 12 21
  27672898.657    25507329.927 3  19875857.730 2
  29234432.718    43555679.923 2  33939489.921 1
  28777942.037    -2585555.761 3  -2014709.060 1
  29846447.941     1282563.532 2    999406.686 1
  27260776.655     3942897.871 3   3072411.026 2
 91  7 31  4 29  0.0210000  0  5 23 17 11 12 21
  27683972.391    25565510.414 3  19921193.182 2
  29249590.832    43635311.947 2  34001540.814 1
  28777962.139    -2585443.634 3  -2014621.677 1
  29849717.169     1299763.507 2   1012809.199 1
  27264831.946     3964215.074 3   3089021.852 2
 91  7 31  4 29 15.0210000  0  5 23 17 11 12 21
  27695048.515    25623728.797 3  19966558.150 2
  29264752.541    43715008.426 2  34063641.965 1
  28778012.797    -2585204.497 3  -2014435.301 1
  29853013.393     1317099.947 2   1026318.165 1
  27268901.337     3985587.807 3   3105675.947 2
 91  7 31  4 29 30.0210000  0  5 23 17 11 12 21
  27706133.940    25681984.501 3  20011952.212 2
  29279930.723    43794768.343 2  34125792.538 1
  28778078.148    -2584838.648 3  -2014150.189 2
  29856335.095     1334572.408 2   1039933.190 1
  27272979.104     4007015.361 3   3122372.763 2
 91  7 31  4 29 45.0210000  0  5 23 17 11 12 21
  27717226.869    25740280.992 3  20057378.058 2
  29295128.711    43874595.057 2  34187995.139 1
  28778175.276    -2584342.124 3  -2013763.271 2
  29859693.668     1352184.942 2   1053657.201 1
  27277066.486     4028501.310 3   3139115.082 2
 91  7 31  4 30  0.0210000  0  5 23 17 11 12 21
  27728329.378    25798616.063 3  20102833.952 2
  29310325.477    43954486.401 2  34250248.105 1
  28778288.005    -2583716.658 3  -2013275.878 1
  29863067.232     1369935.651 2   1067488.981 1
  27281169.137     4050043.531 3   3155901.252 2
 91  7 31  4 30 15.0210000  0  5 23 17 11 12 21
  27739437.280    25856990.896 3  20148320.838 2
  29325546.552    44034443.703 2  34312552.454 1
  28778436.995    -2582960.720 3  -2012686.817 1
  29866474.666     1387825.984 2   1081429.498 1
  27285278.698     4071643.231 3   3172732.200 2
 91  7 31  4 30 30.0210000  0  5 23 17 11 12 21
  27750551.795    25915404.840 3  20193838.206 2
  29340769.406    44114466.022 2  34374907.479 1
  28778607.588    -2582074.494 3  -2011996.218 1
  29869903.093     1405855.712 2   1095478.669 1
  27289398.136     4093299.929 3   3189607.567 2
 91  7 31  4 30 45.0210000  0  5 23 17 11 12 21
  27761677.687    25973856.979 3  20239385.316 2
  29356005.453    44194552.518 2  34437312.533 1
  28778797.656    -2581058.492 3  -2011204.515 2
  29873359.702     1424024.380 2   1109636.142 1
  27293528.987     4115012.789 4   3206526.701 2
 91  7 31  4 31  0.0210000  0  5 23 17 11 12 21
  27772807.785    26032347.119 3  20284962.060 2
  29371262.196    44274703.058 2  34499767.496 1
  28779019.500    -2579912.468 3  -2010311.471 1
  29876841.491     1442332.146 2   1123901.974 1
  27297672.715     4136781.661 3   3223489.463 2
 91  7 31  4 31 15.0210000  0  5 23 17 11 12 21
  27783945.683    26090873.417 3  20330566.970 2
  29386526.739    44354915.641 2  34562270.779 1
  28779256.335    -2578637.762 3  -2009318.174 2
  29880354.464     1460777.534 2   1138275.008 1
  27301825.745     4158604.807 3   3240494.536 2
 91  7 31  4 31 30.0210000  0  5 23 17 11 12 21
  27795090.456    26149436.528 3  20376200.563 2
  29401808.052    44435190.642 2  34624822.700 1
  28779526.150    -2577233.424 3  -2008223.875 2
  29883895.009     1479361.442 2   1152755.940 1
  27305991.356     4180482.751 3   3257542.307 2
 91  7 31  4 31 45.0210000  0  5 23 17 11 12 21
  27806240.343    26208035.896 3  20421862.412 2
  29417089.679    44515527.559 2  34687422.851 1
  28779818.145    -2575699.688 3  -2007028.732 1
  29887458.640     1498083.547 2   1167344.634 1
  27310161.173     4202414.762 3   3274632.198 2
 91  7 31  4 32  0.0210000  0  5 23 17 11 12 21
  27817397.122    26266673.505 3  20467554.056 2
  29432387.482    44595928.132 2  34750072.654 1
  28780129.631    -2574033.995 3  -2005730.756 1
  29891043.264     1516946.292 2   1182042.917 1
  27314344.479     4224403.124 3   3291765.996 2
 91  7 31  4 32 15.0210000  0  5 23 17 11 12 21
  27828559.887    26325349.692 3  20513275.770 2
  29447699.385    44676393.138 2  34812772.637 1
  28780477.990    -2572235.416 3  -2004329.244 2
  29894659.664     1535950.527 2   1196851.426 1
  27318541.570     4246448.343 3   3308944.114 2
 91  7 31  4 32 30.0210000  0  5 23 17 11 12 21
  27839735.251    26384066.709 3  20559029.285 2
  29463027.464    44756924.656 2  34875524.417 1
  28780844.339    -2570301.494 3  -2002822.269 2
  29898301.542     1555098.664 2   1211772.097 1
  27322746.462     4268552.518 3   3326168.167 2
 91  7 31  4 32 45.0210000  0  3 23 11 21
  27850917.804    26442829.812 3  20604818.705 1
  28781240.669    -2568226.708 2  -2001205.567 1
  27326963.935     4290721.073 3   3343442.342 1
 91  7 31  4 33  0.0210000  0  5 23 17 11 12 21
  27862106.971    26501627.897 3  20650635.465 1
  29493713.323       47038.80412     36652.401 1
  28781660.975    -2566021.421 2  -1999487.155 1
  29905675.236       46264.82712     36057.326 1
  27331192.210     4312942.933 3   3360758.158 1
 91  7 31  4 33 15.0210000  0  5 23 17 11 12 21
  27873303.310    26560466.736 3  20696483.858 1
  29509074.087      127768.500 2     99558.558 1
  28782108.259    -2563679.421 2  -1997662.206 1
  29909398.956       65846.329 2     51315.551 1
  27335429.769     4335224.048 3   3378120.070 1
 91  7 31  4 33 30.0210000  0  5 23 17 11 12 21
  27884505.355    26619347.248 2  20742364.781
  29524447.449      208565.178 2    162516.967 1
  28782567.252    -2561199.451 2  -1995729.792 1
  29913150.857       85574.169 2     66687.752 1
  27339684.429     4357565.424 2   3395528.914 1
 91  7 31  4 33 45.0210000  0  5 23 17 11 12 21
  27895716.701    26678267.720 2  20788276.827 1
  29539838.803      289427.170 2    225526.257 1
  28783072.994    -2558582.929 2  -1993690.771 1
  29916940.242      105446.835 2     82173.049 1
  27343947.185     4379965.347 3   3412983.416 1
 91  7 31  4 34  0.0210000  0  5 23 17 11 12 21
  27906940.332    26737230.111 3  20834221.541 1
  29555242.424      370356.290 2    288587.998 1
  28783597.931    -2555827.361 2  -1991543.570 1
  29920737.706      125466.640 2     97773.034 1
  27348221.616     4402425.739 3   3430485.049 1
 91  7 31  4 34 15.0210000  0  5 23 17 11 12 21
  27918168.151    26796230.561 3  20880195.940 2
  29570653.863      451348.535 2    351698.680 1
  28784148.346    -2552936.299 3  -1989290.796 1
  29924578.045      145629.914 2    113484.614 1
  27352504.754     4424942.664 3   3448030.715 2
 91  7 31  4 34 30.0210000  0  5 23 17 11 12 21
  27929401.083    26855270.358 3  20926200.989 1
  29586078.791      532404.980 2    414859.650 1
  28784724.552    -2549908.037 2  -1986931.106 1
  29928449.865      165938.445 2    129309.465 1
  27356802.272     4447517.550 3   3465621.572 2
 91  7 31  4 34 45.0210000  0  5 23 17 11 12 21
  27940642.391    26914336.594 2  20972226.610 1
  29601507.611      613512.693 2    478060.481 1
  28785326.533    -2546755.166 2  -1984474.372 1
  29932333.079      186379.599 2    145237.703 1
  27361107.293     4470137.613 2   3483247.608 1
 91  7 31  4 35  0.0210000  0  5 23 17 11 12 21
  27951889.405    26973425.126 2  21018269.616 1
  29616956.201      694667.650 2    541298.012 1
  28785948.005    -2543481.275 2  -1981923.286 1
  29936254.666      206949.591 2    161266.056 1
  27365416.223     4492798.664 3   3500905.592 1
 91  7 31  4 35 15.0210000  0  5 23 17 11 12 21
  27963139.718    27032552.260 3  21064342.739 1
  29632406.903      775886.174 2    604585.144 1
  28786595.251    -2540069.574 2  -1979264.690 1
  29940200.527      227665.219 2    177408.322 1
  27369741.015     4515517.238 3   3518608.394 1
 91  7 31  4 35 30.0210000  0  5 23 17 11 12 21
  27974395.736    27091716.813 3  21110444.985 2
  29647875.300      857166.811 2    667920.675 1
  28787272.494    -2536520.911 2  -1976499.473 1
  29944164.379      248525.520 2    193663.254 1
  27374076.330     4538292.061 3   3536355.025 2
 91  7 31  4 35 45.0210000  0  5 23 17 11 12 21
  27985662.225    27150919.208 3  21156576.738 1
  29663357.185      938509.867 2    731304.808 1
  28787976.104    -2532834.539 2  -1973626.943 1
  29948158.524      269531.107 2    210031.131 1
  27378421.818     4561123.626 3   3554145.862 2
 91  7 31  4 36  0.0210000  0  5 23 17 11 12 21
  27996936.828    27210162.548 3  21202740.378 2
  29678841.461     1019918.331 2    794739.965 1
  28788702.190    -2529006.948 3  -1970644.406 1
  29952185.930      290685.343 2    226514.965 1
  27382777.794     4584015.098 3   3571983.412 2
 91  7 31  4 36 15.0210000  0  5 23 17 11 12 21
  28008217.714    27269442.902 3  21248932.874 1
  29694349.732     1101388.348 2    858223.223 1
  28789459.180    -2525041.669 3  -1967554.565 1
  29956232.531      311984.762 2    243111.998 1
  27387142.774     4606962.654 3   3589864.649 2
 91  7 31  4 36 30.0210000  0  5 23 17 11 12 21
  28019504.602    27328757.407 3  21295151.980 2
  29709861.893     1182916.899 2    921751.888 1
  28790237.129    -2520941.105 2  -1964359.274 1
  29960315.114      333426.862 2    259820.124 1
  27391520.649     4629963.492 3   3607787.383 2
 91  7 31  4 36 45.0210000  0  5 23 17 11 12 21
  28030798.383    27388104.948 3  21341396.817 2
  29725390.842     1264502.904 2    985325.278 1
  28791041.182    -2516705.887 3  -1961059.055 1
  29964426.752      355011.000 2    276639.078 1
  27395908.402     4653016.687 3   3625750.940 2
 91  7 31  4 37  0.0210000  0  5 23 17 11 12 21
  28042096.962    27447487.938 3  21387669.292 2
  29740921.885     1346148.684 2   1048945.434 1
  28791876.402    -2512333.414 3  -1957651.917 1
  29968564.198      376739.779 2    293570.524 1
  27400304.862     4676124.429 3   3643756.995 2
 91  7 31  4 37 15.0210000  0  5 23 17 11 12 21
  28053404.232    27506897.763 3  21433962.659 2
  29756474.217     1427845.611 2   1112605.321 1
  28792733.801    -2507831.869 3  -1954144.214 2
  29972727.105      398604.863 2    310608.256 1
  27404714.218     4699278.153 3   3661798.873 2
 91  7 31  4 37 30.0210000  0  5 23 17 11 12 21
  28064715.708    27566342.770 3  21480283.444 2
  29772029.254     1509601.623 2   1176311.257 1
  28793616.101    -2503192.630 3  -1950529.199 1
  29976912.819      420614.761 2    327758.886 1
  27409127.448     4722486.324 3   3679883.191 2
 91  7 31  4 37 45.0220000  0  5 23 17 11 12 21
  28076034.969    27625826.627 3  21526634.511 2
  29787603.175     1591422.046 2   1240067.381 1
  28794523.865    -2498415.049 3  -1946806.392 1
  29981131.796      442771.187 2    345023.642 1
  27413554.187     4745750.363 3   3698011.032 2
 91  7 31  4 38  0.0220000  0  5 23 17 11 12 21
  28087359.620    27685339.611 3  21573008.265 2
  29803180.391     1673294.287 2   1303863.973 1
  28795459.511    -2493501.100 3  -1942977.319 1
  29985373.857      465069.754 2    362399.188 1
  27417991.411     4769065.407 3   3716178.615 2
 91  7 31  4 38 15.0220000  0  5 23 17 11 12 21
  28098696.572    27744901.932 3  21619420.470 2
  29818773.487     1755239.927 2   1367717.718 1
  28796422.745    -2488434.075 3  -1939028.951 1
  29989638.707      487528.323 2    379899.379 1
  27422439.437     4792449.041 3   3734399.661 2
 91  7 31  4 38 30.0220000  0  5 23 17 11 12 21
  28110039.528    27804518.780 3  21665875.171 2
  29834385.778     1837263.679 2   1431632.270 1
  28797418.368    -2483208.312 3  -1934956.898 1
  29993946.730      510152.428 2    397528.556 1
  27426905.454     4815906.487 3   3752678.201 2
 91  7 31  4 38 45.0220000  0  5 23 17 11 12 21
  28121390.860    27864171.231 3  21712357.602 2
  29850004.979     1919346.758 2   1495593.069 1
  28798436.151    -2477842.140 3  -1930775.431 1
  29998283.824      532923.650 2    415272.410 1
  27431380.754     4839419.283 3   3770999.880 2
 91  7 31  4 39  0.0220000  0  5 23 17 11 12 21
  28132749.102    27923863.753 3  21758871.248 2
  29865634.651     2001493.597 2   1559603.554 1
  28799488.731    -2472330.878 3  -1926480.935 1
  30002646.396      555846.666 2    433134.609 1
  27435865.041     4862991.726 3   3789368.036 2
 91  7 31  4 39 15.0220000  0  5 23 17 11 12 21
  28144116.941    27983596.086 3  21805415.944 2
  29881274.216     2083703.743 2   1623663.440 1
  28800564.083    -2466674.531 3  -1922073.380 1
  30007037.464      578921.391 2    451114.883 1
  27440359.833     4886623.525 3   3807782.435 2
 91  7 31  4 39 30.0220000  0  5 23 17 11 12 21
  28155491.953    28043370.123 3  21851993.107 2
  29896935.089     2165979.049 2   1687774.017 1
  28801667.024    -2460870.699 3  -1917550.892 1
  30011456.994      602150.034 2    469215.177 1
  27444868.411     4910316.852 3   3826244.790 2
 91  7 31  4 39 45.0220000  0  5 23 17 11 12 21
  28166872.078    28103185.227 3  21898602.293 2
  29912598.945     2248318.625 2   1751934.714 1
  28802799.037    -2454919.730 3  -1912913.725 1
  30015908.911      625532.079 2    487434.894 1
  27449389.588     4934070.844 3   3844754.416 2
 91  7 31  4 40  0.0220000  0  5 23 17 11 12 21
  28178264.487    28163040.493 3  21945242.762 2
  29928285.277     2330721.888 2   1816145.041 1
  28803961.937    -2448822.030 3  -1908162.244 2
  30020385.712      649067.117 2    505773.915 1
  27453924.237     4957884.839 3   3863310.794 2
 91  7 31  4 40 15.0220000  0  5 23 17 11 12 21
  28189663.510    28222935.123 3  21991913.907 2
  29943985.413     2413187.928 2   1880404.229 1
  28805148.517    -2442577.853 3  -1903296.637 1
  30024891.899      672754.809 2    524231.846 1
  27458464.295     4981758.156 3   3881913.396 2
 91  7 31  4 40 30.0220000  0  5 23 17 11 12 21
  28201066.111    28282871.767 3  22038617.792 2
  29959682.547     2495719.139 2   1944714.287 1
  28806363.262    -2436184.385 3  -1898314.684 2
  30029430.753      696597.873 2    542810.936 1
  27463020.250     5005693.305 3   3900564.187 2
 91  7 31  4 40 45.0220000  0  5 23 17 11 12 21
  28212477.105    28342843.594 3  22085349.087 2
  29975397.358     2578308.326 2   2009069.438 1
  28807610.115    -2429648.265 3  -1893221.599 1
  30033989.710      720589.643 2    561505.800 1
  27467586.082     5029683.405 3   3919257.776 2
 91  7 31  4 41  0.0220000  0  5 23 17 11 12 21
  28223898.901    28402855.463 3  22132111.592 2
  29991134.069     2660960.579 2   2073473.757 1
  28808882.428    -2422964.175 3  -1888013.174 1
  30038582.816      744735.257 2    580320.664 1
  27472162.122     5053733.366 3   3937998.024 2
 91  7 31  4 41 15.0220000  0  5 23 17 11 12 21
  28235326.682    28462909.652 3  22178907.070 2
  30006863.573     2743678.043 2   2137928.876 1
  28810179.031    -2416129.222 3  -1882687.215 1
  30043215.221      769037.557 2    599257.538 1
  27476750.134     5077845.794 3   3956786.958 2
 91  7 31  4 41 30.0220000  0  5 23 17 11 12 21
  28246765.579    28523003.363 3  22225733.342 2
  30022620.369     2826457.728 2   2202432.552 1
  28811511.914    -2409145.922 3  -1877245.680 1
  30047867.100      793493.997 2    618314.550 1
  27481349.557     5102017.875 3   3975622.357 2
 91  7 31  4 41 45.0220000  0  5 23 17 11 12 21
  28258207.442    28583136.028 3  22272589.963 2
  30038383.168     2909299.036 2   2266984.199 1
  28812867.865    -2402014.484 3  -1871688.678 1
  30052553.757      818104.082 2    637491.222 1
  27485960.673     5126248.932 3   3994503.719 2
 91  7 31  4 42  0.0220000  0  5 23 17 11 12 21
  28269655.326    28643307.801 3  22319477.070 2
  30054160.346     2992201.962 2   2331583.896 1
  28814252.610    -2394734.423 3  -1866015.896 1
  30057264.984      842868.298 2    656788.066 1
  27490581.071     5150539.287 3   4013431.286 2
 91  7 31  4 42 15.0220000  0  5 23 17 11 12 21
  28281114.291    28703519.120 3  22366394.978 2
  30069946.215     3075167.051 2   2396231.942 1
  28815670.021    -2387305.007 3  -1860226.721 1
  30062000.502      867787.424 2    676205.586 1
  27495216.460     5174889.460 3   4032405.460 2
 91  7 31  4 42 30.0220000  0  5 23 17 11 12 21
  28292578.351    28763771.472 3  22413344.868 2
  30085757.560     3158195.269 2   2460929.199 1
  28817109.926    -2379724.274 3  -1854319.657 1
  30066775.597      892863.204 2    695745.151 1
  27499862.633     5199300.942 3   4051427.419 2
 91  7 31  4 42 45.0220000  0  5 23 17 11 12 21
  28304054.103    28824063.137 3  22460325.391 2
  30101553.026     3241285.116 2   2525674.488 1
  28818581.311    -2371993.511 3  -1848295.627 2
  30071577.688      918094.221 2    715405.701 1
  27504518.421     5223771.927 3   4070495.730 2
 91  7 31  4 43  0.0220000  0  5 23 17 11 12 21
  28315535.561    28884391.900 3  22507334.809 2
  30117383.271     3324434.390 2   2590466.122 1
  28820080.267    -2364114.530 3  -1842156.147 1
  30076410.334      943478.608 2    735185.793 1
  27509187.384     5248300.374 3   4089608.826 2
 91  7 31  4 43 15.0220000  0  5 23 17 11 12 21
  28327020.613    28944759.961 3  22554374.867 2
  30133211.107     3407645.113 2   2655305.656 1
  28821606.516    -2356084.962 3  -1835899.315 2
  30081267.864      969018.717 2    755087.181 1
  27513865.351     5272888.549 3   4108768.463 2
 91  7 31  4 43 30.0220000  0  5 23 17 11 12 21
  28338516.450    29005167.104 3  22601445.363 2
  30149064.141     3490916.885 2   2720192.688 1
  28823162.744    -2347904.639 3  -1829525.016 2
  30086162.877      994714.551 2    775109.970 1
  27518555.603     5297536.182 3   4127974.439 2
 91  7 31  4 43 45.0220000  0  5 23 17 11 12 21
  28350020.384    29065612.858 3  22648545.952 2
  30164921.066     3574249.219 2   2785126.958 1
  28824752.546    -2339573.702 3  -1823033.369 1
  30091081.884     1020566.018 2    795253.977 1
  27523257.546     5322242.937 3   4147226.473 2
 91  7 31  4 44  0.0220000  0  5 23 17 11 12 21
  28361529.728    29126098.184 3  22695677.390 2
  30180786.072     3657643.049 2   2850109.159 1
  28826362.433    -2331090.727 3  -1816423.255 1
  30096024.553     1046574.396 2    815520.284 1
  27527968.791     5347009.941 3   4166525.445 2
 91  7 31  4 44 15.0220000  0  5 23 17 11 12 21
  28373046.854    29186624.403 3  22742840.675 2
  30196671.773     3741099.502 2   2915140.120 1
  28828009.489    -2322454.136 3  -1809693.392 1
  30101007.707     1072741.095 2    835909.893 1
  27532693.211     5371838.266 3   4185872.208 2
 91  7 31  4 44 30.0220000  0  5 23 17 11 12 21
  28384571.170    29247189.326 3  22790034.128 2
  30212566.181     3824616.079 2   2980217.942 1
  28829680.819    -2313665.770 3  -1802845.283 1
  30106015.745     1099064.150 2    856421.368 1
  27537429.043     5396725.895 3   4205265.176 2
 91  7 31  4 44 45.0220000  0  5 23 17 11 12 21
  28396105.380    29307792.611 3  22837257.461 2
  30228467.169     3908192.720 2   3045342.525 1
  28831382.442    -2304725.666 3  -1795878.957 1
  30111057.043     1125543.539 2    877054.772 1
  27542175.345     5421672.538 3   4224704.152 2
 91  7 31  4 45  0.0220000  0  5 23 17 11 12 21
  28407641.108    29368431.928 3  22884508.887 2
  30244383.146     3991826.586 2   3110511.771 1
  28833109.246    -2295635.827 3  -1788795.942 1
  30116120.852     1152177.158 2    897808.253 1
  27546936.358     5446675.859 3   4244187.273 2
 91  7 31  4 45 15.0220000  0  5 23 17 11 12 21
  28419191.512    29429109.659 3  22931790.224 2
  30260308.127     4075519.993 2   3175727.414 1
  28834873.829    -2286393.379 3  -1781594.022 1
  30121213.419     1178967.731 2    918684.040 1
  27551704.560     5471738.343 3   4263716.487 2
 91  7 31  4 45 30.0220000  0  5 23 17 11 12 21
  28430742.805    29489821.610 3  22979098.256 2
  30276253.194     4159268.952 2   3240986.337 1
  28836652.809    -2277002.234 3  -1774276.219 1
  30126344.673     1205911.304 2    939679.069 1
  27556484.750     5496855.869 3   4283288.603 2
 91  7 31  4 45 45.0220000  0  5 23 17 11 12 21
  28442303.400    29550572.473 3  23026436.577 2
  30292192.258     4243077.793 2   3306291.885 1
  28838472.535    -2267457.396 3  -1766838.658 1
  30131502.887     1233012.674 2    960797.030 1
  27561275.428     5522033.038 3   4302907.186 2
 91  7 31  4 46  0.0220000  0  5 23 17 11 12 21
  28453869.405    29611358.141 3  23073802.040 1
  30308152.000     4326942.092 2   3371640.698 1
  28840315.069    -2257762.685 3  -1759284.308 1
  30136691.710     1260268.018 2    982034.935 1
  27566075.407     5547265.833 3   4322569.120 2
 91  7 31  4 46 15.0220000  0  5 23 17 11 12 21
  28465446.786    29672181.553 3  23121196.918 1
  30324120.450     4410865.310 2   3437035.306 1
  28842194.457    -2247914.530 3  -1751610.399 1
  30141914.089     1287680.648 2   1003395.513 1
  27570890.970     5572557.438 3   4342276.896 2
 91  7 31  4 46 30.0220000  0  5 23 17 11 12 21
  28477025.966    29733043.804 3  23168622.031 1
  30340101.185     4494848.064 2   3502476.409 1
  28844096.653    -2237911.625 3  -1743815.916 1
  30147160.462     1315251.902 2   1024879.594 1
  27575713.424     5597908.904 3   4362031.287 2
 91  7 31  4 46 45.0220000  0  5 23 17 11 12 21
  28488613.242    29793942.099 3  23216075.244 2
  30356101.412     4578887.485 2   3567961.625 1
  28846026.717    -2227756.372 3  -1735902.711 1
  30152433.499     1342979.223 2   1046485.382 1
  27580549.979     5623317.470 3   4381830.186 2
 91  7 31  4 47  0.0220000  0  5 23 17 11 12 21
  28500211.023    29854878.487 3  23263558.144 1
  30372106.420     4662985.758 2   3633492.567
  28847985.556    -2217446.480 3  -1727869.030 1
  30157735.643     1370864.813 2   1068214.394 1
  27585396.131     5648785.213 3   4401675.194 2
 91  7 31  4 47 15.0220000  0  5 23 17 11 12 21
  28511812.381    29915850.301 3  23311068.652 2
  30388115.948     4747139.977 2   3699067.493 1
  28849982.472    -2206984.248 3  -1719716.600 1
  30163074.641     1398906.333 2   1090064.991 1
  27590252.771     5674309.577 3   4421564.329 2
 91  7 31  4 47 30.0220000  0  5 23 17 11 12 21
  28523422.447    29976857.153 3  23358606.459 2
  30404136.853     4831349.551 2   3764685.302 1
  28852001.270    -2196369.966 3  -1711445.692 1
  30168439.432     1427103.522 2   1112036.774 1
  27595119.288     5699890.119 3   4441497.228 2
 91  7 31  4 47 45.0220000  0  5 23 17 11 12 21
  28535039.703    30037899.559 3  23406171.982 2
  30420177.547     4915614.463 2   3830346.252 1
  28854047.360    -2185602.817 3  -1703055.692 1
  30173834.481     1455456.886 2   1134130.366 1
  27599999.922     5725527.202 3   4461474.198 2
 91  7 31  4 48  0.0230000  0  5 23 17 11 12 21
  28546663.558    30098983.252 3  23453769.654 2
  30436217.650     4999942.357 2   3896056.230 1
  28856124.323    -2174679.904 3  -1694544.312 1
  30179261.938     1483970.412 2   1156348.699 1
  27604889.825     5751224.369 3   4481497.981 2
 91  7 31  4 48 15.0230000  0  5 23 17 11 12 21
  28558291.005    30160099.790 3  23501392.919 1
  30452273.631     5084321.503 2   3961806.195 1
  28858235.154    -2163602.579 3  -1685912.610 2
  30184714.258     1512640.364 2   1178688.930 1
  27609788.747     5776978.051 3   4501565.793 2
 91  7 31  4 48 30.0230000  0  5 23 17 11 12 21
  28569927.159    30221251.099 3  23549043.317 2
  30468341.599     5168755.349 2   4027598.682 1
  28860372.684    -2152371.917 3  -1677161.425 1
  30190199.856     1541466.577 2   1201150.993 1
  27614699.640     5802787.855 3   4521677.342 2
 91  7 31  4 48 45.0230000  0  5 23 17 11 12 21
  28581574.080    30282439.462 3  23596722.537 1
  30484427.873     5253246.100 2   4093435.595 1
  28862541.083    -2140985.321 3  -1668288.708 1
  30195718.732     1570451.589 2   1223736.729 1
  27619623.428     5828656.109 3   4541834.433 2
 91  7 31  4 49  0.0230000  0  5 23 17 11 12 21
  28593224.020    30343662.992 3  23644429.187 1
  30500509.645     5337791.642 2   4159315.437 1
  28864735.552    -2129444.437 3  -1659295.785 1
  30201262.806     1599593.649 2   1246444.799 1
  27624556.814     5854581.016 3   4562035.670 2
 91  7 31  4 49 15.0230000  0  5 23 17 11 12 21
  28604881.446    30404922.668 3  23692163.989 1
  30516611.781     5422392.595 2   4225238.142 1
  28866960.019    -2117747.883 3  -1650181.583 1
  30206840.436     1628893.922 2   1269276.164 1
  27629500.094     5880563.398 3   4582281.689 2
 91  7 31  4 49 30.0230000  0  5 23 17 11 12 21
  28616549.080    30466219.578 3  23739927.829 1
  30532725.329     5507050.393 2   4291205.207 1
  28869212.667    -2105894.253 3  -1640944.948 1
  30212446.563     1658353.886 2   1292232.037 1
  27634457.771     5906604.572 3   4602573.542 2
 91  7 31  4 49 45.0230000  0  5 23 17 11 12 21
  28628215.493    30527551.624 3  23787719.023 2
  30548843.973     5591762.660 2   4357214.619 1
  28871502.782    -2093885.379 3  -1631587.354 1
  30218079.354     1687971.613 2   1315310.826 1
  27639421.730     5932702.433 3   4622909.546 2
 91  7 31  4 50  0.0230000  0  5 23 17 11 12 21
  28639894.819    30588920.623 3  23835539.020 2
  30564975.513     5676530.672 2   4423267.662 1
  28873818.373    -2081719.362 3  -1622107.328 1
  30223749.331     1717748.986 2   1338514.014 1
  27644397.973     5958858.691 3   4643291.068 2
 91  7 31  4 50 15.0230000  0  5 23 17 11 12 21
  28651577.722    30650324.377 3  23883386.095 2
  30581108.536     5761352.423 2   4489362.502 1
  28876164.555    -2069397.986 3  -1612506.243 1
  30229440.597     1747683.965 2   1361839.981 1
  27649388.631     5985071.216 3   4663716.428 2
 91  7 31  4 50 30.0230000  0  5 23 17 11 12 21
  28663269.037    30711765.590 3  23931262.379 2
  30597265.553     5846230.520 2   4555501.268 1
  28878537.401    -2056918.089 3  -1602781.621 1
  30235173.221     1777779.766 2   1385291.293 1
  27654385.274     6011342.905 3   4684187.889 2
 91  7 31  4 50 45.0230000  0  5 23 17 11 12 21
  28674969.634    30773243.254 3  23979167.049 2
  30613421.366     5931163.816 2   4621683.026 1
  28880944.431    -2044280.538 3  -1592934.171 2
  30240929.245     1808035.357 2   1408867.100
  27659396.296     6037672.618 3   4704704.563 2
 91  7 31  4 51  0.0230000  0  5 23 17 11 12 21
  28686674.124    30834756.576 3  24027099.514 2
  30629598.171     6016151.517 2   4687907.200 1
  28883379.051    -2031485.757 3  -1582964.192 1
  30246715.231     1838450.095 2   1432566.944 1
  27664420.824     6064059.732 3   4725265.967 2
 91  7 31  4 51 15.0230000  0  5 23 17 11 12 21
  28698388.821    30896304.905 3  24075059.240 2
  30645785.168     6101192.757 2   4754173.119 1
  28885839.741    -2018533.953 3  -1572871.859 1
  30252530.010     1869023.834 2   1456390.637 1
  27669451.635     6090503.807 3   4745871.754 2
 91  7 31  4 51 30.0230000  0  5 23 17 11 12 21
  28710109.208    30957888.536 3  24123046.477 2
  30661982.652     6186287.709 2   4820480.814 1
  28888335.820    -2005424.593 3  -1562656.756 1
  30258381.365     1899756.893 2   1480338.512 1
  27674494.748     6117005.024 3   4766522.067 2
 91  7 31  4 51 45.0230000  0  5 23 17 11 12 21
  28721832.892    31019506.036 3  24171060.107 2
  30678182.841     6271435.025 2   4886829.310 1
  28890859.470    -1992158.721 3  -1552319.680 1
  30264258.493     1930648.183 2   1504409.642 1
  27679546.848     6143562.198 3   4787215.989 2
 91  7 31  4 52  0.0230000  0  5 23 17 11 12 21
  28733566.174    31081162.395 3  24219104.040 2
  30694401.003     6356639.303 2   4953222.241 1
  28893416.399    -1978731.257 3  -1541856.714 1
  30270167.102     1961702.752 2   1528608.035 1
  27684615.438     6170180.094 3   4807957.215 2
 91  7 31  4 52 15.0230000  0  5 23 17 11 12 21
  28745304.534    31142853.873 3  24267175.296 2
  30710616.479     6441896.773 2   5019656.561 1
  28896000.008    -1965145.494 3  -1531270.371 1
  30276111.676     1992916.994 2   1552930.832 1
  27689688.234     6196855.142 3   4828742.988 2
 91  7 31  4 52 30.0230000  0  5 23 17 11 12 21
  28757046.507    31204580.484 3  24315273.979 2
  30726851.742     6527207.110 2   5086132.019 1
  28898616.912    -1951401.408 3  -1520560.674 1
  30282077.260     2024290.918 2   1577377.982 1
  27694775.112     6223587.073 3   4849573.093 2
 91  7 31  4 52 45.0230000  0  5 23 17 11 12 21
  28768804.970    31266344.149 3  24363401.509 1
  30743096.290     6612572.252 2   5152650.508 1
  28901261.074    -1937496.704 3  -1509725.831 2
  30288078.494     2055826.657 2   1601951.351 1
  27699874.868     6250378.011 3   4870449.163 2
 91  7 31  4 53  0.0230000  0  5 23 17 11 12 21
  28780561.024    31328144.348 3  24411557.493 2
  30759354.937     6697991.842 2   5219211.190 1
  28903940.014    -1923431.475 3  -1498765.902 1
  30294109.726     2087523.956 2   1626650.514 1
  27704983.646     6277227.501 3   4891370.852 2
 91  7 31  4 53 15.0230000  0  5 23 17 11 12 21
  28792330.882    31389979.448 3  24459740.694 2
  30775610.582     6783463.817 2   5285812.664 1
  28906645.339    -1909206.980 3  -1487681.853 1
  30300171.530     2119381.516 2   1651474.682 1
  27710104.098     6304134.025 3   4912336.987 2
 91  7 31  4 53 30.0230000  0  5 23 17 11 12 21
  28804104.334    31451849.995 3  24507951.509 2
  30791888.721     6868988.625 2   5352455.336 1
  28909381.550    -1894822.308 3  -1476472.971 1
  30306270.800     2151400.262 2   1676424.316 1
  27715234.742     6331098.315 3   4933348.139 2
 91  7 31  4 53 45.0230000  0  5 23 17 11 12 21
  28815886.180    31513757.538 2  24556191.152 1
  30808175.551     6954567.835 2   5419140.352 1
  28912146.241    -1880275.868 2  -1465137.994 1
  30312379.982     2183581.546 2   1701500.695 1
  27720375.279     6358121.688 3   4954405.326 1
 91  7 31  4 54  0.0230000  0  5 23 17 11 12 21
  28827671.918    31575701.770 3  24604459.406 1
  30824469.569     7040200.732 2   5485867.190 1
  28914946.006    -1865567.572 3  -1453677.055 1
  30318547.901     2215925.347 2   1726703.616 1
  27725529.916     6385203.984 3   4975508.454 2
 91  7 31  4 54 15.0230000  0  5 23 17 11 12 21
  28839465.752    31637683.879 3  24652757.145 1
  30840778.281     7125888.512 2   5552636.820 1
  28917778.438    -1850695.908 3  -1442088.733 1
  30324734.718     2248433.045 2   1752034.304 1
  27730697.432     6412346.660 3   4996658.588 2
 91  7 31  4 54 30.0230000  0  5 23 17 11 12 21
  28851267.387    31699698.678 3  24701080.370 2
  30857094.775     7211625.751 2   5619445.082 1
  28920637.866    -1835665.850 3  -1430376.986 1
  30330950.015     2281099.590 2   1777488.761 1
  27735871.264     6439544.251 3   5017851.538 2
 91  7 31  4 54 45.0230000  0  5 23 17 11 12 21
  28863074.414    31761748.905 3  24749431.201 2
  30873414.271     7297415.047 2   5686293.860 1
  28923527.866    -1820474.484 3  -1418539.540 1
  30337202.183     2313927.798 2   1803069.237 1
  27741057.958     6466799.524 3   5039089.428 2
 91  7 31  4 55  0.0230000  0  5 23 17 11 12 21
  28874888.630    31823835.939 3  24797810.713 1
  30889753.573     7383257.584 2   5753184.121 1
  28926450.237    -1805120.062 3  -1406575.007 1
  30343473.547     2346919.257 2   1828776.892 1
  27746256.971     6494114.031 3   5060373.468 2
 91  7 31  4 55 15.0230000  0  5 23 17 11 12 21
  28886711.850    31885959.838 3  24846218.944 1
  30906101.845     7469153.431 2   5820115.825 1
  28929404.087    -1789602.151 3  -1394483.129 1
  30349785.378     2380074.284 2   1854612.001 1
  27751466.751     6521487.965 3   5081703.820 2
 91  7 31  4 55 30.0230000  0  5 23 17 11 12 21
  28898541.650    31948120.491 3  24894655.826 1
  30922450.430     7555102.438 2   5887089.226 1
  28932388.825    -1773920.734 3  -1382263.812 2
  30356121.500     2413392.802 2   1880574.574 1
  27756685.552     6548921.100 3   5103080.313 2
 91  7 31  4 55 45.0230000  0  5 23 17 11 12 21
  28910375.358    32010315.180 3  24943119.209 2
  30938814.599     7641101.584 2   5954101.381 1
  28935405.933    -1758078.169 3  -1369918.942 2
  30362494.477     2446872.261 2   1906662.390 1
  27761915.732     6576410.724 3   5124500.810 2
 91  7 31  4 56  0.0230000  0  5 23 17 11 12 21
  28922216.866    32072546.595 3  24991611.221 1
  30955192.867     7727153.684 2   6021155.008 1
  28938447.331    -1742071.389 3  -1357446.104 1
  30368892.058     2480515.609 2   1932878.015 1
  27767156.992     6603959.723 3   5145967.576 2
 91  7 31  4 56 15.0230000  0  5 23 17 11 12 21
  28934066.454    32134813.559 3  25040130.947 2
  30971575.324     7813257.271 2   6088248.643 1
  28941526.195    -1725901.446 3  -1344846.130 1
  30375328.606     2514321.709 2   1959220.467 1
  27772411.759     6631566.803 3   5167479.606 2
 91  7 31  4 56 30.0230000  0  5 23 17 11 12 21
  28945924.156    32197115.068 3  25088677.579 2
  30987974.567     7899411.188 2   6155381.543 1
  28944634.445    -1709569.200 3  -1332119.665 1
  30381797.524     2548289.768 2   1985689.113 1
  27777676.123     6659230.958 3   5189036.100 2
 91  7 31  4 56 45.0230000  0  5 23 17 11 12 21
  28957786.640    32259453.262 3  25137252.797 1
  31004373.810     7985617.561 2   6222555.276 1
  28947775.380    -1693072.102 3  -1319264.773 2
  30388291.622     2582422.179 2   2012285.754 1
  27782953.069     6686954.594 3   5210638.961 2
 91  7 31  4 57  0.0230000  0  5 23 17 11 12 21
  28969656.330    32321829.848 3  25185857.930 1
  31020785.356     8071877.533 1   6289770.749 1
  28950946.870    -1676408.296 3  -1306279.972 1
  30394815.107     2616720.618 2   2039011.824 1
  27788239.909     6714739.249 3   5232289.355 2
 91  7 31  4 57 15.0230000  0  5 23 17 11 12 21
  28981528.708    32384240.869 2  25234489.894 1
  31037213.986     8158187.043 2   6357025.123 1
  28954146.262    -1659581.424 2  -1293168.137 1
  30401364.365     2651181.203 2   2065864.445 1
  27793536.329     6742581.107 3   5253984.326 2
 91  7 31  4 57 30.0230000  0  5 23 17 11 12 21
  28993414.575    32446685.967 3  25283148.405 2
  31053648.304     8244545.757 2   6424317.454 1
  28957381.917    -1642591.627 3  -1279929.306 1
  30407963.113     2685803.696 2   2092842.897 1
  27798845.366     6770479.784 3   5275723.564 2
 91  7 31  4 57 45.0230000  0  5 23 17 11 12 21
  29005305.537    32509166.309 3  25331834.397 2
  31070092.517     8330954.748 2   6491649.122 1
  28960643.659    -1625437.425 3  -1266562.350 1
  30414579.520     2720589.473 2   2119948.686
  27804166.077     6798436.431 3   5297507.995 2
 91  7 31  4 58  0.0230000  0  5 23 17 11 12 21
  29017200.408    32571684.216 3  25380549.661 2
  31086544.827     8417416.414 2   6559021.760 1
  28963940.180    -1608115.989 3  -1253065.118 2
  30421231.613     2755541.248 2   2147183.814 1
  27809499.387     6826453.662 3   5319339.605 2
 91  7 31  4 58 15.0240000  0  5 23 17 11 12 21
  29029105.177    32634241.793 3  25429295.824 2
  31103010.629     8503934.049 2   6626438.067 1
  28967268.480    -1590628.101 3  -1239438.174 2
  30427915.486     2790659.382 2   2174548.599 1
  27814841.094     6854531.290 4   5341218.296 2
 91  7 31  4 58 30.0240000  0  5 23 17 11 12 21
  29041016.224    32696831.891 3  25478067.315 1
  31119483.634     8590497.324 2   6693889.892 1
  28970628.851    -1572974.867 3  -1225682.382 1
  30434623.646     2825940.296 2   2202040.297 1
  27820196.286     6882666.636 3   5363141.953 2
 91  7 31  4 58 45.0240000  0  5 23 17 11 12 21
  29052933.868    32759456.477 3  25526865.699 2
  31135964.719     8677109.303 2   6761379.728 1
  28974019.498    -1555157.165 3  -1211798.448 2
  30441373.181     2861384.206 2   2229658.921 1
  27825561.373     6910859.310 4   5385110.287 2
 91  7 31  4 59  0.0240000  0  5 23 17 11 12 21
  29064861.423    32822116.526 3  25575691.723 2
  31152460.200     8763771.083 2   6828908.467 1
  28977444.034    -1537173.588 3  -1197785.251 1
  30448146.989     2896992.375 2   2257405.547 1
  27830937.838     6939110.540 4   5407124.253 3
 91  7 31  4 59 15.0240000  0  5 23 17 11 12 21
  29076788.054    32884810.943 3  25624544.515 2
  31168955.682     8850481.419 2   6896474.878 1
  28980896.141    -1519025.044 3  -1183643.509 2
  30454954.075     2932763.800 2   2285279.393 1
  27836322.713     6967419.255 4   5429183.006 2
 91  7 31  4 59 30.0240000  0  5 23 17 11 12 21
  29088723.689    32947539.938 3  25673424.257 1
  31185467.043     8937240.363 2   6964079.132 1
  28984378.524    -1500711.064 3  -1169372.853 1
  30461795.031     2968698.725 2   2313280.622 1
  27841720.484     6995785.548 4   5451286.624 2
 91  7 31  4 59 45.0240000  0  5 23 17 11 12 21
  29100665.326    33010301.442 3  25722329.328 2
  31201983.220     9024045.962 2   7031719.838 1
  28987892.997    -1482233.398 3  -1154974.668 2
  30468665.985     3004795.312 2   2341407.817 1
  27847131.134     7024207.558 4   5473433.665 2
 91  7 31  5  0  0.0240000  0  5 23 17 11 12 21
  29112618.359    33073096.220 3  25771260.321 2
  31218514.667     9110898.361 2   7099397.020 1
  28991444.937    -1463591.283 3  -1140448.308 1
  30475564.509     3041054.391 2   2369661.690 1
  27852548.379     7052685.931 4   5495624.622 2
 91  7 31  5  0 15.0240000  0  5 23 17 11 12 21
  29124573.782    33135927.270 3  25820219.588 2
  31235042.832     9197800.920 2   7167113.252 1
  28995022.371    -1444781.214 3  -1125791.103 2
  30482496.312     3077479.177 2   2398044.654 1
  27857981.225     7081223.942 4   5517862.047 2
 91  7 31  5  0 30.0240000  0  5 23 17 11 12 21
  29136535.802    33198792.840 3  25869205.750 1
  31251597.365     9284751.174 2   7234866.626 1
  28998631.861    -1425804.713 3  -1111004.214 2
  30489459.594     3114067.965 2   2426555.410 1
  27863422.447     7109819.865 4   5540144.603 2
 91  7 31  5  0 45.0240000  0  5 23 17 11 12 21
  29148505.901    33261688.711 3  25918215.523 2
  31268148.914     9371745.000 2   7302653.985 1
  29002272.553    -1406665.755 3  -1096090.714 1
  30496447.743     3150816.638 2   2455190.757 1
  27868872.988     7138469.482 4   5562468.988 2
 91  7 31  5  1  0.0240000  0  5 23 17 11 12 21
  29160477.518    33324617.341 3  25967250.826 2
  31284703.744     9458784.693 2   7370477.020 1
  29005949.191    -1387361.832 3  -1081048.681 2
  30503470.688     3187727.668 2   2483952.612 1
  27874335.500     7167175.189 4   5584837.080 2
 91  7 31  5  1 15.0240000  0  5 23 17 11 12 21
  29172459.623    33387578.761 3  26016311.669 1
  31301278.973     9545870.289 2   7438335.895 1
  29009651.936    -1367892.703 3  -1065877.898 1
  30510527.504     3224801.174 2   2512841.106 1
  27879807.609     7195936.975 4   5607248.877 2
 91  7 31  5  1 30.0240000  0  5 23 17 11 12 21
  29184442.635    33450573.532 3  26065398.507 2
  31317859.594     9633001.797 2   7506230.555 1
  29013391.552    -1348257.542 3  -1050577.759 2
  30517615.189     3262037.795 2   2541856.692 1
  27885290.223     7224755.486 4   5629704.875 2
 91  7 31  5  1 45.0240000  0  5 23 17 11 12 21
  29196439.119    33513603.800 3  26114513.008 1
  31334450.406     9720181.390 2   7574162.661 1
  29017157.833    -1328453.829 3  -1035146.297 2
  30524731.370     3299439.901 2   2571001.244 1
  27890785.715     7253632.957 3   5652206.812 2
 91  7 31  5  2  0.0240000  0  5 23 17 11 12 21
  29208441.309    33576664.979 3  26163651.588 1
  31351051.723     9807404.402 2   7642128.728 1
  29020958.909    -1308486.069 3  -1019586.990 2
  30531878.421     3337002.974 2   2600271.148 1
  27896294.400     7282564.761 3   5674751.093 2
 91  7 31  5  2 15.0240000  0  5 23 17 11 12 21
  29220447.704    33639761.319 3  26212817.545 2
  31367655.116     9894674.950 2   7710131.620 1
  29024791.448    -1288349.836 3  -1003896.418 1
  30539063.548     3374731.298 2   2629669.820 1
  27901809.977     7311555.356 3   5697341.162 2
 91  7 31  5  2 30.0240000  0  5 23 17 11 12 21
  29232460.382    33702887.980 3  26262007.167 1
  31384270.830     9981988.124 1   7778167.826 1
  29028654.280    -1268049.699 3   -988078.086 1
  30546262.461     3412620.180 2   2659193.657 1
  27907334.263     7340599.950 3   5719973.331 2
 91  7 31  5  2 45.0240000  0  5 23 17 11 12 21
  29244480.266    33766043.900 3  26311219.582 2
  31400895.216    10069342.784 2   7846236.314 1
  29032543.794    -1247586.470 3   -972132.694 2
  30553509.345     3450668.737 2   2688841.862 1
  27912874.113     7369697.443 4   5742646.746 2
 91  7 31  5  3  0.0240000  0  5 23 17 11 12 21
  29256503.449    33829234.030 3  26360458.621 1
  31417539.094    10156743.545 2   7914340.753 1
  29036472.571    -1226955.094 3   -956056.304 1
  30560780.815     3488881.950 2   2718618.466 1
  27918421.171     7398852.709 3   5765365.139 2
 91  7 31  5  3 15.0240000  0  5 23 17 11 12 21
  29268537.712    33892456.354 3  26409722.783 2
  31434167.983    10244188.074 2   7982479.314 1
  29040430.124    -1206157.528 3   -939850.380 1
  30568083.156     3527257.821 2   2748521.735 1
  27923981.421     7428063.724 4   5788126.985 2
 91  7 31  5  3 30.0240000  0  5 23 17 11 12 21
  29280571.086    33955708.638 3  26459010.280 2
  31450830.148    10331674.111 2   8050650.177 1
  29044420.971    -1185195.572 3   -923516.388 1
  30575421.182     3565794.225 2   2778550.086 1
  27929550.379     7457328.391 4   5810930.643 2
 91  7 31  5  3 45.0240000  0  5 23 17 11 12 21
  29292615.243    34018991.892 3  26508321.909 2
  31467477.010    10419202.655 2   8118854.222 1
  29048440.890    -1164067.867 3   -907053.214 1
  30582782.888     3604492.393 2   2808704.521 1
  27935127.120     7486647.891 4   5833777.015 2
 91  7 31  5  4  0.0240000  0  5 23 17 11 12 21
  29304664.811    34082309.785 3  26557660.512 2
  31484143.679    10506777.133 2   8187093.939 1
  29052493.773    -1142770.613 3   -890457.938 1
  30590177.854     3643356.038 2   2838987.914 1
  27940717.943     7516025.775 3   5856668.877 2
 91  7 31  5  4 15.0240000  0  5 23 17 11 12 21
  29316717.362    34145656.446 3  26607021.548 1
  31500813.348    10594391.250 2   8255364.863 1
  29056577.857    -1121309.558 3   -873735.019 2
  30597602.816     3682379.347 2   2869395.719 1
  27946321.068     7545456.221 3   5879601.705 2
 91  7 31  5  4 30.0240000  0  5 23 17 11 12 21
  29328778.010    34209034.136 3  26656406.751 2
  31517484.501    10682047.748 2   8323668.520 1
  29060690.699    -1099682.115 3   -856882.446 1
  30605057.759     3721564.738 2   2899929.778 1
  27951929.289     7574941.669 3   5902577.394 2
 91  7 31  5  4 45.0240000  0  5 23 17 11 12 21
  29340846.459    34272445.415 3  26705818.135 1
  31534181.445    10769748.414 2   8392006.527 1
  29064838.930    -1077885.746 3   -839898.251 1
  30612548.980     3760914.676 2   2930592.135 1
  27957550.999     7604484.520 3   5925597.797 2
 91  7 31  5  5  0.0240000  0  5 23 17 11 12 21
  29352919.392    34335887.697 3  26755253.682 2
  31550880.187    10857490.500 2   8460376.997 1
  29069021.642    -1055922.903 3   -822784.341 2
  30620069.274     3800426.555 2   2961380.602 1
  27963184.086     7634082.160 3   5948660.922 2
 91  7 31  5  5 15.0240000  0  5 23 17 11 12 21
  29364996.530    34399360.642 3  26804713.115 2
  31567584.914    10945273.581 2   8528779.375 1
  29073231.315    -1033793.418 3   -805540.589 2
  30627615.935     3840100.398 2   2992295.294 1
  27968827.382     7663734.589 3   5971766.722 2
 91  7 31  5  5 30.0240000  0  5 23 17 11 12 21
  29377083.267    34462866.612 3  26854198.296 1
  31584302.536    11033100.017 2   8597215.489 1
  29077471.579    -1011494.889 3   -788165.104 1
  30635196.798     3879938.580 2   3023338.023 1
  27974481.462     7693444.090 3   5994916.989 2
 91  7 31  5  5 45.0240000  0  5 23 17 11 12 21
  29389172.708    34526404.308 3  26903708.178 2
  31601011.783    11120968.164 2   8665684.171 1
  29081748.732     -989028.572 3   -770658.855 1
  30642808.530     3919939.775 2   3054507.843 1
  27980143.656     7723209.309 3   6018110.686 2
 91  7 31  5  6  0.0240000  0  5 23 17 11 12 21
  29401268.728    34589973.781 3  26953242.824 2
  31617740.801    11208878.141 2   8734185.325 1
  29086057.348     -966394.175 3   -753021.667 1
  30650453.226     3960104.069 2   3085804.673 1
  27985819.618     7753030.407 3   6041347.893 2
 91  7 31  5  6 15.0240000  0  5 23 17 11 12 21
  29413372.548    34653578.354 3  27002804.834 2
  31634486.902    11296832.823 2   8802721.425 1
  29090392.645     -943588.115 3   -735250.686 2
  30658125.825     4000434.873 2   3117231.309 1
  27991507.290     7782910.645 3   6064631.220 2
 91  7 31  5  6 30.0240000  0  5 23 17 11 12 21
  29425483.260    34717217.973 3  27052394.137 1
  31651230.316    11384832.331 2   8871292.444 1
  29094769.002     -920610.180 3   -717345.801 2
  30665834.686     4040932.203 2   3148787.645 1
  27997200.336     7812850.127 3   6087960.705 2
 91  7 31  5  6 45.0240000  0  5 23 17 11 12 21
  29437599.365    34780894.703 3  27102012.347 1
  31667971.619    11472878.452 1   8939899.757 1
  29099174.764     -897458.178 3   -699305.268 2
  30673572.322     4081598.032 2   3180475.296 1
  28002912.595     7842850.842 3   6111337.890 2
 91  7 31  5  7  0.0240000  0  5 23 17 11 12 21
  29449724.178    34844608.715 3  27151659.631 1
  31684743.512    11560971.372 2   9008543.526 1
  29103610.783     -874131.676 3   -681128.772 1
  30681345.644     4122432.822 2   3212294.651 1
  28008630.229     7872913.176 3   6134763.095 2
 91  7 31  5  7 15.0240000  0  5 23 17 11 12 21
  29461856.180    34908360.138 3  27201336.068 1
  31701526.782    11649110.717 2   9077223.546 1
  29108085.490     -850630.507 3   -662816.129 1
  30689147.147     4163436.772 2   3244245.773 1
  28014362.259     7903037.310 3   6158236.462 2
 91  7 31  5  7 30.0240000  0  5 23 17 11 12 21
  29473996.873    34972146.791 3  27251039.944 2
  31718290.281    11737294.184 2   9145937.900 1
  29112588.379     -826956.688 3   -644368.987 2
  30696984.319     4204607.481 2   3276326.914 1
  28020108.685     7933220.885 3   6181756.141 2
 91  7 31  5  7 45.0240000  0  5 23 17 11 12 21
  29486137.565    35035974.309 3  27300775.678 2
  31735089.152    11825527.415 2   9214690.984 1
  29117130.828     -803104.408 3   -625782.787 1
  30704849.377     4245950.807 2   3308542.488 1
  28025863.802     7963469.748 3   6205326.689 2
 91  7 31  5  8  0.0240000  0  5 23 17 11 12 21
  29498292.654    35099841.410 3  27350542.251 1
  31751897.917    11913808.811 2   9283481.611 1
  29121700.569     -779074.795 3   -607058.406 1
  30712753.401     4287465.463 2   3340891.565 1
  28031633.001     7993782.609 3   6228947.109 2
 91  7 31  5  8 15.0240000  0  5 23 17 11 12 21
  29510456.729    35163748.456 3  27400339.917 1
  31768697.696    12002138.305 2   9352309.743 1
  29126306.275     -754867.405 3   -588195.505 1
  30720681.715     4329151.789 2   3373374.411 1
  28037414.206     8024159.725 3   6252617.597 2
 91  7 31  5  8 30.0250000  0  5 23 17 11 12 21
  29822417.468    35227693.692 3  27450167.410 2
  32085306.998    12090514.184 2   9421173.988 1
  29430740.124     -730483.786 3   -569195.257 1
  31028432.170     4371008.127 2   3405989.794 1
  28342999.246     8054599.466 3   6276336.884 2
 91  7 31  5  8 45.0250000  0  5 23 17 11 12 21
  29534800.188    35291684.333 3  27500030.241 1
  31802336.501    12178945.136 2   9490081.144 1
  29135620.838     -705918.993 3   -550053.845 1
  30736644.165     4413040.415 2   3438742.182 1
  28049011.973     8085107.049 3   6300109.031 2
 91  7 31  5  9  0.0250000  0  5 23 17 11 12 21
  29546981.958    35355713.036 3  27549922.719 1
  31819171.040    12267420.436 2   9559022.847 1
  29140332.972     -681175.045 3   -530772.853 1
  30744680.706     4455244.128 2   3471628.229 1
  28054828.846     8115679.517 3   6323931.746 2
 91  7 31  5  9 15.0250000  0  5 23 17 11 12 21
  29559177.810    35419783.229 3  27599847.543 1
  31836022.384    12355944.914 2   9628003.004 1
  29145074.493     -656251.085 3   -511351.578 2
  30752740.316     4497621.244 2   3504649.347 1
  28060660.412     8146318.135 3   6347806.003 2
 91  7 31  5  9 30.0250000  0  5 23 17 11 12 21
  29571375.757    35483893.176 3  27649803.345 2
  31852883.605    12444516.696 2   9697019.813 1
  29149848.978     -631148.641 3   -491791.223 1
  30760836.816     4540170.214 2   3537804.419 1
  28066503.670     8177021.148 3   6371730.434 2
 91  7 31  5  9 45.0250000  0  5 23 17 11 12 21
  29583583.912    35548041.862 3  27699789.325 2
  31869749.031    12533134.626 2   9766072.741 1
  29154663.650     -605868.619 3   -472092.490 1
  30768965.685     4582889.932 2   3571092.512 1
  28072358.619     8207787.410 3   6395704.162 2
 91  7 31  5 10  0.0250000  0  5 23 17 11 12 21
  29595796.551    35612231.255 3  27749807.027 1
  31886615.050    12621800.614 2   9835163.134 1
  29159508.284     -580408.678 3   -452253.558 1
  30777125.739     4625782.397 2   3604515.204 1
  28078224.650     8238619.090 3   6419728.861 2
 91  7 31  5 10 15.0250000  0  5 23 17 11 12 21
  29608021.493    35676461.087 3  27799856.251 1
  31903503.266    12710514.006 2   9904290.403 1
  29164387.714     -554769.189 3   -432274.725 1
  30785318.773     4668847.299 2   3638072.246 1
  28084102.389     8269515.820 3   6443804.229 2
 91  7 31  5 10 30.0250000  0  5 23 17 11 12 21
  29620249.733    35740731.771 3  27849937.299 1
  31920394.466    12799275.379 2   9973455.097 1
  29169300.718     -528949.478 3   -412155.451 1
  30793548.662     4712085.254 2   3671764.245 1
  28089996.305     8300478.245 3   6467930.822 2
 91  7 31  5 10 45.0250000  0  5 23 17 11 12 21
  29632487.850    35805038.802 3  27900046.673 1
  31937276.679    12888079.692 2  10042653.172 1
  29174242.201     -502954.134 3   -391899.340 1
  30801808.548     4755491.540 2   3705587.309 1
  28095898.614     8331501.751 3   6492104.988 2
 91  7 31  5 11  0.0250000  0  5 23 17 11 12 21
  29644732.877    35869382.489 3  27950184.605 2
  31954190.966    12976927.238 1  10111884.940 1
  29179226.541     -476782.452 3   -371505.811 1
  30810099.915     4799066.689 2   3739541.982 1
  28101813.226     8362586.896 3   6516327.180 2
 91  7 31  5 11 15.0250000  0  5 23 17 11 12 21
  29656986.001    35933764.460 3  28000352.364 1
  31971109.755    13065819.269 2  10181151.296 1
  29184242.362     -450432.727 3   -350973.552 1
  30818425.448     4842812.328 2   3773629.466 1
  28107740.716     8393735.271 3   6540598.649 2
 91  7 31  5 11 30.0250000  0  5 23 17 11 12 21
  29669240.609    35998185.513 3  28050550.579 1
  31988033.342    13154756.586 2  10250453.140 1
  29189291.478     -423904.070 3   -330301.865 1
  30826786.354     4886729.102 2   3807850.347 1
  28113678.711     8424947.623 3   6564919.973 2
 91  7 31  5 11 45.0250000  0  5 23 17 11 12 21
  29681509.927    36062642.380 3  28100776.703 1
  32004967.121    13243735.433 2  10319787.249
  29194371.149     -397199.634 3   -309493.213 1
  30835174.848     4930813.808 2   3842202.113 1
  28119630.788     8456220.749 3   6589288.640 2
 91  7 31  5 12  0.0250000  0  5 23 17 11 12 21
  29693782.229    36127135.762 3  28151031.303 1
  32021901.493    13332756.650 2  10389154.456 1
  29199483.522     -370318.532 3   -288546.884 1
  30843591.821     4975067.232 2   3876685.263 1
  28125594.557     8487555.334 3   6613705.212 2
 91  7 31  5 12 15.0250000  0  5 23 17 11 12 21
  29706061.720    36191666.368 3  28201314.882 1
  32038846.370    13421820.915 1  10458555.402 1
  29204633.657     -343259.845 3   -267462.180 1
  30852045.980     5019490.093 2   3911300.573 1
  28131570.314     8518952.202 3   6638170.323 2
 91  7 31  5 12 30.0250000  0  5 23 17 11 12 21
  29718351.106    36256233.873 3  28251627.212 1
  32055812.518    13510927.520 2  10527989.275 1
  29209819.757     -316023.799 3   -246239.281 2
  30860534.604     5064081.999 2   3946047.466 1
  28137555.669     8550411.055 3   6662683.719 2
 91  7 31  5 12 45.0250000  0  5 23 17 11 12 21
  29730637.507    36320836.066 3  28301966.588 1
  32072771.774    13600073.863 2  10597453.851 1
  29215035.557     -288612.669 3   -224879.942 1
  30869047.204     5108840.661 2   3980924.313 1
  28143554.530     8581929.622 3   6687243.652 2
 91  7 31  5 13  0.0250000  0  5 23 17 11 12 21
  29742941.883    36385474.133 3  28352333.928 1
  32089751.133    13689261.259 2  10666950.525 1
  29220282.820     -261025.095 3   -203383.140 2
  30877598.491     5153767.289 2   4015932.081 1
  28149565.066     8613509.205 3   6711851.127 2
 91  7 31  5 13 15.0250000  0  5 23 17 11 12 21
  29755245.368    36450145.646 3  28402727.292 1
  32106728.083    13778487.027 2  10736477.046 1
  29225565.158     -233263.174 3   -181750.478 1
  30886182.742     5198859.684 2   4051069.000 1
  28155585.199     8645147.486 3   6736504.344 2
 91  7 31  5 13 30.0250000  0  5 23 17 11 12 21
  29767557.840    36514849.600 3  28453145.959 1
  32123711.909    13867749.900 2  10806032.475 1
  29230880.774     -205327.942 3   -159982.743 2
  30894792.784     5244116.661 2   4086334.197 1
  28161615.820     8676843.447 3   6761202.499 2
 91  7 31  5 13 45.0250000  0  5 23 17 11 12 21
  29779879.910    36579584.848 3  28503588.994 2
  32140701.162    13957048.457 2  10875615.765 1
  29236230.278     -177220.513 3   -138080.843 1
  30903429.507     5289536.947 2   4121726.649 1
  28167656.632     8708595.856 3   6785944.651 2
 91  7 31  5 14  0.0250000  0  5 23 17 11 12 21
  29792202.888    36644352.529 3  28554057.326 1
  32157703.886    14046383.938 2  10945227.726 1
  29241614.856     -148939.519 3   -116043.697 1
  30912114.184     5335121.850 2   4157247.361 1
  28173712.450     8740406.041 3   6810731.821 2
 91  7 31  5 14 15.0250000  0  5 23 17 11 12 21
  29804536.056    36709152.106 3  28604550.496 1
  32174714.411    14135755.234 2  11014867.663 1
  29247024.005     -120485.454 3    -93871.692 1
  30920810.570     5380870.734 2   4192895.855 1
  28179774.848     8772273.431 3   6835563.560 2
 91  7 31  5 14 30.0250000  0  5 23 17 11 12 21
  29816874.599    36773984.168 3  28655068.994 1
  32191723.434    14225163.043 2  11084535.978 1
  29252474.232      -91857.636 3    -71564.291 1
  30929547.423     5426784.198 2   4228672.580 1
  28185848.937     8804198.668 3   6860440.382 2
 91  7 31  5 14 45.0250000  0  5 23 17 11 12 21
  29829213.159    36838846.606 3  28705611.146 1
  32208748.949    14314605.036 2  11154231.117 1
  29257955.031      -63057.966 3    -49122.986 2
  30938322.352     5472860.217 2   4264576.004 1
  28191932.938     8836179.721 3   6885360.691 2
 91  7 31  5 15  0.0250000  0  5 23 17 11 12 21
  29841566.116    36903739.900 3  28756177.354 1
  32225747.782    14404081.468 1  11223952.780 1
  29263470.923      -34085.796 3    -26547.280 1
  30947118.553     5519099.180 2   4300606.356 1
  28198029.207     8868217.165 3   6910324.936 2
 91  7 31  5 15 15.0250000  0  5 23 17 11 12 21
  29853916.071    36968663.919 3  28806767.488 1
  32242811.966    14493591.947 2  11293701.299 1
  29269012.588       -4941.248 3     -3837.215 1
  30955948.643     5565500.897 2   4336763.554 1
  28204138.685     8900310.724 3   6935332.913 2
 91  7 31  5 15 30.0250000  0  5 23 17 11 12 21
  29866280.405    37033620.941 3  28857383.342 1
  32259840.778    14583138.722 2  11363478.001 1
  29274591.719       24378.005 3     19008.976 1
  30964806.007     5612067.612 2   4373049.285 1
  28210257.447     8932462.850 3   6960386.532 2
 91  7 31  5 15 45.0250000  0  5 23 17 11 12 21
  29878648.038    37098609.933 3  28908024.108 1
  32276897.476    14672720.261 2  11433281.707 1
  29280204.739       53870.803 3     41990.382 1
  30973706.246     5658798.088 2   4409462.662 1
  28216383.101     8964672.389 3   6985484.881 2
 91  7 31  5 16  0.0250000  0  5 23 17 11 12 21
  29891020.783    37163627.693 3  28958687.305 1
  32293942.761    14762333.523 2  11503110.146 1
  29285850.722       83534.361 3     65104.832 2
  30982628.978     5705689.364 2   4446001.289 1
  28222524.950     8996936.442 3   7010625.713 2
 91  7 31  5 16 15.0250000  0  5 23 17 11 12 21
  29903399.200    37228676.694 3  29009374.851 2
  32311000.663    14851980.922 2  11572965.198 1
  29291527.295      113371.357 3     88354.444 2
  30991580.469     5752743.984 2   4482667.221 1
  28228676.989     9029257.468 3   7035810.938 2
 91  7 31  5 16 30.0250000  0  5 23 17 11 12 21
  29915778.541    37293758.264 3  29060087.744 1
  32328072.648    14941663.427 2  11642847.620 1
  29297241.038      143383.016 3    111740.159 1
  31000561.066     5799963.059 2   4519461.359 1
  28234838.033     9061636.724 3   7061041.543 2
 91  7 31  5 16 45.0250000  0  5 23 17 11 12 21
  29928173.152    37358868.936 3  29110823.331 1
  32345147.913    15031377.168 2  11712754.424
  29302984.759      173565.975 3    135259.361 1
  31009577.908     5847343.136 2   4556380.909 1
  28241010.157     9094070.715 3   7086314.794 2
 91  7 31  5 17  0.0250000  0  5 23 17 11 12 21
  29940570.170    37424009.787 3  29161582.443 1
  32362227.104    15121123.098 1  11782686.171 1
  29308760.869      203921.444 3    158912.993 1
  31018627.451     5894885.227 2   4593426.640 1
  28247190.972     9126560.630 3   7111631.621 2
 91  7 31  5 17 15.0250000  0  5 23 17 11 12 21
  29952971.691    37489183.736 2  29212367.326 1
  32379311.966    15210904.132 1  11852645.327 1
  29314566.050      234452.204 3    182703.181 1
  31027708.457     5942592.053 2   4630600.831 1
  28253386.794     9159109.290 3   7136994.222 2
 91  7 31  5 17 30.0250000  0  5 23 17 11 12 21
  29965377.103    37554389.660 3  29263177.135 2
  32396400.441    15300718.502 2  11922630.442 1
  29320413.496      265157.203 3    206629.171 2
  31036815.866     5990462.465 2   4667902.444 1
  28259591.289     9191715.527 3   7162401.685 2
 91  7 31  5 17 45.0250000  0  5 23 17 11 12 21
  29977796.894    37619627.725 2  29314011.987 1
  32413500.293    15390566.607 2  11992641.731 1
  29326287.326      296036.949 3    230691.297 1
  31045959.832     6038496.784 2   4705331.799 1
  28265807.493     9224379.798 3   7187854.367 2
 91  7 31  5 18  0.0250000  0  5 23 17 11 12 21
  29990212.201    37684899.737 3  29364873.298 1
  32430593.864    15480449.990 2  12062680.659 1
  29332196.249      327093.135 3    254890.943 1
  31055129.276     6086696.546 2   4742890.056 1
  28272033.870     9257103.792 3   7213353.598 2
 91  7 31  5 18 15.0250000  0  5 23 17 11 12 21
  30002640.403    37750203.801 3  29415759.559 1
  32447710.224    15570366.629 2  12132745.505
  29338141.434      358324.237 3    279226.862 2
  31064333.201     6135060.091 2   4780575.952 1
  28278271.956     9289885.900 3   7238898.117 2
 91  7 31  5 18 30.0250000  0  5 23 17 11 12 21
  30015074.905    37815540.538 3  29466671.304 1
  32464827.474    15660317.109 2  12202836.649 1
  29344117.191      389730.928 3    303699.617 1
  31073570.108     6183588.077 2   4818389.935 1
  28284522.328     9322726.840 3   7264488.473 2
 91  7 31  5 18 45.0260000  0  5 23 17 11 12 21
  30327310.240    37880911.553 3  29517609.743 2
  32781742.277    15750302.632 2  12272955.176 1
  29649921.389      421314.632 3    328310.308 2
  31382623.466     6232281.632 2   4856332.991 1
  28590575.662     9355627.857 3   7290125.638 2
 91  7 31  5 19  0.0260000  0  5 23 17 11 12 21
  30039963.961    37946320.994 3  29568578.150 1
  32499094.347    15840328.515 2  12343105.188 1
  29356172.747      453077.236 3    353060.387 1
  31092133.565     6281143.735 2   4894407.362 1
  28297055.461     9388590.950 3   7315811.171 2
 91  7 31  5 19 15.0260000  0  5 23 17 11 12 21
  30052412.842    38011759.835 3  29619569.446 1
  32516206.205    15930382.444 1  12413277.016 1
  29362248.930      485014.455 3    377946.534 1
  31101458.909     6330167.742 2   4932607.913 1
  28303339.703     9421611.771 3   7341541.691 2
 91  7 31  5 19 30.0260000  0  5 23 17 11 12 21
  30064872.228    38077232.264 3  29670586.901 1
  32533363.329    16020470.303 2  12483475.184 1
  29368359.909      517128.329 3    402970.343 1
  31110812.435     6379356.829 2   4970937.064 1
  28309635.951     9454692.403 3   7367318.813 2
 91  7 31  5 19 45.0260000  0  5 23 17 11 12 21
  30077340.286    38142738.306 3  29721630.575 1
  32550509.355    16110591.340 2  12553699.336 1
  29374505.649      549418.795 3    428131.755 1
  31120211.821     6428710.705 2   5009394.635 1
  28315942.373     9487832.712 3   7393142.438 2
 91  7 31  5 20  0.0260000  0  5 23 17 11 12 21
  30089811.049    38208278.663 3  29772700.983 1
  32567670.667    16200746.181 2  12623949.840 1
  29380683.183      581886.743 3    453431.453 1
  31129638.498     6478230.096 2   5047981.166 1
  28322258.409     9521033.553 3   7419013.235 2
 91  7 31  5 20 15.0260000  0  5 23 17 11 12 21
  30102288.112    38273853.714 3  29823798.431 1
  32584828.087    16290935.361 2  12694227.032 1
  29386898.776      614532.498 3    478869.717 1
  31139083.463     6527915.302 2   5086696.919 1
  28328587.324     9554295.301 3   7444931.488 2
 91  7 31  5 20 30.0260000  0  5 23 17 11 12 21
  30114773.568    38339463.446 3  29874922.897 1
  32601999.311    16381158.778 2  12764530.849 1
  29393141.051      647356.186 3    504446.623 1
  31148577.882     6577766.366 2   5125541.868 1
  28334930.042     9587618.032 3   7470897.264 2
 91  7 31  5 20 45.0260000  0  5 23 17 11 12 21
  30127268.029    38405108.919 3  29926075.215 1
  32619170.221    16471417.237 2  12834862.359 1
  29399423.199      680359.006 3    530163.093 2
  31158092.108     6627784.278 2   5164516.897 1
  28341280.543     9621002.877 3   7496911.442 2
 91  7 31  5 21  0.0260000  0  5 23 17 11 12 21
  30139767.271    38470791.519 3  29977256.452 1
  32636362.123    16561711.644 2  12905221.536 1
  29405737.735      713542.220 3    556020.146 1
  31167645.596     6677970.103 2   5203622.762 1
  28347646.941     9654451.051 3   7522974.954 2
 91  7 31  5 21 15.0260000  0  5 23 17 11 12 21
  30152271.923    38536511.629 3  30028466.906 1
  32653540.222    16652042.517 2  12975609.036 1
  29412084.344      746906.358 3    582018.179 1
  31177223.950     6728324.396 2   5242859.853 1
  28354023.826     9687963.143 3   7549088.283 2
 91  7 31  5 21 30.0260000  0  5 23 17 11 12 21
  30164785.858    38602271.454 3  30079708.334 1
  32670740.518    16742411.669 2  13046026.616 1
  29418468.122      780453.607 3    608158.932 2
  31186843.994     6778849.222 2   5282229.945 1
  28360413.293     9721541.349 3   7575253.139 2
 91  7 31  5 21 45.0260000  0  5 23 17 11 12 21
  30177307.593    38668067.692 2  30130978.110 1
  32687947.706    16832815.613 2  13116471.198 1
  29424886.068      814180.710 3    634439.781 2
  31196486.827     6829541.157 2   5321730.069 1
  28366816.266     9755182.440 3   7601466.984 2
 91  7 31  5 22  0.0260000  0  5 23 17 11 12 21
  30189834.110    38733903.823 2  30182279.013 1
  32705158.786    16923257.572 2  13186945.352 1
  29431342.998      848091.153 3    660863.503 1
  31206166.515     6880403.553 2   5361363.144 1
  28373230.618     9788889.940 3   7627732.574 2
 91  7 31  5 22 15.0260000  0  5 23 17 11 12 21
  30202369.927    38799780.946 2  30233611.792 1
  32722379.464    17013738.282 1  13257449.759 1
  29437829.313      882186.013 3    687430.945 1
  31215875.904     6931437.307 2   5401129.684 1
  28379657.271     9822664.821 3   7654050.669 2
 91  7 31  5 22 30.0260000  0  4 23 11 12 21
  30214912.044    38865698.564 3  30284976.203 1
  29444352.205      916464.973 3    714141.833 2
  31225621.554     6982642.025 2   5441029.509 1
  28386097.710     9856506.827 3   7680421.076 2
 91  7 31  5 22 45.0260000  0  4 23 11 12 21
  30227465.853    38931654.816 3  30336370.676 1
  29450908.653      950926.271 3    740994.781 2
  31235393.588     7034015.760 2   5481060.966 1
  28392549.841     9890414.185 3   7706842.408 2
 91  7 31  5 23  0.0260000  0  4 23 11 12 21
  30240024.164    38997651.723 2  30387796.817 1
  29457499.897      985571.933 3    767991.389 1
  31245203.699     7085560.573 2   5521225.780 1
  28399016.665     9924388.965 3   7733316.277 2
 91  7 31  5 23 15.0260000  0  4 23 11 12 21
  30252590.275    39063689.484 2  30439254.819 1
  29464132.201     1020402.026 3    795131.736 1
  31255045.884     7137276.314 2   5561523.736 1
  28405491.289     9958431.303 3   7759842.785 2
 91  7 31  5 23 30.0260000  0  4 23 11 12 21
  30265160.871    39129769.297 3  30490745.582 1
  29470793.298     1055417.744 3    822416.717 1
  31264924.347     7189164.137 2   5601955.801 1
  28411983.590     9992542.324 3   7786422.803 2
 91  7 31  5 23 45.0260000  0  4 23 11 12 21
  30277746.753    39195889.183 3  30542267.564 1
  29477491.861     1090617.149 3    849844.834 1
  31274833.087     7241221.900 2   5642520.333 1
  28418488.787    10026720.092 4   7813054.843 3
 91  7 31  5 24  0.0260000  0  4 23 11 12 21
  30290335.934    39262046.644 3  30593818.831 1
  29484224.888     1125997.826 3    877414.191 2
  31284775.698     7293447.110 2   5683215.310 1
  28425000.580    10060962.176 4   7839736.995 3
 91  7 31  5 24 15.0260000  0  4 23 11 12 21
  30302933.822    39328242.531 3  30645400.023 2
  29490992.117     1161560.566 3    905125.425 2
  31294740.505     7345840.424 2   5724041.281 1
  28431532.161    10095269.511 4   7866469.989 3
 91  7 31  5 24 30.0260000  0  4 23 11 12 21
  30315532.897    39394480.829 3  30697014.268 1
  29497796.201     1197309.485 3    932981.721 2
  31304743.074     7398405.899 2   5765001.377 1
  28438072.730    10129646.113 4   7893256.974 3
 91  7 31  5 24 45.0260000  0  4 23 11 12 21
  30328149.055    39460759.888 3  30748660.287 1
  29504634.174     1233243.025 3    960981.882 2
  31314774.733     7451141.781 2   5806094.282 1
  28444629.492    10164090.410 4   7920096.698 3
 91  7 31  5 25  0.0260000  0  4 23 11 12 21
  30340767.325    39527078.664 3  30800337.250 2
  29511508.111     1269360.216 3    989125.149 2
  31324841.467     7504047.002 2   5847319.150 1
  28451196.149    10198601.500 4   7946988.453 2
 91  7 31  5 25 15.0260000  0  4 23 11 12 21
  30353394.285    39593439.670 3  30852047.132 1
  29518412.325     1305663.139 3   1017413.150 2
  31334940.868     7557123.606 2   5888677.501 1
  28457777.184    10233181.613 4   7973934.005 2
 91  7 31  5 25 30.0260000  0  4 23 11 12 21
  30366029.935    39659844.363 2  30903791.012 1
  29525359.710     1342153.607 3   1045847.282 1
  31345076.251     7610373.186 2   5930170.731
  28464369.632    10267832.452 3   8000934.654 2
 91  7 31  5 25 45.0260000  0  4 23 11 12 21
  30378677.871    39726289.532 2  30955566.477 1
  29532335.592     1378828.235 3   1074424.906 2
  31355241.614     7663792.257 2   5971795.924 1
  28470979.146    10302550.778 3   8027987.900 2
 91  7 31  5 26  0.0260000  0  4 23 11 12 21
  30391332.716    39792778.133 3  31007375.765 1
  29539354.034     1415690.207 3   1103148.525 1
  31365441.458     7717383.888 2   6013555.664 1
  28477597.072    10337339.694 4   8055096.159 2
 91  7 31  5 26 15.0260000  0  4 23 11 12 21
  30403992.657    39859308.638 2  31059217.722 1
  29546403.643     1452737.867 3   1132016.830 1
  31375665.279     7771146.235 2   6055448.414 1
  28484231.173    10372197.609 4   8082258.184 2
 91  7 31  5 26 30.0260000  0  4 23 11 12 21
  30416656.786    39925882.775 2  31111093.664 1
  29553489.252     1489972.818 3   1161031.084 1
  31385933.772     7825080.789 2   6097475.342 1
  28490875.483    10407126.166 4   8109475.243 3
 91  7 31  5 26 45.0260000  0  4 23 11 12 21
  30429336.812    39992499.836 3  31163003.044 1
  29560608.417     1527394.546 3   1190190.888 1
  31396231.948     7879187.054 2   6139636.076 1
  28497534.469    10442124.920 3   8136747.006 2
 91  7 31  5 27  0.0260000  0  4 23 11 12 21
  30442019.823    40059156.669 3  31214943.434 1
  29567762.657     1564999.707 3   1219493.616 1
  31406558.289     7933461.562 2   6181927.934 1
  28504208.444    10477190.724 3   8164071.012 2
 91  7 31  5 27 15.0260000  0  4 23 11 12 21
  30454713.634    40125855.678 3  31266916.661 1
  29574956.789     1602790.758 3   1248941.192 1
  31416920.019     7987906.702 2   6224352.686 1
  28510892.925    10512325.949 3   8191449.121 2
 91  7 31  5 27 30.0260000  0  4 23 11 12 21
  30467412.542    40192595.140 2  31318921.412 1
  29582180.882     1640766.079 3   1278532.340 1
  31427310.821     8042520.617 2   6266908.978 1
  28517595.379    10547529.075 3   8218880.132 2
 91  7 31  5 27 45.0260000  0  4 23 11 12 21
  30480118.953    40259373.679 3  31370956.643 1
  29589445.757     1678924.268 3   1308265.992 2
  31437737.012     8097301.832 2   6309595.640 1
  28524305.633    10582798.757 4   8246363.026 2
 91  7 31  5 28  0.0260000  0  5 23 11 15 12 21
  30492836.741    40326195.006 3  31423025.202 1
  29596744.799     1717268.795 3   1338144.858 1
  32594730.231           0.932 2         0.341 1
  31448194.963     8152253.726 2   6352415.299 1
  28531031.174    10618138.543 4   8273900.533 3
 91  7 31  5 28 15.0260000  0  5 23 11 15 12 21
  30505558.735    40393054.214 3  31475123.275 2
  29604068.429     1755794.943 3   1368165.232 1
  32591823.147      -15288.013 2    -11913.095 1
  31458681.112     8207371.440 2   6395364.146 1
  28537766.609    10653543.661 3   8301488.936 2
 91  7 31  5 28 30.0260000  0  5 23 11 15 12 21
  30518287.622    40459953.032 3  31527252.217 1
  29611435.230     1794504.388 3   1398328.435 1
  32588916.970      -30556.154 2    -23810.352 1
  31469200.819     8262656.515 2   6438443.463 1
  28544518.849    10689015.836 3   8329129.603 3
 91  7 31  5 28 45.0260000  0  5 23 11 15 12 21
  30531029.108    40526892.125 3  31579412.539 1
  29618836.513     1833397.629 3   1428634.854 2
  32586014.964      -45802.757 2    -35690.811 1
  31479750.819     8318109.403 2   6481653.505 1
  28551282.152    10724555.818 4   8356823.105 3
